<?xml version="1.0" encoding="UTF-8" standalone="no" ?>
<gpx xmlns="http://www.topografix.com/GPX/1/1" xmlns:xsi="http://www.w3.org/2001/XMLSchema-instance" xsi:schemaLocation="http://www.topografix.com/GPX/1/1 http://www.topografix.com/GPX/1/1/gpx.xsd" version="1.1" creator="VisuGPX - https://www.visugpx.com">
  <metadata>
    <name>chauve raj</name>
    <desc><![CDATA[1ére pour raj !!!]]></desc>
  </metadata>
  <trk>
    <name><![CDATA[(null)]]></name>
    <desc><![CDATA[(null)]]></desc>
    <trkseg>
      <trkpt lat="43.74329" lon="7.28459">
        <ele>81.4</ele>
        <time>2012-03-10T13:29:08Z</time>
      </trkpt>
      <trkpt lat="43.74329" lon="7.28459">
        <ele>81.4</ele>
        <time>2012-03-10T13:29:08Z</time>
      </trkpt>
      <trkpt lat="43.72975" lon="7.27776">
        <ele>163.418766</ele>
        <time>2012-03-10T13:29:19Z</time>
      </trkpt>
      <trkpt lat="43.72975" lon="7.27776">
        <ele>163.418766</ele>
        <time>2012-03-10T13:29:26Z</time>
      </trkpt>
      <trkpt lat="43.72975" lon="7.27776">
        <ele>163.418766</ele>
        <time>2012-03-10T13:29:34Z</time>
      </trkpt>
      <trkpt lat="43.72968" lon="7.27749">
        <ele>164.418701</ele>
        <time>2012-03-10T13:29:58Z</time>
      </trkpt>
      <trkpt lat="43.72967" lon="7.27736">
        <ele>164.418671</ele>
        <time>2012-03-10T13:30:03Z</time>
      </trkpt>
      <trkpt lat="43.72961" lon="7.27708">
        <ele>166.418602</ele>
        <time>2012-03-10T13:30:09Z</time>
      </trkpt>
      <trkpt lat="43.72959" lon="7.27692">
        <ele>167.418564</ele>
        <time>2012-03-10T13:30:12Z</time>
      </trkpt>
      <trkpt lat="43.72959" lon="7.27679">
        <ele>167.418537</ele>
        <time>2012-03-10T13:30:15Z</time>
      </trkpt>
      <trkpt lat="43.72964" lon="7.27662">
        <ele>168.41851</ele>
        <time>2012-03-10T13:30:19Z</time>
      </trkpt>
      <trkpt lat="43.72972" lon="7.27651">
        <ele>168.418499</ele>
        <time>2012-03-10T13:30:22Z</time>
      </trkpt>
      <trkpt lat="43.72984" lon="7.2764">
        <ele>168.418488</ele>
        <time>2012-03-10T13:30:27Z</time>
      </trkpt>
      <trkpt lat="43.72995" lon="7.27632">
        <ele>169.418488</ele>
        <time>2012-03-10T13:30:30Z</time>
      </trkpt>
      <trkpt lat="43.73004" lon="7.27627">
        <ele>169.418488</ele>
        <time>2012-03-10T13:30:32Z</time>
      </trkpt>
      <trkpt lat="43.73013" lon="7.27621">
        <ele>169.418488</ele>
        <time>2012-03-10T13:30:34Z</time>
      </trkpt>
      <trkpt lat="43.73024" lon="7.27616">
        <ele>170.418491</ele>
        <time>2012-03-10T13:30:36Z</time>
      </trkpt>
      <trkpt lat="43.73035" lon="7.2761">
        <ele>170.418495</ele>
        <time>2012-03-10T13:30:38Z</time>
      </trkpt>
      <trkpt lat="43.73047" lon="7.27604">
        <ele>170.418495</ele>
        <time>2012-03-10T13:30:40Z</time>
      </trkpt>
      <trkpt lat="43.7306" lon="7.27598">
        <ele>170.418503</ele>
        <time>2012-03-10T13:30:42Z</time>
      </trkpt>
      <trkpt lat="43.73072" lon="7.27592">
        <ele>171.418507</ele>
        <time>2012-03-10T13:30:44Z</time>
      </trkpt>
      <trkpt lat="43.73078" lon="7.27589">
        <ele>171.41851</ele>
        <time>2012-03-10T13:30:45Z</time>
      </trkpt>
      <trkpt lat="43.73089" lon="7.27583">
        <ele>171.41851</ele>
        <time>2012-03-10T13:30:47Z</time>
      </trkpt>
      <trkpt lat="43.731" lon="7.27577">
        <ele>171.418514</ele>
        <time>2012-03-10T13:30:49Z</time>
      </trkpt>
      <trkpt lat="43.73111" lon="7.27572">
        <ele>171.418518</ele>
        <time>2012-03-10T13:30:51Z</time>
      </trkpt>
      <trkpt lat="43.73121" lon="7.27567">
        <ele>172.418522</ele>
        <time>2012-03-10T13:30:53Z</time>
      </trkpt>
      <trkpt lat="43.73131" lon="7.27563">
        <ele>172.418526</ele>
        <time>2012-03-10T13:30:55Z</time>
      </trkpt>
      <trkpt lat="43.7314" lon="7.2756">
        <ele>172.418533</ele>
        <time>2012-03-10T13:30:57Z</time>
      </trkpt>
      <trkpt lat="43.7315" lon="7.27559">
        <ele>172.418541</ele>
        <time>2012-03-10T13:30:59Z</time>
      </trkpt>
      <trkpt lat="43.73159" lon="7.27558">
        <ele>172.418556</ele>
        <time>2012-03-10T13:31:01Z</time>
      </trkpt>
      <trkpt lat="43.73168" lon="7.27557">
        <ele>172.418564</ele>
        <time>2012-03-10T13:31:03Z</time>
      </trkpt>
      <trkpt lat="43.73177" lon="7.27555">
        <ele>172.418571</ele>
        <time>2012-03-10T13:31:05Z</time>
      </trkpt>
      <trkpt lat="43.7319" lon="7.27555">
        <ele>173.418587</ele>
        <time>2012-03-10T13:31:08Z</time>
      </trkpt>
      <trkpt lat="43.73193" lon="7.27555">
        <ele>174.418594</ele>
        <time>2012-03-10T13:31:09Z</time>
      </trkpt>
      <trkpt lat="43.73202" lon="7.27557">
        <ele>175.41861</ele>
        <time>2012-03-10T13:31:12Z</time>
      </trkpt>
      <trkpt lat="43.73212" lon="7.27562">
        <ele>175.418633</ele>
        <time>2012-03-10T13:31:15Z</time>
      </trkpt>
      <trkpt lat="43.73222" lon="7.27568">
        <ele>176.418659</ele>
        <time>2012-03-10T13:31:19Z</time>
      </trkpt>
      <trkpt lat="43.73233" lon="7.27575">
        <ele>177.418686</ele>
        <time>2012-03-10T13:31:22Z</time>
      </trkpt>
      <trkpt lat="43.73244" lon="7.27582">
        <ele>178.418724</ele>
        <time>2012-03-10T13:31:25Z</time>
      </trkpt>
      <trkpt lat="43.73249" lon="7.27588">
        <ele>179.418739</ele>
        <time>2012-03-10T13:31:27Z</time>
      </trkpt>
      <trkpt lat="43.73259" lon="7.27595">
        <ele>179.41877</ele>
        <time>2012-03-10T13:31:30Z</time>
      </trkpt>
      <trkpt lat="43.73269" lon="7.27603">
        <ele>181.418797</ele>
        <time>2012-03-10T13:31:33Z</time>
      </trkpt>
      <trkpt lat="43.73278" lon="7.27607">
        <ele>183.418816</ele>
        <time>2012-03-10T13:31:36Z</time>
      </trkpt>
      <trkpt lat="43.73285" lon="7.27623">
        <ele>183.418865</ele>
        <time>2012-03-10T13:31:42Z</time>
      </trkpt>
      <trkpt lat="43.7329" lon="7.27634">
        <ele>184.418892</ele>
        <time>2012-03-10T13:31:44Z</time>
      </trkpt>
      <trkpt lat="43.73297" lon="7.27647">
        <ele>185.41893</ele>
        <time>2012-03-10T13:31:47Z</time>
      </trkpt>
      <trkpt lat="43.73305" lon="7.27658">
        <ele>185.418961</ele>
        <time>2012-03-10T13:31:50Z</time>
      </trkpt>
      <trkpt lat="43.73312" lon="7.2767">
        <ele>185.418999</ele>
        <time>2012-03-10T13:31:53Z</time>
      </trkpt>
      <trkpt lat="43.73319" lon="7.27681">
        <ele>185.419037</ele>
        <time>2012-03-10T13:31:56Z</time>
      </trkpt>
      <trkpt lat="43.73327" lon="7.27699">
        <ele>187.419083</ele>
        <time>2012-03-10T13:32:03Z</time>
      </trkpt>
      <trkpt lat="43.73336" lon="7.27722">
        <ele>187.419147</ele>
        <time>2012-03-10T13:32:09Z</time>
      </trkpt>
      <trkpt lat="43.73342" lon="7.27736">
        <ele>187.419182</ele>
        <time>2012-03-10T13:32:12Z</time>
      </trkpt>
      <trkpt lat="43.73347" lon="7.27749">
        <ele>187.41922</ele>
        <time>2012-03-10T13:32:16Z</time>
      </trkpt>
      <trkpt lat="43.73352" lon="7.2776">
        <ele>187.41925</ele>
        <time>2012-03-10T13:32:20Z</time>
      </trkpt>
      <trkpt lat="43.73359" lon="7.2777">
        <ele>188.419277</ele>
        <time>2012-03-10T13:32:25Z</time>
      </trkpt>
      <trkpt lat="43.73367" lon="7.27781">
        <ele>191.419312</ele>
        <time>2012-03-10T13:32:35Z</time>
      </trkpt>
      <trkpt lat="43.73383" lon="7.27793">
        <ele>193.419361</ele>
        <time>2012-03-10T13:32:46Z</time>
      </trkpt>
      <trkpt lat="43.73393" lon="7.27798">
        <ele>195.419388</ele>
        <time>2012-03-10T13:32:52Z</time>
      </trkpt>
      <trkpt lat="43.73409" lon="7.27802">
        <ele>194.419415</ele>
        <time>2012-03-10T13:32:59Z</time>
      </trkpt>
      <trkpt lat="43.73424" lon="7.27806">
        <ele>196.419441</ele>
        <time>2012-03-10T13:33:09Z</time>
      </trkpt>
      <trkpt lat="43.7344" lon="7.27814">
        <ele>197.419479</ele>
        <time>2012-03-10T13:33:17Z</time>
      </trkpt>
      <trkpt lat="43.73451" lon="7.27818">
        <ele>199.419502</ele>
        <time>2012-03-10T13:33:22Z</time>
      </trkpt>
      <trkpt lat="43.7346" lon="7.27823">
        <ele>200.419529</ele>
        <time>2012-03-10T13:33:27Z</time>
      </trkpt>
      <trkpt lat="43.7347" lon="7.27828">
        <ele>202.419552</ele>
        <time>2012-03-10T13:33:34Z</time>
      </trkpt>
      <trkpt lat="43.73478" lon="7.27834">
        <ele>204.419579</ele>
        <time>2012-03-10T13:33:39Z</time>
      </trkpt>
      <trkpt lat="43.73486" lon="7.2784">
        <ele>204.419601</ele>
        <time>2012-03-10T13:33:43Z</time>
      </trkpt>
      <trkpt lat="43.73496" lon="7.27845">
        <ele>205.419621</ele>
        <time>2012-03-10T13:33:48Z</time>
      </trkpt>
      <trkpt lat="43.73505" lon="7.2785">
        <ele>206.419647</ele>
        <time>2012-03-10T13:33:53Z</time>
      </trkpt>
      <trkpt lat="43.73516" lon="7.27858">
        <ele>208.419678</ele>
        <time>2012-03-10T13:33:58Z</time>
      </trkpt>
      <trkpt lat="43.7353" lon="7.27873">
        <ele>212.419727</ele>
        <time>2012-03-10T13:34:05Z</time>
      </trkpt>
      <trkpt lat="43.73539" lon="7.2788">
        <ele>215.419758</ele>
        <time>2012-03-10T13:34:09Z</time>
      </trkpt>
      <trkpt lat="43.73542" lon="7.27882">
        <ele>215.419765</ele>
        <time>2012-03-10T13:34:10Z</time>
      </trkpt>
      <trkpt lat="43.73551" lon="7.27886">
        <ele>218.419785</ele>
        <time>2012-03-10T13:34:13Z</time>
      </trkpt>
      <trkpt lat="43.73555" lon="7.27887">
        <ele>218.419796</ele>
        <time>2012-03-10T13:34:14Z</time>
      </trkpt>
      <trkpt lat="43.73563" lon="7.27891">
        <ele>219.419811</ele>
        <time>2012-03-10T13:34:17Z</time>
      </trkpt>
      <trkpt lat="43.73572" lon="7.27894">
        <ele>220.41983</ele>
        <time>2012-03-10T13:34:20Z</time>
      </trkpt>
      <trkpt lat="43.73583" lon="7.27897">
        <ele>220.419853</ele>
        <time>2012-03-10T13:34:24Z</time>
      </trkpt>
      <trkpt lat="43.73593" lon="7.27902">
        <ele>220.419876</ele>
        <time>2012-03-10T13:34:28Z</time>
      </trkpt>
      <trkpt lat="43.73602" lon="7.27908">
        <ele>219.419899</ele>
        <time>2012-03-10T13:34:32Z</time>
      </trkpt>
      <trkpt lat="43.73611" lon="7.27914">
        <ele>219.41993</ele>
        <time>2012-03-10T13:34:37Z</time>
      </trkpt>
      <trkpt lat="43.73615" lon="7.27916">
        <ele>219.419937</ele>
        <time>2012-03-10T13:34:39Z</time>
      </trkpt>
      <trkpt lat="43.73625" lon="7.27922">
        <ele>220.419964</ele>
        <time>2012-03-10T13:34:45Z</time>
      </trkpt>
      <trkpt lat="43.73627" lon="7.27922">
        <ele>221.419968</ele>
        <time>2012-03-10T13:34:46Z</time>
      </trkpt>
      <trkpt lat="43.73636" lon="7.27923">
        <ele>221.419979</ele>
        <time>2012-03-10T13:34:50Z</time>
      </trkpt>
      <trkpt lat="43.73645" lon="7.27921">
        <ele>221.419991</ele>
        <time>2012-03-10T13:34:54Z</time>
      </trkpt>
      <trkpt lat="43.73655" lon="7.27916">
        <ele>222.419991</ele>
        <time>2012-03-10T13:34:59Z</time>
      </trkpt>
      <trkpt lat="43.7366" lon="7.27913">
        <ele>222.419994</ele>
        <time>2012-03-10T13:35:02Z</time>
      </trkpt>
      <trkpt lat="43.73668" lon="7.27904">
        <ele>223.419983</ele>
        <time>2012-03-10T13:35:09Z</time>
      </trkpt>
      <trkpt lat="43.73669" lon="7.27902">
        <ele>224.419983</ele>
        <time>2012-03-10T13:35:10Z</time>
      </trkpt>
      <trkpt lat="43.73684" lon="7.2789">
        <ele>227.419975</ele>
        <time>2012-03-10T13:35:18Z</time>
      </trkpt>
      <trkpt lat="43.73693" lon="7.27882">
        <ele>227.419971</ele>
        <time>2012-03-10T13:35:23Z</time>
      </trkpt>
      <trkpt lat="43.73702" lon="7.27876">
        <ele>229.419971</ele>
        <time>2012-03-10T13:35:27Z</time>
      </trkpt>
      <trkpt lat="43.73711" lon="7.2787">
        <ele>230.419975</ele>
        <time>2012-03-10T13:35:31Z</time>
      </trkpt>
      <trkpt lat="43.73724" lon="7.27863">
        <ele>231.419975</ele>
        <time>2012-03-10T13:35:37Z</time>
      </trkpt>
      <trkpt lat="43.73732" lon="7.27858">
        <ele>231.419971</ele>
        <time>2012-03-10T13:35:41Z</time>
      </trkpt>
      <trkpt lat="43.73742" lon="7.27854">
        <ele>233.419975</ele>
        <time>2012-03-10T13:35:45Z</time>
      </trkpt>
      <trkpt lat="43.73751" lon="7.27849">
        <ele>233.419979</ele>
        <time>2012-03-10T13:35:49Z</time>
      </trkpt>
      <trkpt lat="43.73759" lon="7.27845">
        <ele>233.419983</ele>
        <time>2012-03-10T13:35:53Z</time>
      </trkpt>
      <trkpt lat="43.73768" lon="7.27841">
        <ele>232.419987</ele>
        <time>2012-03-10T13:35:57Z</time>
      </trkpt>
      <trkpt lat="43.73774" lon="7.27838">
        <ele>232.419991</ele>
        <time>2012-03-10T13:36:00Z</time>
      </trkpt>
      <trkpt lat="43.73776" lon="7.27837">
        <ele>232.419987</ele>
        <time>2012-03-10T13:36:01Z</time>
      </trkpt>
      <trkpt lat="43.73778" lon="7.27836">
        <ele>232.419991</ele>
        <time>2012-03-10T13:36:02Z</time>
      </trkpt>
      <trkpt lat="43.73788" lon="7.27831">
        <ele>232.419991</ele>
        <time>2012-03-10T13:36:07Z</time>
      </trkpt>
      <trkpt lat="43.73798" lon="7.27827">
        <ele>233.419998</ele>
        <time>2012-03-10T13:36:12Z</time>
      </trkpt>
      <trkpt lat="43.738" lon="7.27827">
        <ele>233.419998</ele>
        <time>2012-03-10T13:36:13Z</time>
      </trkpt>
      <trkpt lat="43.73809" lon="7.27823">
        <ele>233.420006</ele>
        <time>2012-03-10T13:36:18Z</time>
      </trkpt>
      <trkpt lat="43.73818" lon="7.27818">
        <ele>233.420006</ele>
        <time>2012-03-10T13:36:23Z</time>
      </trkpt>
      <trkpt lat="43.73828" lon="7.27814">
        <ele>234.42001</ele>
        <time>2012-03-10T13:36:28Z</time>
      </trkpt>
      <trkpt lat="43.73838" lon="7.2781">
        <ele>233.420013</ele>
        <time>2012-03-10T13:36:33Z</time>
      </trkpt>
      <trkpt lat="43.73848" lon="7.27805">
        <ele>234.420017</ele>
        <time>2012-03-10T13:36:38Z</time>
      </trkpt>
      <trkpt lat="43.73858" lon="7.27801">
        <ele>234.420021</ele>
        <time>2012-03-10T13:36:43Z</time>
      </trkpt>
      <trkpt lat="43.73867" lon="7.27798">
        <ele>236.420029</ele>
        <time>2012-03-10T13:36:48Z</time>
      </trkpt>
      <trkpt lat="43.73876" lon="7.27795">
        <ele>236.420036</ele>
        <time>2012-03-10T13:36:53Z</time>
      </trkpt>
      <trkpt lat="43.73885" lon="7.27791">
        <ele>237.420036</ele>
        <time>2012-03-10T13:36:58Z</time>
      </trkpt>
      <trkpt lat="43.73895" lon="7.27788">
        <ele>237.420044</ele>
        <time>2012-03-10T13:37:03Z</time>
      </trkpt>
      <trkpt lat="43.73903" lon="7.27783">
        <ele>238.420044</ele>
        <time>2012-03-10T13:37:08Z</time>
      </trkpt>
      <trkpt lat="43.73912" lon="7.27778">
        <ele>239.420044</ele>
        <time>2012-03-10T13:37:14Z</time>
      </trkpt>
      <trkpt lat="43.73927" lon="7.27765">
        <ele>240.42004</ele>
        <time>2012-03-10T13:37:24Z</time>
      </trkpt>
      <trkpt lat="43.73935" lon="7.27759">
        <ele>240.420036</ele>
        <time>2012-03-10T13:37:29Z</time>
      </trkpt>
      <trkpt lat="43.73944" lon="7.27751">
        <ele>240.420036</ele>
        <time>2012-03-10T13:37:34Z</time>
      </trkpt>
      <trkpt lat="43.73952" lon="7.27742">
        <ele>240.420029</ele>
        <time>2012-03-10T13:37:39Z</time>
      </trkpt>
      <trkpt lat="43.73958" lon="7.27732">
        <ele>240.420013</ele>
        <time>2012-03-10T13:37:44Z</time>
      </trkpt>
      <trkpt lat="43.73956" lon="7.27719">
        <ele>241.419983</ele>
        <time>2012-03-10T13:37:51Z</time>
      </trkpt>
      <trkpt lat="43.73949" lon="7.27709">
        <ele>244.419952</ele>
        <time>2012-03-10T13:37:58Z</time>
      </trkpt>
      <trkpt lat="43.7395" lon="7.27693">
        <ele>248.419922</ele>
        <time>2012-03-10T13:38:07Z</time>
      </trkpt>
      <trkpt lat="43.73951" lon="7.27692">
        <ele>248.419914</ele>
        <time>2012-03-10T13:38:08Z</time>
      </trkpt>
      <trkpt lat="43.73962" lon="7.27686">
        <ele>249.419918</ele>
        <time>2012-03-10T13:38:14Z</time>
      </trkpt>
      <trkpt lat="43.73971" lon="7.27687">
        <ele>248.419937</ele>
        <time>2012-03-10T13:38:18Z</time>
      </trkpt>
      <trkpt lat="43.73981" lon="7.27693">
        <ele>249.41996</ele>
        <time>2012-03-10T13:38:23Z</time>
      </trkpt>
      <trkpt lat="43.7399" lon="7.27711">
        <ele>249.42001</ele>
        <time>2012-03-10T13:38:30Z</time>
      </trkpt>
      <trkpt lat="43.73993" lon="7.27727">
        <ele>249.420052</ele>
        <time>2012-03-10T13:38:36Z</time>
      </trkpt>
      <trkpt lat="43.73993" lon="7.27729">
        <ele>249.420055</ele>
        <time>2012-03-10T13:38:38Z</time>
      </trkpt>
      <trkpt lat="43.74002" lon="7.27731">
        <ele>252.420074</ele>
        <time>2012-03-10T13:38:52Z</time>
      </trkpt>
      <trkpt lat="43.74012" lon="7.27729">
        <ele>254.420082</ele>
        <time>2012-03-10T13:38:57Z</time>
      </trkpt>
      <trkpt lat="43.74026" lon="7.27717">
        <ele>255.420071</ele>
        <time>2012-03-10T13:39:06Z</time>
      </trkpt>
      <trkpt lat="43.74033" lon="7.27708">
        <ele>257.420059</ele>
        <time>2012-03-10T13:39:10Z</time>
      </trkpt>
      <trkpt lat="43.74041" lon="7.27698">
        <ele>260.420052</ele>
        <time>2012-03-10T13:39:14Z</time>
      </trkpt>
      <trkpt lat="43.74048" lon="7.27692">
        <ele>262.420048</ele>
        <time>2012-03-10T13:39:17Z</time>
      </trkpt>
      <trkpt lat="43.74056" lon="7.27683">
        <ele>263.420036</ele>
        <time>2012-03-10T13:39:21Z</time>
      </trkpt>
      <trkpt lat="43.7406" lon="7.27678">
        <ele>264.420036</ele>
        <time>2012-03-10T13:39:23Z</time>
      </trkpt>
      <trkpt lat="43.74067" lon="7.27665">
        <ele>265.420017</ele>
        <time>2012-03-10T13:39:27Z</time>
      </trkpt>
      <trkpt lat="43.74072" lon="7.27654">
        <ele>266.419998</ele>
        <time>2012-03-10T13:39:30Z</time>
      </trkpt>
      <trkpt lat="43.74077" lon="7.27643">
        <ele>267.419987</ele>
        <time>2012-03-10T13:39:33Z</time>
      </trkpt>
      <trkpt lat="43.74078" lon="7.2762">
        <ele>269.419937</ele>
        <time>2012-03-10T13:39:45Z</time>
      </trkpt>
      <trkpt lat="43.74079" lon="7.27602">
        <ele>271.419899</ele>
        <time>2012-03-10T13:39:51Z</time>
      </trkpt>
      <trkpt lat="43.7408" lon="7.27577">
        <ele>273.419846</ele>
        <time>2012-03-10T13:39:58Z</time>
      </trkpt>
      <trkpt lat="43.7408" lon="7.27574">
        <ele>273.419842</ele>
        <time>2012-03-10T13:40:01Z</time>
      </trkpt>
      <trkpt lat="43.74083" lon="7.27559">
        <ele>274.419815</ele>
        <time>2012-03-10T13:40:03Z</time>
      </trkpt>
      <trkpt lat="43.74086" lon="7.27552">
        <ele>274.419804</ele>
        <time>2012-03-10T13:40:05Z</time>
      </trkpt>
      <trkpt lat="43.74096" lon="7.27534">
        <ele>275.419785</ele>
        <time>2012-03-10T13:40:10Z</time>
      </trkpt>
      <trkpt lat="43.74103" lon="7.27525">
        <ele>275.419769</ele>
        <time>2012-03-10T13:40:16Z</time>
      </trkpt>
      <trkpt lat="43.74103" lon="7.27525">
        <ele>275.419769</ele>
        <time>2012-03-10T13:40:17Z</time>
      </trkpt>
      <trkpt lat="43.74111" lon="7.27516">
        <ele>276.419762</ele>
        <time>2012-03-10T13:40:29Z</time>
      </trkpt>
      <trkpt lat="43.74112" lon="7.27515">
        <ele>276.419758</ele>
        <time>2012-03-10T13:40:31Z</time>
      </trkpt>
      <trkpt lat="43.74121" lon="7.27505">
        <ele>277.41975</ele>
        <time>2012-03-10T13:40:37Z</time>
      </trkpt>
      <trkpt lat="43.74128" lon="7.27497">
        <ele>278.419743</ele>
        <time>2012-03-10T13:40:42Z</time>
      </trkpt>
      <trkpt lat="43.74131" lon="7.27492">
        <ele>278.419739</ele>
        <time>2012-03-10T13:40:44Z</time>
      </trkpt>
      <trkpt lat="43.74139" lon="7.27482">
        <ele>279.419724</ele>
        <time>2012-03-10T13:40:50Z</time>
      </trkpt>
      <trkpt lat="43.74146" lon="7.27473">
        <ele>280.419716</ele>
        <time>2012-03-10T13:41:02Z</time>
      </trkpt>
      <trkpt lat="43.74149" lon="7.27469">
        <ele>281.419708</ele>
        <time>2012-03-10T13:41:06Z</time>
      </trkpt>
      <trkpt lat="43.74157" lon="7.27456">
        <ele>281.419693</ele>
        <time>2012-03-10T13:41:16Z</time>
      </trkpt>
      <trkpt lat="43.74163" lon="7.27446">
        <ele>283.419678</ele>
        <time>2012-03-10T13:41:27Z</time>
      </trkpt>
      <trkpt lat="43.74171" lon="7.27439">
        <ele>284.419678</ele>
        <time>2012-03-10T13:41:35Z</time>
      </trkpt>
      <trkpt lat="43.74184" lon="7.2743">
        <ele>285.419678</ele>
        <time>2012-03-10T13:41:42Z</time>
      </trkpt>
      <trkpt lat="43.74196" lon="7.2742">
        <ele>287.41967</ele>
        <time>2012-03-10T13:41:47Z</time>
      </trkpt>
      <trkpt lat="43.74204" lon="7.27413">
        <ele>287.41967</ele>
        <time>2012-03-10T13:41:51Z</time>
      </trkpt>
      <trkpt lat="43.74219" lon="7.274">
        <ele>290.419662</ele>
        <time>2012-03-10T13:41:59Z</time>
      </trkpt>
      <trkpt lat="43.74228" lon="7.27394">
        <ele>291.419659</ele>
        <time>2012-03-10T13:42:04Z</time>
      </trkpt>
      <trkpt lat="43.74236" lon="7.27388">
        <ele>293.419659</ele>
        <time>2012-03-10T13:42:09Z</time>
      </trkpt>
      <trkpt lat="43.74244" lon="7.2738">
        <ele>290.419651</ele>
        <time>2012-03-10T13:42:15Z</time>
      </trkpt>
      <trkpt lat="43.74254" lon="7.27371">
        <ele>291.419647</ele>
        <time>2012-03-10T13:42:25Z</time>
      </trkpt>
      <trkpt lat="43.7426" lon="7.2736">
        <ele>298.419632</ele>
        <time>2012-03-10T13:44:51Z</time>
      </trkpt>
      <trkpt lat="43.74264" lon="7.27355">
        <ele>298.419624</ele>
        <time>2012-03-10T13:44:58Z</time>
      </trkpt>
      <trkpt lat="43.74269" lon="7.2734">
        <ele>300.419598</ele>
        <time>2012-03-10T13:45:05Z</time>
      </trkpt>
      <trkpt lat="43.74273" lon="7.27324">
        <ele>301.419571</ele>
        <time>2012-03-10T13:45:11Z</time>
      </trkpt>
      <trkpt lat="43.74278" lon="7.27312">
        <ele>302.419556</ele>
        <time>2012-03-10T13:45:16Z</time>
      </trkpt>
      <trkpt lat="43.7428" lon="7.27309">
        <ele>302.419548</ele>
        <time>2012-03-10T13:45:17Z</time>
      </trkpt>
      <trkpt lat="43.74286" lon="7.27298">
        <ele>302.419533</ele>
        <time>2012-03-10T13:45:23Z</time>
      </trkpt>
      <trkpt lat="43.74294" lon="7.2729">
        <ele>303.419525</ele>
        <time>2012-03-10T13:45:28Z</time>
      </trkpt>
      <trkpt lat="43.74302" lon="7.27282">
        <ele>303.419521</ele>
        <time>2012-03-10T13:45:32Z</time>
      </trkpt>
      <trkpt lat="43.74313" lon="7.27273">
        <ele>304.419521</ele>
        <time>2012-03-10T13:45:37Z</time>
      </trkpt>
      <trkpt lat="43.7432" lon="7.27265">
        <ele>304.41951</ele>
        <time>2012-03-10T13:45:41Z</time>
      </trkpt>
      <trkpt lat="43.74324" lon="7.27261">
        <ele>304.41951</ele>
        <time>2012-03-10T13:45:43Z</time>
      </trkpt>
      <trkpt lat="43.74332" lon="7.27251">
        <ele>305.419495</ele>
        <time>2012-03-10T13:45:48Z</time>
      </trkpt>
      <trkpt lat="43.7434" lon="7.27237">
        <ele>306.419476</ele>
        <time>2012-03-10T13:45:54Z</time>
      </trkpt>
      <trkpt lat="43.74347" lon="7.27217">
        <ele>307.419445</ele>
        <time>2012-03-10T13:46:07Z</time>
      </trkpt>
      <trkpt lat="43.74351" lon="7.27205">
        <ele>308.419426</ele>
        <time>2012-03-10T13:46:16Z</time>
      </trkpt>
      <trkpt lat="43.74355" lon="7.27193">
        <ele>310.419403</ele>
        <time>2012-03-10T13:46:22Z</time>
      </trkpt>
      <trkpt lat="43.74359" lon="7.2718">
        <ele>309.419384</ele>
        <time>2012-03-10T13:46:28Z</time>
      </trkpt>
      <trkpt lat="43.74364" lon="7.27164">
        <ele>309.419357</ele>
        <time>2012-03-10T13:46:34Z</time>
      </trkpt>
      <trkpt lat="43.74368" lon="7.27149">
        <ele>308.419331</ele>
        <time>2012-03-10T13:46:39Z</time>
      </trkpt>
      <trkpt lat="43.74371" lon="7.27137">
        <ele>307.419304</ele>
        <time>2012-03-10T13:46:44Z</time>
      </trkpt>
      <trkpt lat="43.74374" lon="7.27124">
        <ele>308.419281</ele>
        <time>2012-03-10T13:46:49Z</time>
      </trkpt>
      <trkpt lat="43.74377" lon="7.27112">
        <ele>309.419262</ele>
        <time>2012-03-10T13:46:53Z</time>
      </trkpt>
      <trkpt lat="43.74378" lon="7.27109">
        <ele>309.419258</ele>
        <time>2012-03-10T13:46:55Z</time>
      </trkpt>
      <trkpt lat="43.74382" lon="7.27096">
        <ele>310.419235</ele>
        <time>2012-03-10T13:47:00Z</time>
      </trkpt>
      <trkpt lat="43.74382" lon="7.27096">
        <ele>310.419235</ele>
        <time>2012-03-10T13:47:04Z</time>
      </trkpt>
      <trkpt lat="43.74386" lon="7.27082">
        <ele>310.419209</ele>
        <time>2012-03-10T13:47:07Z</time>
      </trkpt>
      <trkpt lat="43.74388" lon="7.27071">
        <ele>310.419189</ele>
        <time>2012-03-10T13:47:11Z</time>
      </trkpt>
      <trkpt lat="43.74391" lon="7.27056">
        <ele>309.419167</ele>
        <time>2012-03-10T13:47:17Z</time>
      </trkpt>
      <trkpt lat="43.74394" lon="7.2704">
        <ele>309.419132</ele>
        <time>2012-03-10T13:47:24Z</time>
      </trkpt>
      <trkpt lat="43.74397" lon="7.27026">
        <ele>308.419109</ele>
        <time>2012-03-10T13:47:30Z</time>
      </trkpt>
      <trkpt lat="43.74399" lon="7.27011">
        <ele>308.419075</ele>
        <time>2012-03-10T13:47:35Z</time>
      </trkpt>
      <trkpt lat="43.744" lon="7.26997">
        <ele>309.419052</ele>
        <time>2012-03-10T13:47:40Z</time>
      </trkpt>
      <trkpt lat="43.744" lon="7.26982">
        <ele>310.419014</ele>
        <time>2012-03-10T13:47:46Z</time>
      </trkpt>
      <trkpt lat="43.74399" lon="7.26969">
        <ele>310.418987</ele>
        <time>2012-03-10T13:47:51Z</time>
      </trkpt>
      <trkpt lat="43.74399" lon="7.26962">
        <ele>310.418972</ele>
        <time>2012-03-10T13:47:54Z</time>
      </trkpt>
      <trkpt lat="43.74398" lon="7.26947">
        <ele>311.418945</ele>
        <time>2012-03-10T13:48:00Z</time>
      </trkpt>
      <trkpt lat="43.74398" lon="7.26944">
        <ele>311.418934</ele>
        <time>2012-03-10T13:48:02Z</time>
      </trkpt>
      <trkpt lat="43.74398" lon="7.2693">
        <ele>312.418907</ele>
        <time>2012-03-10T13:48:05Z</time>
      </trkpt>
      <trkpt lat="43.74399" lon="7.26915">
        <ele>312.418873</ele>
        <time>2012-03-10T13:48:09Z</time>
      </trkpt>
      <trkpt lat="43.744" lon="7.26911">
        <ele>313.418865</ele>
        <time>2012-03-10T13:48:10Z</time>
      </trkpt>
      <trkpt lat="43.74403" lon="7.2689">
        <ele>313.418827</ele>
        <time>2012-03-10T13:48:15Z</time>
      </trkpt>
      <trkpt lat="43.74406" lon="7.26877">
        <ele>314.418804</ele>
        <time>2012-03-10T13:48:18Z</time>
      </trkpt>
      <trkpt lat="43.74409" lon="7.26864">
        <ele>314.418777</ele>
        <time>2012-03-10T13:48:21Z</time>
      </trkpt>
      <trkpt lat="43.74411" lon="7.2686">
        <ele>315.41877</ele>
        <time>2012-03-10T13:48:22Z</time>
      </trkpt>
      <trkpt lat="43.74415" lon="7.26848">
        <ele>316.418755</ele>
        <time>2012-03-10T13:48:25Z</time>
      </trkpt>
      <trkpt lat="43.74418" lon="7.26836">
        <ele>316.418732</ele>
        <time>2012-03-10T13:48:28Z</time>
      </trkpt>
      <trkpt lat="43.74422" lon="7.26824">
        <ele>316.418709</ele>
        <time>2012-03-10T13:48:31Z</time>
      </trkpt>
      <trkpt lat="43.74425" lon="7.26812">
        <ele>316.41869</ele>
        <time>2012-03-10T13:48:34Z</time>
      </trkpt>
      <trkpt lat="43.74428" lon="7.26799">
        <ele>317.418667</ele>
        <time>2012-03-10T13:48:39Z</time>
      </trkpt>
      <trkpt lat="43.74428" lon="7.26784">
        <ele>317.418633</ele>
        <time>2012-03-10T13:48:43Z</time>
      </trkpt>
      <trkpt lat="43.74426" lon="7.26763">
        <ele>318.418587</ele>
        <time>2012-03-10T13:48:49Z</time>
      </trkpt>
      <trkpt lat="43.74423" lon="7.26748">
        <ele>318.418549</ele>
        <time>2012-03-10T13:48:52Z</time>
      </trkpt>
      <trkpt lat="43.74418" lon="7.26733">
        <ele>318.41851</ele>
        <time>2012-03-10T13:48:55Z</time>
      </trkpt>
      <trkpt lat="43.74412" lon="7.26717">
        <ele>319.418472</ele>
        <time>2012-03-10T13:48:58Z</time>
      </trkpt>
      <trkpt lat="43.74405" lon="7.26703">
        <ele>320.418427</ele>
        <time>2012-03-10T13:49:01Z</time>
      </trkpt>
      <trkpt lat="43.74399" lon="7.2669">
        <ele>321.418396</ele>
        <time>2012-03-10T13:49:04Z</time>
      </trkpt>
      <trkpt lat="43.74398" lon="7.26685">
        <ele>321.418381</ele>
        <time>2012-03-10T13:49:05Z</time>
      </trkpt>
      <trkpt lat="43.74393" lon="7.26671">
        <ele>322.418346</ele>
        <time>2012-03-10T13:49:08Z</time>
      </trkpt>
      <trkpt lat="43.74391" lon="7.26661">
        <ele>323.418327</ele>
        <time>2012-03-10T13:49:10Z</time>
      </trkpt>
      <trkpt lat="43.74389" lon="7.26646">
        <ele>323.418289</ele>
        <time>2012-03-10T13:49:13Z</time>
      </trkpt>
      <trkpt lat="43.74386" lon="7.26631">
        <ele>323.418251</ele>
        <time>2012-03-10T13:49:16Z</time>
      </trkpt>
      <trkpt lat="43.74385" lon="7.26626">
        <ele>323.418243</ele>
        <time>2012-03-10T13:49:17Z</time>
      </trkpt>
      <trkpt lat="43.74382" lon="7.26612">
        <ele>324.418205</ele>
        <time>2012-03-10T13:49:21Z</time>
      </trkpt>
      <trkpt lat="43.74382" lon="7.26608">
        <ele>324.418198</ele>
        <time>2012-03-10T13:49:22Z</time>
      </trkpt>
      <trkpt lat="43.7438" lon="7.26593">
        <ele>325.418163</ele>
        <time>2012-03-10T13:49:25Z</time>
      </trkpt>
      <trkpt lat="43.7438" lon="7.26588">
        <ele>325.418152</ele>
        <time>2012-03-10T13:49:26Z</time>
      </trkpt>
      <trkpt lat="43.7438" lon="7.26583">
        <ele>325.418144</ele>
        <time>2012-03-10T13:49:27Z</time>
      </trkpt>
      <trkpt lat="43.74379" lon="7.26578">
        <ele>325.418129</ele>
        <time>2012-03-10T13:49:28Z</time>
      </trkpt>
      <trkpt lat="43.74378" lon="7.26562">
        <ele>325.418095</ele>
        <time>2012-03-10T13:49:31Z</time>
      </trkpt>
      <trkpt lat="43.74376" lon="7.26547">
        <ele>325.41806</ele>
        <time>2012-03-10T13:49:34Z</time>
      </trkpt>
      <trkpt lat="43.74373" lon="7.26531">
        <ele>325.418018</ele>
        <time>2012-03-10T13:49:37Z</time>
      </trkpt>
      <trkpt lat="43.74371" lon="7.26515">
        <ele>325.417984</ele>
        <time>2012-03-10T13:49:40Z</time>
      </trkpt>
      <trkpt lat="43.7437" lon="7.2651">
        <ele>325.417976</ele>
        <time>2012-03-10T13:49:41Z</time>
      </trkpt>
      <trkpt lat="43.74368" lon="7.26495">
        <ele>324.417938</ele>
        <time>2012-03-10T13:49:44Z</time>
      </trkpt>
      <trkpt lat="43.74366" lon="7.2648">
        <ele>325.417904</ele>
        <time>2012-03-10T13:49:47Z</time>
      </trkpt>
      <trkpt lat="43.74365" lon="7.26475">
        <ele>324.417889</ele>
        <time>2012-03-10T13:49:48Z</time>
      </trkpt>
      <trkpt lat="43.74362" lon="7.26459">
        <ele>323.417854</ele>
        <time>2012-03-10T13:49:51Z</time>
      </trkpt>
      <trkpt lat="43.74359" lon="7.26443">
        <ele>323.417816</ele>
        <time>2012-03-10T13:49:54Z</time>
      </trkpt>
      <trkpt lat="43.74356" lon="7.26431">
        <ele>323.417786</ele>
        <time>2012-03-10T13:49:56Z</time>
      </trkpt>
      <trkpt lat="43.74353" lon="7.26415">
        <ele>324.41774</ele>
        <time>2012-03-10T13:49:59Z</time>
      </trkpt>
      <trkpt lat="43.74349" lon="7.264">
        <ele>324.417709</ele>
        <time>2012-03-10T13:50:02Z</time>
      </trkpt>
      <trkpt lat="43.74348" lon="7.26394">
        <ele>324.417698</ele>
        <time>2012-03-10T13:50:03Z</time>
      </trkpt>
      <trkpt lat="43.74347" lon="7.26381">
        <ele>325.417667</ele>
        <time>2012-03-10T13:50:05Z</time>
      </trkpt>
      <trkpt lat="43.74347" lon="7.26375">
        <ele>325.417656</ele>
        <time>2012-03-10T13:50:06Z</time>
      </trkpt>
      <trkpt lat="43.74351" lon="7.26359">
        <ele>326.417625</ele>
        <time>2012-03-10T13:50:09Z</time>
      </trkpt>
      <trkpt lat="43.74361" lon="7.26352">
        <ele>326.417622</ele>
        <time>2012-03-10T13:50:11Z</time>
      </trkpt>
      <trkpt lat="43.74372" lon="7.26346">
        <ele>326.417625</ele>
        <time>2012-03-10T13:50:13Z</time>
      </trkpt>
      <trkpt lat="43.74384" lon="7.26342">
        <ele>327.417633</ele>
        <time>2012-03-10T13:50:15Z</time>
      </trkpt>
      <trkpt lat="43.74398" lon="7.26338">
        <ele>328.417645</ele>
        <time>2012-03-10T13:50:17Z</time>
      </trkpt>
      <trkpt lat="43.74411" lon="7.26334">
        <ele>330.417652</ele>
        <time>2012-03-10T13:50:19Z</time>
      </trkpt>
      <trkpt lat="43.74424" lon="7.2633">
        <ele>330.417664</ele>
        <time>2012-03-10T13:50:21Z</time>
      </trkpt>
      <trkpt lat="43.74436" lon="7.26326">
        <ele>331.417671</ele>
        <time>2012-03-10T13:50:23Z</time>
      </trkpt>
      <trkpt lat="43.74443" lon="7.26324">
        <ele>331.417679</ele>
        <time>2012-03-10T13:50:24Z</time>
      </trkpt>
      <trkpt lat="43.74455" lon="7.2632">
        <ele>331.417686</ele>
        <time>2012-03-10T13:50:26Z</time>
      </trkpt>
      <trkpt lat="43.74465" lon="7.26313">
        <ele>331.417679</ele>
        <time>2012-03-10T13:50:28Z</time>
      </trkpt>
      <trkpt lat="43.74475" lon="7.26306">
        <ele>331.417683</ele>
        <time>2012-03-10T13:50:30Z</time>
      </trkpt>
      <trkpt lat="43.7449" lon="7.26308">
        <ele>331.417702</ele>
        <time>2012-03-10T13:50:32Z</time>
      </trkpt>
      <trkpt lat="43.74509" lon="7.26316">
        <ele>331.417747</ele>
        <time>2012-03-10T13:50:34Z</time>
      </trkpt>
      <trkpt lat="43.74526" lon="7.26324">
        <ele>330.417789</ele>
        <time>2012-03-10T13:50:36Z</time>
      </trkpt>
      <trkpt lat="43.7454" lon="7.26336">
        <ele>329.417831</ele>
        <time>2012-03-10T13:50:38Z</time>
      </trkpt>
      <trkpt lat="43.74548" lon="7.26342">
        <ele>329.417854</ele>
        <time>2012-03-10T13:50:39Z</time>
      </trkpt>
      <trkpt lat="43.74563" lon="7.26354">
        <ele>329.417908</ele>
        <time>2012-03-10T13:50:41Z</time>
      </trkpt>
      <trkpt lat="43.74571" lon="7.26357">
        <ele>329.417923</ele>
        <time>2012-03-10T13:50:42Z</time>
      </trkpt>
      <trkpt lat="43.74587" lon="7.26362">
        <ele>329.417953</ele>
        <time>2012-03-10T13:50:44Z</time>
      </trkpt>
      <trkpt lat="43.74601" lon="7.26365">
        <ele>328.417976</ele>
        <time>2012-03-10T13:50:46Z</time>
      </trkpt>
      <trkpt lat="43.74615" lon="7.26366">
        <ele>328.417999</ele>
        <time>2012-03-10T13:50:48Z</time>
      </trkpt>
      <trkpt lat="43.74628" lon="7.26363">
        <ele>328.418011</ele>
        <time>2012-03-10T13:50:50Z</time>
      </trkpt>
      <trkpt lat="43.74641" lon="7.26361">
        <ele>328.418022</ele>
        <time>2012-03-10T13:50:52Z</time>
      </trkpt>
      <trkpt lat="43.74654" lon="7.26358">
        <ele>327.418037</ele>
        <time>2012-03-10T13:50:54Z</time>
      </trkpt>
      <trkpt lat="43.74666" lon="7.26355">
        <ele>328.418045</ele>
        <time>2012-03-10T13:50:56Z</time>
      </trkpt>
      <trkpt lat="43.74678" lon="7.26354">
        <ele>329.41806</ele>
        <time>2012-03-10T13:50:58Z</time>
      </trkpt>
      <trkpt lat="43.7469" lon="7.26357">
        <ele>330.418083</ele>
        <time>2012-03-10T13:51:00Z</time>
      </trkpt>
      <trkpt lat="43.74696" lon="7.26358">
        <ele>331.418098</ele>
        <time>2012-03-10T13:51:01Z</time>
      </trkpt>
      <trkpt lat="43.74708" lon="7.26358">
        <ele>331.418114</ele>
        <time>2012-03-10T13:51:03Z</time>
      </trkpt>
      <trkpt lat="43.7472" lon="7.26358">
        <ele>331.418129</ele>
        <time>2012-03-10T13:51:05Z</time>
      </trkpt>
      <trkpt lat="43.74731" lon="7.26357">
        <ele>331.41814</ele>
        <time>2012-03-10T13:51:07Z</time>
      </trkpt>
      <trkpt lat="43.74742" lon="7.26355">
        <ele>332.418152</ele>
        <time>2012-03-10T13:51:09Z</time>
      </trkpt>
      <trkpt lat="43.74753" lon="7.26356">
        <ele>331.418167</ele>
        <time>2012-03-10T13:51:11Z</time>
      </trkpt>
      <trkpt lat="43.74764" lon="7.26356">
        <ele>330.418182</ele>
        <time>2012-03-10T13:51:13Z</time>
      </trkpt>
      <trkpt lat="43.74774" lon="7.26358">
        <ele>329.418201</ele>
        <time>2012-03-10T13:51:15Z</time>
      </trkpt>
      <trkpt lat="43.74779" lon="7.26359">
        <ele>330.418209</ele>
        <time>2012-03-10T13:51:16Z</time>
      </trkpt>
      <trkpt lat="43.74792" lon="7.26361">
        <ele>331.418232</ele>
        <time>2012-03-10T13:51:19Z</time>
      </trkpt>
      <trkpt lat="43.74805" lon="7.26364">
        <ele>331.418259</ele>
        <time>2012-03-10T13:51:22Z</time>
      </trkpt>
      <trkpt lat="43.74809" lon="7.26366">
        <ele>332.418266</ele>
        <time>2012-03-10T13:51:23Z</time>
      </trkpt>
      <trkpt lat="43.74818" lon="7.26369">
        <ele>333.418282</ele>
        <time>2012-03-10T13:51:25Z</time>
      </trkpt>
      <trkpt lat="43.74823" lon="7.2637">
        <ele>334.418289</ele>
        <time>2012-03-10T13:51:26Z</time>
      </trkpt>
      <trkpt lat="43.74831" lon="7.26375">
        <ele>334.418316</ele>
        <time>2012-03-10T13:51:28Z</time>
      </trkpt>
      <trkpt lat="43.7484" lon="7.26379">
        <ele>334.418339</ele>
        <time>2012-03-10T13:51:30Z</time>
      </trkpt>
      <trkpt lat="43.74849" lon="7.26383">
        <ele>334.418358</ele>
        <time>2012-03-10T13:51:32Z</time>
      </trkpt>
      <trkpt lat="43.74858" lon="7.26387">
        <ele>333.418377</ele>
        <time>2012-03-10T13:51:34Z</time>
      </trkpt>
      <trkpt lat="43.74866" lon="7.2639">
        <ele>333.418396</ele>
        <time>2012-03-10T13:51:36Z</time>
      </trkpt>
      <trkpt lat="43.74875" lon="7.26394">
        <ele>333.418415</ele>
        <time>2012-03-10T13:51:38Z</time>
      </trkpt>
      <trkpt lat="43.74884" lon="7.26396">
        <ele>334.418434</ele>
        <time>2012-03-10T13:51:40Z</time>
      </trkpt>
      <trkpt lat="43.74893" lon="7.26398">
        <ele>334.418449</ele>
        <time>2012-03-10T13:51:42Z</time>
      </trkpt>
      <trkpt lat="43.74902" lon="7.26402">
        <ele>334.418472</ele>
        <time>2012-03-10T13:51:44Z</time>
      </trkpt>
      <trkpt lat="43.74911" lon="7.2641">
        <ele>334.418499</ele>
        <time>2012-03-10T13:51:46Z</time>
      </trkpt>
      <trkpt lat="43.74919" lon="7.26419">
        <ele>334.418533</ele>
        <time>2012-03-10T13:51:48Z</time>
      </trkpt>
      <trkpt lat="43.74928" lon="7.26429">
        <ele>334.418564</ele>
        <time>2012-03-10T13:51:50Z</time>
      </trkpt>
      <trkpt lat="43.74935" lon="7.26439">
        <ele>335.418594</ele>
        <time>2012-03-10T13:51:52Z</time>
      </trkpt>
      <trkpt lat="43.74941" lon="7.26456">
        <ele>335.418636</ele>
        <time>2012-03-10T13:51:54Z</time>
      </trkpt>
      <trkpt lat="43.74947" lon="7.26471">
        <ele>335.418678</ele>
        <time>2012-03-10T13:51:56Z</time>
      </trkpt>
      <trkpt lat="43.74956" lon="7.26483">
        <ele>334.418716</ele>
        <time>2012-03-10T13:51:58Z</time>
      </trkpt>
      <trkpt lat="43.7496" lon="7.2649">
        <ele>334.418739</ele>
        <time>2012-03-10T13:51:59Z</time>
      </trkpt>
      <trkpt lat="43.7497" lon="7.26501">
        <ele>334.418777</ele>
        <time>2012-03-10T13:52:01Z</time>
      </trkpt>
      <trkpt lat="43.74981" lon="7.2651">
        <ele>334.418808</ele>
        <time>2012-03-10T13:52:03Z</time>
      </trkpt>
      <trkpt lat="43.74986" lon="7.26514">
        <ele>334.418823</ele>
        <time>2012-03-10T13:52:04Z</time>
      </trkpt>
      <trkpt lat="43.74998" lon="7.26521">
        <ele>334.418854</ele>
        <time>2012-03-10T13:52:06Z</time>
      </trkpt>
      <trkpt lat="43.7501" lon="7.26525">
        <ele>334.418877</ele>
        <time>2012-03-10T13:52:08Z</time>
      </trkpt>
      <trkpt lat="43.75024" lon="7.26527">
        <ele>334.4189</ele>
        <time>2012-03-10T13:52:10Z</time>
      </trkpt>
      <trkpt lat="43.75031" lon="7.26528">
        <ele>334.418915</ele>
        <time>2012-03-10T13:52:11Z</time>
      </trkpt>
      <trkpt lat="43.75047" lon="7.26522">
        <ele>334.418922</ele>
        <time>2012-03-10T13:52:13Z</time>
      </trkpt>
      <trkpt lat="43.75064" lon="7.26514">
        <ele>334.41893</ele>
        <time>2012-03-10T13:52:15Z</time>
      </trkpt>
      <trkpt lat="43.75077" lon="7.26507">
        <ele>335.418934</ele>
        <time>2012-03-10T13:52:17Z</time>
      </trkpt>
      <trkpt lat="43.75089" lon="7.26513">
        <ele>335.418961</ele>
        <time>2012-03-10T13:52:19Z</time>
      </trkpt>
      <trkpt lat="43.75102" lon="7.26525">
        <ele>336.419006</ele>
        <time>2012-03-10T13:52:21Z</time>
      </trkpt>
      <trkpt lat="43.75116" lon="7.26536">
        <ele>336.419048</ele>
        <time>2012-03-10T13:52:23Z</time>
      </trkpt>
      <trkpt lat="43.75126" lon="7.26536">
        <ele>336.419064</ele>
        <time>2012-03-10T13:52:24Z</time>
      </trkpt>
      <trkpt lat="43.75143" lon="7.26537">
        <ele>336.41909</ele>
        <time>2012-03-10T13:52:26Z</time>
      </trkpt>
      <trkpt lat="43.75153" lon="7.26538">
        <ele>336.419102</ele>
        <time>2012-03-10T13:52:27Z</time>
      </trkpt>
      <trkpt lat="43.75171" lon="7.2654">
        <ele>336.419128</ele>
        <time>2012-03-10T13:52:29Z</time>
      </trkpt>
      <trkpt lat="43.7518" lon="7.26541">
        <ele>336.419147</ele>
        <time>2012-03-10T13:52:30Z</time>
      </trkpt>
      <trkpt lat="43.75196" lon="7.26548">
        <ele>336.419182</ele>
        <time>2012-03-10T13:52:32Z</time>
      </trkpt>
      <trkpt lat="43.752" lon="7.26567">
        <ele>336.419228</ele>
        <time>2012-03-10T13:52:34Z</time>
      </trkpt>
      <trkpt lat="43.75201" lon="7.26584">
        <ele>336.419266</ele>
        <time>2012-03-10T13:52:36Z</time>
      </trkpt>
      <trkpt lat="43.75201" lon="7.26602">
        <ele>336.419308</ele>
        <time>2012-03-10T13:52:38Z</time>
      </trkpt>
      <trkpt lat="43.75203" lon="7.26621">
        <ele>336.41935</ele>
        <time>2012-03-10T13:52:40Z</time>
      </trkpt>
      <trkpt lat="43.75205" lon="7.2664">
        <ele>335.419388</ele>
        <time>2012-03-10T13:52:42Z</time>
      </trkpt>
      <trkpt lat="43.75208" lon="7.26658">
        <ele>335.419434</ele>
        <time>2012-03-10T13:52:44Z</time>
      </trkpt>
      <trkpt lat="43.7521" lon="7.26667">
        <ele>334.419456</ele>
        <time>2012-03-10T13:52:45Z</time>
      </trkpt>
      <trkpt lat="43.75215" lon="7.26685">
        <ele>334.419498</ele>
        <time>2012-03-10T13:52:47Z</time>
      </trkpt>
      <trkpt lat="43.75217" lon="7.26693">
        <ele>333.419518</ele>
        <time>2012-03-10T13:52:48Z</time>
      </trkpt>
      <trkpt lat="43.75225" lon="7.26703">
        <ele>333.419548</ele>
        <time>2012-03-10T13:52:51Z</time>
      </trkpt>
      <trkpt lat="43.7523" lon="7.26704">
        <ele>332.419559</ele>
        <time>2012-03-10T13:52:54Z</time>
      </trkpt>
      <trkpt lat="43.75237" lon="7.26691">
        <ele>330.41954</ele>
        <time>2012-03-10T13:52:58Z</time>
      </trkpt>
      <trkpt lat="43.75243" lon="7.2668">
        <ele>329.419529</ele>
        <time>2012-03-10T13:53:02Z</time>
      </trkpt>
      <trkpt lat="43.75249" lon="7.26669">
        <ele>329.41951</ele>
        <time>2012-03-10T13:53:06Z</time>
      </trkpt>
      <trkpt lat="43.75255" lon="7.26656">
        <ele>329.419491</ele>
        <time>2012-03-10T13:53:10Z</time>
      </trkpt>
      <trkpt lat="43.75259" lon="7.26645">
        <ele>330.419476</ele>
        <time>2012-03-10T13:53:13Z</time>
      </trkpt>
      <trkpt lat="43.75261" lon="7.26642">
        <ele>329.419472</ele>
        <time>2012-03-10T13:53:14Z</time>
      </trkpt>
      <trkpt lat="43.75266" lon="7.2663">
        <ele>329.419456</ele>
        <time>2012-03-10T13:53:17Z</time>
      </trkpt>
      <trkpt lat="43.75267" lon="7.26627">
        <ele>329.419449</ele>
        <time>2012-03-10T13:53:18Z</time>
      </trkpt>
      <trkpt lat="43.75271" lon="7.26615">
        <ele>328.419426</ele>
        <time>2012-03-10T13:53:21Z</time>
      </trkpt>
      <trkpt lat="43.75277" lon="7.26603">
        <ele>328.419411</ele>
        <time>2012-03-10T13:53:25Z</time>
      </trkpt>
      <trkpt lat="43.75284" lon="7.26587">
        <ele>329.419388</ele>
        <time>2012-03-10T13:53:32Z</time>
      </trkpt>
      <trkpt lat="43.75291" lon="7.2657">
        <ele>329.419357</ele>
        <time>2012-03-10T13:53:40Z</time>
      </trkpt>
      <trkpt lat="43.75295" lon="7.26556">
        <ele>330.419334</ele>
        <time>2012-03-10T13:53:48Z</time>
      </trkpt>
      <trkpt lat="43.75299" lon="7.26544">
        <ele>329.419315</ele>
        <time>2012-03-10T13:53:58Z</time>
      </trkpt>
      <trkpt lat="43.75303" lon="7.26532">
        <ele>329.419296</ele>
        <time>2012-03-10T13:54:13Z</time>
      </trkpt>
      <trkpt lat="43.75309" lon="7.26523">
        <ele>332.419281</ele>
        <time>2012-03-10T13:54:20Z</time>
      </trkpt>
      <trkpt lat="43.75317" lon="7.26511">
        <ele>333.419273</ele>
        <time>2012-03-10T13:54:31Z</time>
      </trkpt>
      <trkpt lat="43.75323" lon="7.265">
        <ele>332.41925</ele>
        <time>2012-03-10T13:54:38Z</time>
      </trkpt>
      <trkpt lat="43.7533" lon="7.2649">
        <ele>332.419243</ele>
        <time>2012-03-10T13:54:44Z</time>
      </trkpt>
      <trkpt lat="43.75344" lon="7.26474">
        <ele>333.419228</ele>
        <time>2012-03-10T13:54:57Z</time>
      </trkpt>
      <trkpt lat="43.75354" lon="7.26462">
        <ele>334.419212</ele>
        <time>2012-03-10T13:55:04Z</time>
      </trkpt>
      <trkpt lat="43.75364" lon="7.26451">
        <ele>335.419205</ele>
        <time>2012-03-10T13:55:11Z</time>
      </trkpt>
      <trkpt lat="43.75374" lon="7.26443">
        <ele>335.419201</ele>
        <time>2012-03-10T13:55:18Z</time>
      </trkpt>
      <trkpt lat="43.7539" lon="7.26435">
        <ele>335.419205</ele>
        <time>2012-03-10T13:55:32Z</time>
      </trkpt>
      <trkpt lat="43.754" lon="7.26431">
        <ele>334.419216</ele>
        <time>2012-03-10T13:55:37Z</time>
      </trkpt>
      <trkpt lat="43.75409" lon="7.26427">
        <ele>336.419216</ele>
        <time>2012-03-10T13:55:43Z</time>
      </trkpt>
      <trkpt lat="43.75411" lon="7.26427">
        <ele>336.41922</ele>
        <time>2012-03-10T13:55:44Z</time>
      </trkpt>
      <trkpt lat="43.75422" lon="7.26422">
        <ele>336.41922</ele>
        <time>2012-03-10T13:55:55Z</time>
      </trkpt>
      <trkpt lat="43.75422" lon="7.26421">
        <ele>337.41922</ele>
        <time>2012-03-10T13:55:56Z</time>
      </trkpt>
      <trkpt lat="43.75431" lon="7.26416">
        <ele>338.419224</ele>
        <time>2012-03-10T13:56:05Z</time>
      </trkpt>
      <trkpt lat="43.7544" lon="7.26412">
        <ele>338.419228</ele>
        <time>2012-03-10T13:56:13Z</time>
      </trkpt>
      <trkpt lat="43.75456" lon="7.26404">
        <ele>340.419231</ele>
        <time>2012-03-10T13:56:19Z</time>
      </trkpt>
      <trkpt lat="43.75472" lon="7.26397">
        <ele>341.419235</ele>
        <time>2012-03-10T13:56:29Z</time>
      </trkpt>
      <trkpt lat="43.75481" lon="7.26387">
        <ele>344.419231</ele>
        <time>2012-03-10T13:56:41Z</time>
      </trkpt>
      <trkpt lat="43.75484" lon="7.26383">
        <ele>344.419228</ele>
        <time>2012-03-10T13:56:48Z</time>
      </trkpt>
      <trkpt lat="43.7549" lon="7.26373">
        <ele>346.419212</ele>
        <time>2012-03-10T13:56:50Z</time>
      </trkpt>
      <trkpt lat="43.75497" lon="7.26361">
        <ele>345.419197</ele>
        <time>2012-03-10T13:56:58Z</time>
      </trkpt>
      <trkpt lat="43.75508" lon="7.2634">
        <ele>345.419167</ele>
        <time>2012-03-10T13:57:08Z</time>
      </trkpt>
      <trkpt lat="43.75513" lon="7.26329">
        <ele>345.419151</ele>
        <time>2012-03-10T13:57:13Z</time>
      </trkpt>
      <trkpt lat="43.75523" lon="7.26306">
        <ele>345.419113</ele>
        <time>2012-03-10T13:57:22Z</time>
      </trkpt>
      <trkpt lat="43.75529" lon="7.26294">
        <ele>346.419098</ele>
        <time>2012-03-10T13:57:27Z</time>
      </trkpt>
      <trkpt lat="43.7553" lon="7.26292">
        <ele>346.419094</ele>
        <time>2012-03-10T13:57:30Z</time>
      </trkpt>
      <trkpt lat="43.75536" lon="7.26282">
        <ele>345.419083</ele>
        <time>2012-03-10T13:57:34Z</time>
      </trkpt>
      <trkpt lat="43.75543" lon="7.26273">
        <ele>345.419075</ele>
        <time>2012-03-10T13:57:40Z</time>
      </trkpt>
      <trkpt lat="43.75551" lon="7.26266">
        <ele>346.419067</ele>
        <time>2012-03-10T13:57:46Z</time>
      </trkpt>
      <trkpt lat="43.75552" lon="7.26264">
        <ele>346.419067</ele>
        <time>2012-03-10T13:57:47Z</time>
      </trkpt>
      <trkpt lat="43.75559" lon="7.26255">
        <ele>347.41906</ele>
        <time>2012-03-10T13:57:52Z</time>
      </trkpt>
      <trkpt lat="43.75571" lon="7.26242">
        <ele>350.419044</ele>
        <time>2012-03-10T13:57:59Z</time>
      </trkpt>
      <trkpt lat="43.7558" lon="7.26233">
        <ele>349.419037</ele>
        <time>2012-03-10T13:58:05Z</time>
      </trkpt>
      <trkpt lat="43.7558" lon="7.26233">
        <ele>349.419037</ele>
        <time>2012-03-10T13:58:06Z</time>
      </trkpt>
      <trkpt lat="43.75589" lon="7.26226">
        <ele>348.419037</ele>
        <time>2012-03-10T13:58:10Z</time>
      </trkpt>
      <trkpt lat="43.75597" lon="7.26219">
        <ele>350.419033</ele>
        <time>2012-03-10T13:58:19Z</time>
      </trkpt>
      <trkpt lat="43.75597" lon="7.26218">
        <ele>351.419029</ele>
        <time>2012-03-10T13:58:20Z</time>
      </trkpt>
      <trkpt lat="43.7561" lon="7.26205">
        <ele>351.419018</ele>
        <time>2012-03-10T13:58:33Z</time>
      </trkpt>
      <trkpt lat="43.75612" lon="7.26203">
        <ele>350.419022</ele>
        <time>2012-03-10T13:58:34Z</time>
      </trkpt>
      <trkpt lat="43.75621" lon="7.26196">
        <ele>348.419014</ele>
        <time>2012-03-10T13:58:38Z</time>
      </trkpt>
      <trkpt lat="43.7563" lon="7.26189">
        <ele>347.419014</ele>
        <time>2012-03-10T13:58:42Z</time>
      </trkpt>
      <trkpt lat="43.7564" lon="7.2618">
        <ele>348.419014</ele>
        <time>2012-03-10T13:58:46Z</time>
      </trkpt>
      <trkpt lat="43.7565" lon="7.26172">
        <ele>351.419006</ele>
        <time>2012-03-10T13:58:50Z</time>
      </trkpt>
      <trkpt lat="43.75658" lon="7.26164">
        <ele>353.418999</ele>
        <time>2012-03-10T13:58:54Z</time>
      </trkpt>
      <trkpt lat="43.75675" lon="7.26152">
        <ele>354.418999</ele>
        <time>2012-03-10T13:59:02Z</time>
      </trkpt>
      <trkpt lat="43.75684" lon="7.26147">
        <ele>354.418999</ele>
        <time>2012-03-10T13:59:08Z</time>
      </trkpt>
      <trkpt lat="43.75694" lon="7.26141">
        <ele>354.418999</ele>
        <time>2012-03-10T13:59:13Z</time>
      </trkpt>
      <trkpt lat="43.75709" lon="7.26135">
        <ele>355.419006</ele>
        <time>2012-03-10T13:59:20Z</time>
      </trkpt>
      <trkpt lat="43.75718" lon="7.26131">
        <ele>355.419014</ele>
        <time>2012-03-10T13:59:24Z</time>
      </trkpt>
      <trkpt lat="43.75729" lon="7.26128">
        <ele>356.419022</ele>
        <time>2012-03-10T13:59:28Z</time>
      </trkpt>
      <trkpt lat="43.75744" lon="7.26124">
        <ele>357.419033</ele>
        <time>2012-03-10T13:59:41Z</time>
      </trkpt>
      <trkpt lat="43.75751" lon="7.26122">
        <ele>357.419037</ele>
        <time>2012-03-10T13:59:45Z</time>
      </trkpt>
      <trkpt lat="43.75767" lon="7.26112">
        <ele>357.419037</ele>
        <time>2012-03-10T13:59:55Z</time>
      </trkpt>
      <trkpt lat="43.75776" lon="7.26106">
        <ele>358.419037</ele>
        <time>2012-03-10T14:00:00Z</time>
      </trkpt>
      <trkpt lat="43.75784" lon="7.261">
        <ele>358.419037</ele>
        <time>2012-03-10T14:00:05Z</time>
      </trkpt>
      <trkpt lat="43.75786" lon="7.26099">
        <ele>358.419037</ele>
        <time>2012-03-10T14:00:07Z</time>
      </trkpt>
      <trkpt lat="43.75799" lon="7.2609">
        <ele>359.419037</ele>
        <time>2012-03-10T14:00:14Z</time>
      </trkpt>
      <trkpt lat="43.75801" lon="7.26089">
        <ele>359.419029</ele>
        <time>2012-03-10T14:00:15Z</time>
      </trkpt>
      <trkpt lat="43.75809" lon="7.26082">
        <ele>359.419033</ele>
        <time>2012-03-10T14:00:21Z</time>
      </trkpt>
      <trkpt lat="43.75818" lon="7.26077">
        <ele>358.419037</ele>
        <time>2012-03-10T14:00:26Z</time>
      </trkpt>
      <trkpt lat="43.75828" lon="7.26073">
        <ele>359.419037</ele>
        <time>2012-03-10T14:00:29Z</time>
      </trkpt>
      <trkpt lat="43.75835" lon="7.2607">
        <ele>358.419041</ele>
        <time>2012-03-10T14:00:32Z</time>
      </trkpt>
      <trkpt lat="43.75846" lon="7.26066">
        <ele>361.419044</ele>
        <time>2012-03-10T14:00:42Z</time>
      </trkpt>
      <trkpt lat="43.75855" lon="7.26063">
        <ele>361.419056</ele>
        <time>2012-03-10T14:00:52Z</time>
      </trkpt>
      <trkpt lat="43.75868" lon="7.2606">
        <ele>361.419067</ele>
        <time>2012-03-10T14:01:00Z</time>
      </trkpt>
      <trkpt lat="43.75879" lon="7.26057">
        <ele>361.419075</ele>
        <time>2012-03-10T14:01:06Z</time>
      </trkpt>
      <trkpt lat="43.75888" lon="7.26052">
        <ele>361.419079</ele>
        <time>2012-03-10T14:01:10Z</time>
      </trkpt>
      <trkpt lat="43.75901" lon="7.26043">
        <ele>362.419075</ele>
        <time>2012-03-10T14:01:15Z</time>
      </trkpt>
      <trkpt lat="43.75909" lon="7.26037">
        <ele>362.419075</ele>
        <time>2012-03-10T14:01:21Z</time>
      </trkpt>
      <trkpt lat="43.75915" lon="7.26035">
        <ele>362.419083</ele>
        <time>2012-03-10T14:01:24Z</time>
      </trkpt>
      <trkpt lat="43.75925" lon="7.26033">
        <ele>363.419083</ele>
        <time>2012-03-10T14:01:29Z</time>
      </trkpt>
      <trkpt lat="43.7594" lon="7.26028">
        <ele>366.419098</ele>
        <time>2012-03-10T14:01:37Z</time>
      </trkpt>
      <trkpt lat="43.75943" lon="7.26027">
        <ele>366.419098</ele>
        <time>2012-03-10T14:01:39Z</time>
      </trkpt>
      <trkpt lat="43.75952" lon="7.26023">
        <ele>368.419102</ele>
        <time>2012-03-10T14:01:45Z</time>
      </trkpt>
      <trkpt lat="43.75953" lon="7.26023">
        <ele>367.419106</ele>
        <time>2012-03-10T14:01:46Z</time>
      </trkpt>
      <trkpt lat="43.75963" lon="7.2602">
        <ele>368.419113</ele>
        <time>2012-03-10T14:01:52Z</time>
      </trkpt>
      <trkpt lat="43.75974" lon="7.26019">
        <ele>368.419125</ele>
        <time>2012-03-10T14:01:58Z</time>
      </trkpt>
      <trkpt lat="43.75976" lon="7.26018">
        <ele>368.419128</ele>
        <time>2012-03-10T14:01:59Z</time>
      </trkpt>
      <trkpt lat="43.75988" lon="7.26013">
        <ele>370.419132</ele>
        <time>2012-03-10T14:02:07Z</time>
      </trkpt>
      <trkpt lat="43.75998" lon="7.26008">
        <ele>369.419136</ele>
        <time>2012-03-10T14:02:14Z</time>
      </trkpt>
      <trkpt lat="43.76008" lon="7.26005">
        <ele>369.419144</ele>
        <time>2012-03-10T14:02:21Z</time>
      </trkpt>
      <trkpt lat="43.76024" lon="7.26001">
        <ele>372.419151</ele>
        <time>2012-03-10T14:02:33Z</time>
      </trkpt>
      <trkpt lat="43.76036" lon="7.25997">
        <ele>373.419159</ele>
        <time>2012-03-10T14:02:42Z</time>
      </trkpt>
      <trkpt lat="43.76045" lon="7.25994">
        <ele>373.41917</ele>
        <time>2012-03-10T14:02:49Z</time>
      </trkpt>
      <trkpt lat="43.76055" lon="7.25989">
        <ele>376.419167</ele>
        <time>2012-03-10T14:03:04Z</time>
      </trkpt>
      <trkpt lat="43.76071" lon="7.25979">
        <ele>375.419174</ele>
        <time>2012-03-10T14:03:19Z</time>
      </trkpt>
      <trkpt lat="43.7608" lon="7.25974">
        <ele>376.419174</ele>
        <time>2012-03-10T14:03:25Z</time>
      </trkpt>
      <trkpt lat="43.76088" lon="7.25969">
        <ele>377.419174</ele>
        <time>2012-03-10T14:03:33Z</time>
      </trkpt>
      <trkpt lat="43.761" lon="7.25967">
        <ele>380.419189</ele>
        <time>2012-03-10T14:03:49Z</time>
      </trkpt>
      <trkpt lat="43.7611" lon="7.25978">
        <ele>381.419224</ele>
        <time>2012-03-10T14:04:00Z</time>
      </trkpt>
      <trkpt lat="43.76117" lon="7.25986">
        <ele>382.41925</ele>
        <time>2012-03-10T14:04:09Z</time>
      </trkpt>
      <trkpt lat="43.76124" lon="7.25995">
        <ele>381.419281</ele>
        <time>2012-03-10T14:04:16Z</time>
      </trkpt>
      <trkpt lat="43.76133" lon="7.26001">
        <ele>382.419308</ele>
        <time>2012-03-10T14:04:23Z</time>
      </trkpt>
      <trkpt lat="43.76142" lon="7.26012">
        <ele>383.419334</ele>
        <time>2012-03-10T14:04:35Z</time>
      </trkpt>
      <trkpt lat="43.76152" lon="7.26022">
        <ele>384.419373</ele>
        <time>2012-03-10T14:04:46Z</time>
      </trkpt>
      <trkpt lat="43.76153" lon="7.26022">
        <ele>384.41938</ele>
        <time>2012-03-10T14:04:47Z</time>
      </trkpt>
      <trkpt lat="43.76168" lon="7.26022">
        <ele>385.419392</ele>
        <time>2012-03-10T14:04:57Z</time>
      </trkpt>
      <trkpt lat="43.76177" lon="7.2602">
        <ele>386.419403</ele>
        <time>2012-03-10T14:05:03Z</time>
      </trkpt>
      <trkpt lat="43.76186" lon="7.26023">
        <ele>387.419426</ele>
        <time>2012-03-10T14:05:10Z</time>
      </trkpt>
      <trkpt lat="43.76195" lon="7.26029">
        <ele>387.419449</ele>
        <time>2012-03-10T14:05:17Z</time>
      </trkpt>
      <trkpt lat="43.76202" lon="7.26039">
        <ele>388.419483</ele>
        <time>2012-03-10T14:05:24Z</time>
      </trkpt>
      <trkpt lat="43.76208" lon="7.2605">
        <ele>389.41951</ele>
        <time>2012-03-10T14:05:34Z</time>
      </trkpt>
      <trkpt lat="43.76216" lon="7.26057">
        <ele>389.419537</ele>
        <time>2012-03-10T14:05:42Z</time>
      </trkpt>
      <trkpt lat="43.76224" lon="7.26063">
        <ele>390.419559</ele>
        <time>2012-03-10T14:05:53Z</time>
      </trkpt>
      <trkpt lat="43.76234" lon="7.26067">
        <ele>392.419582</ele>
        <time>2012-03-10T14:06:01Z</time>
      </trkpt>
      <trkpt lat="43.76241" lon="7.26075">
        <ele>395.419613</ele>
        <time>2012-03-10T14:06:10Z</time>
      </trkpt>
      <trkpt lat="43.76242" lon="7.26076">
        <ele>395.419613</ele>
        <time>2012-03-10T14:06:11Z</time>
      </trkpt>
      <trkpt lat="43.76247" lon="7.26087">
        <ele>396.419643</ele>
        <time>2012-03-10T14:06:18Z</time>
      </trkpt>
      <trkpt lat="43.76251" lon="7.26102">
        <ele>397.419682</ele>
        <time>2012-03-10T14:06:23Z</time>
      </trkpt>
      <trkpt lat="43.76253" lon="7.26107">
        <ele>397.419693</ele>
        <time>2012-03-10T14:06:25Z</time>
      </trkpt>
      <trkpt lat="43.76257" lon="7.26121">
        <ele>397.419731</ele>
        <time>2012-03-10T14:06:32Z</time>
      </trkpt>
      <trkpt lat="43.76264" lon="7.26136">
        <ele>399.419769</ele>
        <time>2012-03-10T14:06:46Z</time>
      </trkpt>
      <trkpt lat="43.76272" lon="7.26143">
        <ele>400.419792</ele>
        <time>2012-03-10T14:06:56Z</time>
      </trkpt>
      <trkpt lat="43.76283" lon="7.26154">
        <ele>399.419834</ele>
        <time>2012-03-10T14:07:09Z</time>
      </trkpt>
      <trkpt lat="43.76292" lon="7.2616">
        <ele>401.419857</ele>
        <time>2012-03-10T14:07:16Z</time>
      </trkpt>
      <trkpt lat="43.76295" lon="7.26163">
        <ele>401.419872</ele>
        <time>2012-03-10T14:07:19Z</time>
      </trkpt>
      <trkpt lat="43.76303" lon="7.26171">
        <ele>402.419899</ele>
        <time>2012-03-10T14:07:26Z</time>
      </trkpt>
      <trkpt lat="43.76311" lon="7.26181">
        <ele>403.41993</ele>
        <time>2012-03-10T14:07:32Z</time>
      </trkpt>
      <trkpt lat="43.76319" lon="7.26195">
        <ele>407.419971</ele>
        <time>2012-03-10T14:07:43Z</time>
      </trkpt>
      <trkpt lat="43.76325" lon="7.26207">
        <ele>408.419998</ele>
        <time>2012-03-10T14:07:51Z</time>
      </trkpt>
      <trkpt lat="43.7633" lon="7.26218">
        <ele>412.420036</ele>
        <time>2012-03-10T14:08:03Z</time>
      </trkpt>
      <trkpt lat="43.76334" lon="7.2623">
        <ele>413.420067</ele>
        <time>2012-03-10T14:08:11Z</time>
      </trkpt>
      <trkpt lat="43.76339" lon="7.26241">
        <ele>413.420097</ele>
        <time>2012-03-10T14:08:18Z</time>
      </trkpt>
      <trkpt lat="43.76349" lon="7.26249">
        <ele>415.420128</ele>
        <time>2012-03-10T14:08:31Z</time>
      </trkpt>
      <trkpt lat="43.76359" lon="7.26248">
        <ele>416.420135</ele>
        <time>2012-03-10T14:08:40Z</time>
      </trkpt>
      <trkpt lat="43.76365" lon="7.26247">
        <ele>417.420143</ele>
        <time>2012-03-10T14:08:43Z</time>
      </trkpt>
      <trkpt lat="43.76374" lon="7.26248">
        <ele>418.420158</ele>
        <time>2012-03-10T14:08:54Z</time>
      </trkpt>
      <trkpt lat="43.75373" lon="7.27491">
        <ele>158.4</ele>
        <time>2012-03-10T14:12:14Z</time>
      </trkpt>
      <trkpt lat="43.75373" lon="7.27491">
        <ele>158.4</ele>
        <time>2012-03-10T14:12:22Z</time>
      </trkpt>
      <trkpt lat="43.76352" lon="7.26376">
        <ele>163.420395</ele>
        <time>2012-03-10T14:12:27Z</time>
      </trkpt>
      <trkpt lat="43.76375" lon="7.26275">
        <ele>401.420216</ele>
        <time>2012-03-10T14:12:37Z</time>
      </trkpt>
      <trkpt lat="43.76375" lon="7.26275">
        <ele>401.420216</ele>
        <time>2012-03-10T14:12:44Z</time>
      </trkpt>
      <trkpt lat="43.76376" lon="7.2625">
        <ele>421.420166</ele>
        <time>2012-03-10T14:13:02Z</time>
      </trkpt>
      <trkpt lat="43.76377" lon="7.2625">
        <ele>421.420166</ele>
        <time>2012-03-10T14:13:03Z</time>
      </trkpt>
      <trkpt lat="43.76387" lon="7.26245">
        <ele>423.420166</ele>
        <time>2012-03-10T14:13:15Z</time>
      </trkpt>
      <trkpt lat="43.76397" lon="7.26246">
        <ele>424.420181</ele>
        <time>2012-03-10T14:13:22Z</time>
      </trkpt>
      <trkpt lat="43.76407" lon="7.26248">
        <ele>425.420204</ele>
        <time>2012-03-10T14:13:28Z</time>
      </trkpt>
      <trkpt lat="43.76416" lon="7.26256">
        <ele>426.420231</ele>
        <time>2012-03-10T14:13:34Z</time>
      </trkpt>
      <trkpt lat="43.76421" lon="7.26269">
        <ele>428.420265</ele>
        <time>2012-03-10T14:13:43Z</time>
      </trkpt>
      <trkpt lat="43.76422" lon="7.26283">
        <ele>430.4203</ele>
        <time>2012-03-10T14:13:50Z</time>
      </trkpt>
      <trkpt lat="43.76422" lon="7.26286">
        <ele>430.420303</ele>
        <time>2012-03-10T14:13:52Z</time>
      </trkpt>
      <trkpt lat="43.76418" lon="7.26299">
        <ele>431.420326</ele>
        <time>2012-03-10T14:14:01Z</time>
      </trkpt>
      <trkpt lat="43.76411" lon="7.26309">
        <ele>433.420338</ele>
        <time>2012-03-10T14:14:09Z</time>
      </trkpt>
      <trkpt lat="43.76405" lon="7.26319">
        <ele>435.420349</ele>
        <time>2012-03-10T14:14:16Z</time>
      </trkpt>
      <trkpt lat="43.76399" lon="7.26329">
        <ele>434.420364</ele>
        <time>2012-03-10T14:14:24Z</time>
      </trkpt>
      <trkpt lat="43.76394" lon="7.26341">
        <ele>436.420383</ele>
        <time>2012-03-10T14:14:36Z</time>
      </trkpt>
      <trkpt lat="43.76393" lon="7.26343">
        <ele>436.420383</ele>
        <time>2012-03-10T14:14:38Z</time>
      </trkpt>
      <trkpt lat="43.76387" lon="7.26353">
        <ele>437.420395</ele>
        <time>2012-03-10T14:14:44Z</time>
      </trkpt>
      <trkpt lat="43.76381" lon="7.26362">
        <ele>437.42041</ele>
        <time>2012-03-10T14:14:49Z</time>
      </trkpt>
      <trkpt lat="43.76373" lon="7.26376">
        <ele>439.420425</ele>
        <time>2012-03-10T14:14:56Z</time>
      </trkpt>
      <trkpt lat="43.76361" lon="7.26391">
        <ele>441.420441</ele>
        <time>2012-03-10T14:15:06Z</time>
      </trkpt>
      <trkpt lat="43.76361" lon="7.26391">
        <ele>444.420441</ele>
        <time>2012-03-10T14:15:10Z</time>
      </trkpt>
      <trkpt lat="43.76366" lon="7.26378">
        <ele>442.420418</ele>
        <time>2012-03-10T14:15:20Z</time>
      </trkpt>
      <trkpt lat="43.7637" lon="7.26365">
        <ele>442.420403</ele>
        <time>2012-03-10T14:15:27Z</time>
      </trkpt>
      <trkpt lat="43.76376" lon="7.26355">
        <ele>440.420387</ele>
        <time>2012-03-10T14:15:34Z</time>
      </trkpt>
      <trkpt lat="43.76385" lon="7.26348">
        <ele>440.420387</ele>
        <time>2012-03-10T14:15:41Z</time>
      </trkpt>
      <trkpt lat="43.76396" lon="7.26344">
        <ele>440.420391</ele>
        <time>2012-03-10T14:15:49Z</time>
      </trkpt>
      <trkpt lat="43.76409" lon="7.26339">
        <ele>442.420399</ele>
        <time>2012-03-10T14:15:59Z</time>
      </trkpt>
      <trkpt lat="43.76418" lon="7.26336">
        <ele>446.420403</ele>
        <time>2012-03-10T14:16:10Z</time>
      </trkpt>
      <trkpt lat="43.76431" lon="7.26329">
        <ele>446.42041</ele>
        <time>2012-03-10T14:16:20Z</time>
      </trkpt>
      <trkpt lat="43.76439" lon="7.26323">
        <ele>446.420403</ele>
        <time>2012-03-10T14:16:26Z</time>
      </trkpt>
      <trkpt lat="43.76448" lon="7.26316">
        <ele>447.420403</ele>
        <time>2012-03-10T14:16:33Z</time>
      </trkpt>
      <trkpt lat="43.76457" lon="7.2631">
        <ele>448.420403</ele>
        <time>2012-03-10T14:16:39Z</time>
      </trkpt>
      <trkpt lat="43.76465" lon="7.26303">
        <ele>450.420403</ele>
        <time>2012-03-10T14:16:45Z</time>
      </trkpt>
      <trkpt lat="43.76473" lon="7.26296">
        <ele>451.420395</ele>
        <time>2012-03-10T14:16:52Z</time>
      </trkpt>
      <trkpt lat="43.76481" lon="7.26288">
        <ele>452.420387</ele>
        <time>2012-03-10T14:16:59Z</time>
      </trkpt>
      <trkpt lat="43.76491" lon="7.26281">
        <ele>452.420387</ele>
        <time>2012-03-10T14:17:07Z</time>
      </trkpt>
      <trkpt lat="43.765" lon="7.26275">
        <ele>452.420387</ele>
        <time>2012-03-10T14:17:14Z</time>
      </trkpt>
      <trkpt lat="43.76508" lon="7.26267">
        <ele>453.42038</ele>
        <time>2012-03-10T14:17:21Z</time>
      </trkpt>
      <trkpt lat="43.76515" lon="7.2626">
        <ele>457.420376</ele>
        <time>2012-03-10T14:17:28Z</time>
      </trkpt>
      <trkpt lat="43.76523" lon="7.2625">
        <ele>459.420364</ele>
        <time>2012-03-10T14:17:36Z</time>
      </trkpt>
      <trkpt lat="43.7653" lon="7.26241">
        <ele>459.420357</ele>
        <time>2012-03-10T14:17:43Z</time>
      </trkpt>
      <trkpt lat="43.76536" lon="7.26232">
        <ele>459.420345</ele>
        <time>2012-03-10T14:17:49Z</time>
      </trkpt>
      <trkpt lat="43.76534" lon="7.26218">
        <ele>456.420311</ele>
        <time>2012-03-10T14:18:00Z</time>
      </trkpt>
      <trkpt lat="43.76532" lon="7.26217">
        <ele>455.420311</ele>
        <time>2012-03-10T14:18:02Z</time>
      </trkpt>
      <trkpt lat="43.76522" lon="7.26216">
        <ele>454.420292</ele>
        <time>2012-03-10T14:18:10Z</time>
      </trkpt>
      <trkpt lat="43.76514" lon="7.26211">
        <ele>454.420273</ele>
        <time>2012-03-10T14:18:16Z</time>
      </trkpt>
      <trkpt lat="43.76506" lon="7.26204">
        <ele>456.420246</ele>
        <time>2012-03-10T14:18:22Z</time>
      </trkpt>
      <trkpt lat="43.76496" lon="7.26194">
        <ele>456.420212</ele>
        <time>2012-03-10T14:18:31Z</time>
      </trkpt>
      <trkpt lat="43.76493" lon="7.26189">
        <ele>456.420197</ele>
        <time>2012-03-10T14:18:35Z</time>
      </trkpt>
      <trkpt lat="43.76485" lon="7.26178">
        <ele>459.420158</ele>
        <time>2012-03-10T14:18:43Z</time>
      </trkpt>
      <trkpt lat="43.76484" lon="7.26176">
        <ele>460.420155</ele>
        <time>2012-03-10T14:18:45Z</time>
      </trkpt>
      <trkpt lat="43.76479" lon="7.26166">
        <ele>460.420128</ele>
        <time>2012-03-10T14:18:50Z</time>
      </trkpt>
      <trkpt lat="43.76473" lon="7.26156">
        <ele>460.420097</ele>
        <time>2012-03-10T14:18:56Z</time>
      </trkpt>
      <trkpt lat="43.76467" lon="7.26145">
        <ele>461.420067</ele>
        <time>2012-03-10T14:19:03Z</time>
      </trkpt>
      <trkpt lat="43.76462" lon="7.26134">
        <ele>462.420036</ele>
        <time>2012-03-10T14:19:13Z</time>
      </trkpt>
      <trkpt lat="43.76447" lon="7.26125">
        <ele>464.419998</ele>
        <time>2012-03-10T14:19:30Z</time>
      </trkpt>
      <trkpt lat="43.76438" lon="7.26118">
        <ele>465.419971</ele>
        <time>2012-03-10T14:19:39Z</time>
      </trkpt>
      <trkpt lat="43.76438" lon="7.26118">
        <ele>465.419971</ele>
        <time>2012-03-10T14:19:40Z</time>
      </trkpt>
      <trkpt lat="43.76439" lon="7.26104">
        <ele>464.419945</ele>
        <time>2012-03-10T14:19:48Z</time>
      </trkpt>
      <trkpt lat="43.76446" lon="7.26096">
        <ele>465.419933</ele>
        <time>2012-03-10T14:19:55Z</time>
      </trkpt>
      <trkpt lat="43.76463" lon="7.26096">
        <ele>470.41996</ele>
        <time>2012-03-10T14:20:11Z</time>
      </trkpt>
      <trkpt lat="43.76472" lon="7.26099">
        <ele>471.419975</ele>
        <time>2012-03-10T14:20:19Z</time>
      </trkpt>
      <trkpt lat="43.76485" lon="7.26105">
        <ele>469.420006</ele>
        <time>2012-03-10T14:20:28Z</time>
      </trkpt>
      <trkpt lat="43.76493" lon="7.26111">
        <ele>470.420029</ele>
        <time>2012-03-10T14:20:33Z</time>
      </trkpt>
      <trkpt lat="43.76501" lon="7.26118">
        <ele>472.420059</ele>
        <time>2012-03-10T14:20:38Z</time>
      </trkpt>
      <trkpt lat="43.76512" lon="7.26127">
        <ele>475.42009</ele>
        <time>2012-03-10T14:20:47Z</time>
      </trkpt>
      <trkpt lat="43.76521" lon="7.26131">
        <ele>477.420109</ele>
        <time>2012-03-10T14:20:55Z</time>
      </trkpt>
      <trkpt lat="43.76534" lon="7.26137">
        <ele>482.420143</ele>
        <time>2012-03-10T14:21:05Z</time>
      </trkpt>
      <trkpt lat="43.76543" lon="7.26141">
        <ele>485.420162</ele>
        <time>2012-03-10T14:21:11Z</time>
      </trkpt>
      <trkpt lat="43.76552" lon="7.26147">
        <ele>486.420185</ele>
        <time>2012-03-10T14:21:17Z</time>
      </trkpt>
      <trkpt lat="43.76562" lon="7.26153">
        <ele>490.420212</ele>
        <time>2012-03-10T14:21:24Z</time>
      </trkpt>
      <trkpt lat="43.76569" lon="7.26159">
        <ele>493.420235</ele>
        <time>2012-03-10T14:21:35Z</time>
      </trkpt>
      <trkpt lat="43.7658" lon="7.26166">
        <ele>494.420265</ele>
        <time>2012-03-10T14:21:43Z</time>
      </trkpt>
      <trkpt lat="43.76589" lon="7.26171">
        <ele>495.420288</ele>
        <time>2012-03-10T14:21:49Z</time>
      </trkpt>
      <trkpt lat="43.766" lon="7.26184">
        <ele>497.420326</ele>
        <time>2012-03-10T14:21:58Z</time>
      </trkpt>
      <trkpt lat="43.76613" lon="7.26196">
        <ele>499.42038</ele>
        <time>2012-03-10T14:22:08Z</time>
      </trkpt>
      <trkpt lat="43.7662" lon="7.26205">
        <ele>500.420403</ele>
        <time>2012-03-10T14:22:14Z</time>
      </trkpt>
      <trkpt lat="43.76628" lon="7.26223">
        <ele>499.420456</ele>
        <time>2012-03-10T14:22:22Z</time>
      </trkpt>
      <trkpt lat="43.76632" lon="7.26241">
        <ele>497.420494</ele>
        <time>2012-03-10T14:22:26Z</time>
      </trkpt>
      <trkpt lat="43.76633" lon="7.26255">
        <ele>496.420525</ele>
        <time>2012-03-10T14:22:30Z</time>
      </trkpt>
      <trkpt lat="43.76629" lon="7.26266">
        <ele>495.420547</ele>
        <time>2012-03-10T14:22:33Z</time>
      </trkpt>
      <trkpt lat="43.76625" lon="7.26279">
        <ele>495.420563</ele>
        <time>2012-03-10T14:22:36Z</time>
      </trkpt>
      <trkpt lat="43.76619" lon="7.26291">
        <ele>495.420586</ele>
        <time>2012-03-10T14:22:38Z</time>
      </trkpt>
      <trkpt lat="43.76614" lon="7.26302">
        <ele>495.420605</ele>
        <time>2012-03-10T14:22:41Z</time>
      </trkpt>
      <trkpt lat="43.76603" lon="7.26323">
        <ele>494.420628</ele>
        <time>2012-03-10T14:22:46Z</time>
      </trkpt>
      <trkpt lat="43.76596" lon="7.26334">
        <ele>494.420643</ele>
        <time>2012-03-10T14:22:49Z</time>
      </trkpt>
      <trkpt lat="43.76589" lon="7.26345">
        <ele>493.420658</ele>
        <time>2012-03-10T14:22:52Z</time>
      </trkpt>
      <trkpt lat="43.76582" lon="7.26355">
        <ele>493.42067</ele>
        <time>2012-03-10T14:22:55Z</time>
      </trkpt>
      <trkpt lat="43.76579" lon="7.26359">
        <ele>493.420673</ele>
        <time>2012-03-10T14:22:57Z</time>
      </trkpt>
      <trkpt lat="43.76572" lon="7.26369">
        <ele>493.420685</ele>
        <time>2012-03-10T14:23:01Z</time>
      </trkpt>
      <trkpt lat="43.76562" lon="7.26381">
        <ele>494.4207</ele>
        <time>2012-03-10T14:23:08Z</time>
      </trkpt>
      <trkpt lat="43.76556" lon="7.26391">
        <ele>494.420708</ele>
        <time>2012-03-10T14:23:15Z</time>
      </trkpt>
      <trkpt lat="43.7655" lon="7.26401">
        <ele>495.420723</ele>
        <time>2012-03-10T14:23:22Z</time>
      </trkpt>
      <trkpt lat="43.76543" lon="7.26411">
        <ele>496.420731</ele>
        <time>2012-03-10T14:23:30Z</time>
      </trkpt>
      <trkpt lat="43.76539" lon="7.26417">
        <ele>495.420746</ele>
        <time>2012-03-10T14:23:34Z</time>
      </trkpt>
      <trkpt lat="43.76532" lon="7.26428">
        <ele>495.420753</ele>
        <time>2012-03-10T14:23:40Z</time>
      </trkpt>
      <trkpt lat="43.76526" lon="7.2644">
        <ele>499.420773</ele>
        <time>2012-03-10T14:23:51Z</time>
      </trkpt>
      <trkpt lat="43.76534" lon="7.26431">
        <ele>497.420765</ele>
        <time>2012-03-10T14:24:58Z</time>
      </trkpt>
      <trkpt lat="43.76542" lon="7.26421">
        <ele>498.420753</ele>
        <time>2012-03-10T14:25:03Z</time>
      </trkpt>
      <trkpt lat="43.7655" lon="7.2641">
        <ele>498.420738</ele>
        <time>2012-03-10T14:25:09Z</time>
      </trkpt>
      <trkpt lat="43.76558" lon="7.26402">
        <ele>500.420738</ele>
        <time>2012-03-10T14:25:14Z</time>
      </trkpt>
      <trkpt lat="43.76565" lon="7.26394">
        <ele>500.420727</ele>
        <time>2012-03-10T14:25:19Z</time>
      </trkpt>
      <trkpt lat="43.76573" lon="7.26388">
        <ele>500.420731</ele>
        <time>2012-03-10T14:25:24Z</time>
      </trkpt>
      <trkpt lat="43.76583" lon="7.26382">
        <ele>502.420723</ele>
        <time>2012-03-10T14:25:29Z</time>
      </trkpt>
      <trkpt lat="43.76592" lon="7.26375">
        <ele>502.420723</ele>
        <time>2012-03-10T14:25:34Z</time>
      </trkpt>
      <trkpt lat="43.766" lon="7.26369">
        <ele>503.420723</ele>
        <time>2012-03-10T14:25:38Z</time>
      </trkpt>
      <trkpt lat="43.76611" lon="7.26361">
        <ele>505.420723</ele>
        <time>2012-03-10T14:25:42Z</time>
      </trkpt>
      <trkpt lat="43.7662" lon="7.26355">
        <ele>506.420723</ele>
        <time>2012-03-10T14:25:45Z</time>
      </trkpt>
      <trkpt lat="43.7663" lon="7.26349">
        <ele>508.420723</ele>
        <time>2012-03-10T14:25:48Z</time>
      </trkpt>
      <trkpt lat="43.76639" lon="7.26342">
        <ele>508.420723</ele>
        <time>2012-03-10T14:25:51Z</time>
      </trkpt>
      <trkpt lat="43.76648" lon="7.26336">
        <ele>510.420715</ele>
        <time>2012-03-10T14:25:54Z</time>
      </trkpt>
      <trkpt lat="43.76657" lon="7.26328">
        <ele>511.420715</ele>
        <time>2012-03-10T14:25:58Z</time>
      </trkpt>
      <trkpt lat="43.76664" lon="7.26321">
        <ele>511.420708</ele>
        <time>2012-03-10T14:26:03Z</time>
      </trkpt>
      <trkpt lat="43.76671" lon="7.26312">
        <ele>513.4207</ele>
        <time>2012-03-10T14:26:08Z</time>
      </trkpt>
      <trkpt lat="43.76679" lon="7.26303">
        <ele>513.420692</ele>
        <time>2012-03-10T14:26:14Z</time>
      </trkpt>
      <trkpt lat="43.76688" lon="7.26296">
        <ele>515.420685</ele>
        <time>2012-03-10T14:26:20Z</time>
      </trkpt>
      <trkpt lat="43.76696" lon="7.26288">
        <ele>516.420685</ele>
        <time>2012-03-10T14:26:26Z</time>
      </trkpt>
      <trkpt lat="43.76704" lon="7.2628">
        <ele>519.420677</ele>
        <time>2012-03-10T14:26:32Z</time>
      </trkpt>
      <trkpt lat="43.76712" lon="7.26271">
        <ele>520.42067</ele>
        <time>2012-03-10T14:26:39Z</time>
      </trkpt>
      <trkpt lat="43.7672" lon="7.26261">
        <ele>522.420658</ele>
        <time>2012-03-10T14:26:46Z</time>
      </trkpt>
      <trkpt lat="43.76726" lon="7.26251">
        <ele>523.420647</ele>
        <time>2012-03-10T14:26:52Z</time>
      </trkpt>
      <trkpt lat="43.76733" lon="7.26239">
        <ele>526.420631</ele>
        <time>2012-03-10T14:26:59Z</time>
      </trkpt>
      <trkpt lat="43.76741" lon="7.2623">
        <ele>527.420624</ele>
        <time>2012-03-10T14:27:05Z</time>
      </trkpt>
      <trkpt lat="43.76749" lon="7.26221">
        <ele>528.420616</ele>
        <time>2012-03-10T14:27:11Z</time>
      </trkpt>
      <trkpt lat="43.76754" lon="7.2621">
        <ele>529.420597</ele>
        <time>2012-03-10T14:27:17Z</time>
      </trkpt>
      <trkpt lat="43.76753" lon="7.26197">
        <ele>528.420567</ele>
        <time>2012-03-10T14:27:23Z</time>
      </trkpt>
      <trkpt lat="43.76748" lon="7.26186">
        <ele>526.420536</ele>
        <time>2012-03-10T14:27:30Z</time>
      </trkpt>
      <trkpt lat="43.76747" lon="7.26185">
        <ele>526.420536</ele>
        <time>2012-03-10T14:27:31Z</time>
      </trkpt>
      <trkpt lat="43.76738" lon="7.2618">
        <ele>525.420517</ele>
        <time>2012-03-10T14:27:38Z</time>
      </trkpt>
      <trkpt lat="43.76719" lon="7.26168">
        <ele>531.420456</ele>
        <time>2012-03-10T14:27:52Z</time>
      </trkpt>
      <trkpt lat="43.76711" lon="7.26159">
        <ele>537.420433</ele>
        <time>2012-03-10T14:27:58Z</time>
      </trkpt>
      <trkpt lat="43.76704" lon="7.26151">
        <ele>540.420403</ele>
        <time>2012-03-10T14:28:04Z</time>
      </trkpt>
      <trkpt lat="43.76697" lon="7.26141">
        <ele>541.420372</ele>
        <time>2012-03-10T14:28:11Z</time>
      </trkpt>
      <trkpt lat="43.76697" lon="7.26141">
        <ele>541.420372</ele>
        <time>2012-03-10T14:28:14Z</time>
      </trkpt>
      <trkpt lat="43.7669" lon="7.26129">
        <ele>544.420341</ele>
        <time>2012-03-10T14:28:18Z</time>
      </trkpt>
      <trkpt lat="43.76685" lon="7.26117">
        <ele>549.420303</ele>
        <time>2012-03-10T14:28:24Z</time>
      </trkpt>
      <trkpt lat="43.76685" lon="7.26115">
        <ele>550.4203</ele>
        <time>2012-03-10T14:28:25Z</time>
      </trkpt>
      <trkpt lat="43.76681" lon="7.26102">
        <ele>551.420273</ele>
        <time>2012-03-10T14:28:31Z</time>
      </trkpt>
      <trkpt lat="43.7668" lon="7.26098">
        <ele>552.420258</ele>
        <time>2012-03-10T14:28:37Z</time>
      </trkpt>
      <trkpt lat="43.76677" lon="7.26084">
        <ele>552.420227</ele>
        <time>2012-03-10T14:28:40Z</time>
      </trkpt>
      <trkpt lat="43.76674" lon="7.26072">
        <ele>551.420197</ele>
        <time>2012-03-10T14:28:46Z</time>
      </trkpt>
      <trkpt lat="43.76673" lon="7.2607">
        <ele>551.420189</ele>
        <time>2012-03-10T14:28:47Z</time>
      </trkpt>
      <trkpt lat="43.76667" lon="7.2606">
        <ele>550.420158</ele>
        <time>2012-03-10T14:28:53Z</time>
      </trkpt>
      <trkpt lat="43.76665" lon="7.26058">
        <ele>549.420158</ele>
        <time>2012-03-10T14:28:54Z</time>
      </trkpt>
      <trkpt lat="43.76656" lon="7.26047">
        <ele>548.42012</ele>
        <time>2012-03-10T14:29:01Z</time>
      </trkpt>
      <trkpt lat="43.76652" lon="7.26034">
        <ele>547.42009</ele>
        <time>2012-03-10T14:29:06Z</time>
      </trkpt>
      <trkpt lat="43.76642" lon="7.26026">
        <ele>535.420059</ele>
        <time>2012-03-10T14:29:52Z</time>
      </trkpt>
      <trkpt lat="43.76653" lon="7.26028">
        <ele>523.420074</ele>
        <time>2012-03-10T14:30:39Z</time>
      </trkpt>
      <trkpt lat="43.76655" lon="7.26028">
        <ele>522.420082</ele>
        <time>2012-03-10T14:30:48Z</time>
      </trkpt>
      <trkpt lat="43.76663" lon="7.26022">
        <ele>536.420074</ele>
        <time>2012-03-10T14:33:09Z</time>
      </trkpt>
      <trkpt lat="43.76673" lon="7.2603">
        <ele>540.420105</ele>
        <time>2012-03-10T14:33:18Z</time>
      </trkpt>
      <trkpt lat="43.76681" lon="7.26038">
        <ele>543.420135</ele>
        <time>2012-03-10T14:33:24Z</time>
      </trkpt>
      <trkpt lat="43.76689" lon="7.26046">
        <ele>544.420158</ele>
        <time>2012-03-10T14:33:31Z</time>
      </trkpt>
      <trkpt lat="43.76699" lon="7.26056">
        <ele>547.420197</ele>
        <time>2012-03-10T14:33:40Z</time>
      </trkpt>
      <trkpt lat="43.76709" lon="7.26066">
        <ele>552.420235</ele>
        <time>2012-03-10T14:33:51Z</time>
      </trkpt>
      <trkpt lat="43.76717" lon="7.26073">
        <ele>554.420258</ele>
        <time>2012-03-10T14:33:58Z</time>
      </trkpt>
      <trkpt lat="43.76726" lon="7.2608">
        <ele>556.420284</ele>
        <time>2012-03-10T14:34:04Z</time>
      </trkpt>
      <trkpt lat="43.76735" lon="7.26089">
        <ele>557.420319</ele>
        <time>2012-03-10T14:34:11Z</time>
      </trkpt>
      <trkpt lat="43.76744" lon="7.26099">
        <ele>559.420349</ele>
        <time>2012-03-10T14:34:19Z</time>
      </trkpt>
      <trkpt lat="43.76756" lon="7.26111">
        <ele>562.420387</ele>
        <time>2012-03-10T14:34:29Z</time>
      </trkpt>
      <trkpt lat="43.76765" lon="7.26119">
        <ele>562.420425</ele>
        <time>2012-03-10T14:34:37Z</time>
      </trkpt>
      <trkpt lat="43.76775" lon="7.26128">
        <ele>563.420448</ele>
        <time>2012-03-10T14:34:44Z</time>
      </trkpt>
      <trkpt lat="43.76783" lon="7.26135">
        <ele>563.420479</ele>
        <time>2012-03-10T14:34:49Z</time>
      </trkpt>
      <trkpt lat="43.76795" lon="7.26144">
        <ele>564.420517</ele>
        <time>2012-03-10T14:34:55Z</time>
      </trkpt>
      <trkpt lat="43.76803" lon="7.26151">
        <ele>564.42054</ele>
        <time>2012-03-10T14:34:59Z</time>
      </trkpt>
      <trkpt lat="43.76816" lon="7.2616">
        <ele>565.420578</ele>
        <time>2012-03-10T14:35:06Z</time>
      </trkpt>
      <trkpt lat="43.76824" lon="7.26167">
        <ele>566.420605</ele>
        <time>2012-03-10T14:35:12Z</time>
      </trkpt>
      <trkpt lat="43.7683" lon="7.26177">
        <ele>568.420631</ele>
        <time>2012-03-10T14:35:19Z</time>
      </trkpt>
      <trkpt lat="43.76835" lon="7.26191">
        <ele>569.42067</ele>
        <time>2012-03-10T14:35:26Z</time>
      </trkpt>
      <trkpt lat="43.76838" lon="7.26204">
        <ele>569.4207</ele>
        <time>2012-03-10T14:35:32Z</time>
      </trkpt>
      <trkpt lat="43.76839" lon="7.26217">
        <ele>570.420731</ele>
        <time>2012-03-10T14:35:36Z</time>
      </trkpt>
      <trkpt lat="43.76839" lon="7.26233">
        <ele>571.420761</ele>
        <time>2012-03-10T14:35:40Z</time>
      </trkpt>
      <trkpt lat="43.76839" lon="7.26235">
        <ele>571.420765</ele>
        <time>2012-03-10T14:35:41Z</time>
      </trkpt>
      <trkpt lat="43.76837" lon="7.26255">
        <ele>571.420807</ele>
        <time>2012-03-10T14:35:45Z</time>
      </trkpt>
      <trkpt lat="43.7683" lon="7.26282">
        <ele>573.420856</ele>
        <time>2012-03-10T14:35:52Z</time>
      </trkpt>
      <trkpt lat="43.76829" lon="7.26288">
        <ele>573.420864</ele>
        <time>2012-03-10T14:35:56Z</time>
      </trkpt>
      <trkpt lat="43.76825" lon="7.26304">
        <ele>575.420895</ele>
        <time>2012-03-10T14:35:59Z</time>
      </trkpt>
      <trkpt lat="43.76822" lon="7.26317">
        <ele>576.420918</ele>
        <time>2012-03-10T14:36:03Z</time>
      </trkpt>
      <trkpt lat="43.76819" lon="7.2633">
        <ele>577.420937</ele>
        <time>2012-03-10T14:36:07Z</time>
      </trkpt>
      <trkpt lat="43.76815" lon="7.26343">
        <ele>577.420963</ele>
        <time>2012-03-10T14:36:11Z</time>
      </trkpt>
      <trkpt lat="43.76814" lon="7.26347">
        <ele>577.420967</ele>
        <time>2012-03-10T14:36:12Z</time>
      </trkpt>
      <trkpt lat="43.76808" lon="7.26359">
        <ele>577.420982</ele>
        <time>2012-03-10T14:36:15Z</time>
      </trkpt>
      <trkpt lat="43.768" lon="7.26373">
        <ele>578.421005</ele>
        <time>2012-03-10T14:36:20Z</time>
      </trkpt>
      <trkpt lat="43.7679" lon="7.26387">
        <ele>579.421021</ele>
        <time>2012-03-10T14:36:25Z</time>
      </trkpt>
      <trkpt lat="43.7678" lon="7.264">
        <ele>580.421036</ele>
        <time>2012-03-10T14:36:29Z</time>
      </trkpt>
      <trkpt lat="43.76772" lon="7.26412">
        <ele>580.421051</ele>
        <time>2012-03-10T14:36:33Z</time>
      </trkpt>
      <trkpt lat="43.76765" lon="7.26427">
        <ele>582.421074</ele>
        <time>2012-03-10T14:36:41Z</time>
      </trkpt>
      <trkpt lat="43.76765" lon="7.26429">
        <ele>582.421078</ele>
        <time>2012-03-10T14:36:42Z</time>
      </trkpt>
      <trkpt lat="43.7676" lon="7.26442">
        <ele>583.421097</ele>
        <time>2012-03-10T14:36:48Z</time>
      </trkpt>
      <trkpt lat="43.76759" lon="7.26444">
        <ele>583.421101</ele>
        <time>2012-03-10T14:36:49Z</time>
      </trkpt>
      <trkpt lat="43.7675" lon="7.26459">
        <ele>582.42112</ele>
        <time>2012-03-10T14:36:57Z</time>
      </trkpt>
      <trkpt lat="43.76753" lon="7.26446">
        <ele>586.421097</ele>
        <time>2012-03-10T14:37:28Z</time>
      </trkpt>
      <trkpt lat="43.76758" lon="7.26435">
        <ele>587.421082</ele>
        <time>2012-03-10T14:37:35Z</time>
      </trkpt>
      <trkpt lat="43.76764" lon="7.26426">
        <ele>587.421074</ele>
        <time>2012-03-10T14:37:42Z</time>
      </trkpt>
      <trkpt lat="43.76765" lon="7.26425">
        <ele>588.421066</ele>
        <time>2012-03-10T14:37:43Z</time>
      </trkpt>
      <trkpt lat="43.76773" lon="7.26416">
        <ele>590.421059</ele>
        <time>2012-03-10T14:37:50Z</time>
      </trkpt>
      <trkpt lat="43.76781" lon="7.2641">
        <ele>589.421059</ele>
        <time>2012-03-10T14:37:57Z</time>
      </trkpt>
      <trkpt lat="43.7679" lon="7.26403">
        <ele>589.421051</ele>
        <time>2012-03-10T14:38:04Z</time>
      </trkpt>
      <trkpt lat="43.76798" lon="7.26397">
        <ele>591.421051</ele>
        <time>2012-03-10T14:38:10Z</time>
      </trkpt>
      <trkpt lat="43.76806" lon="7.26389">
        <ele>592.421047</ele>
        <time>2012-03-10T14:38:16Z</time>
      </trkpt>
      <trkpt lat="43.76813" lon="7.26381">
        <ele>592.42104</ele>
        <time>2012-03-10T14:38:22Z</time>
      </trkpt>
      <trkpt lat="43.7682" lon="7.26373">
        <ele>592.421028</ele>
        <time>2012-03-10T14:38:28Z</time>
      </trkpt>
      <trkpt lat="43.76827" lon="7.26364">
        <ele>594.421021</ele>
        <time>2012-03-10T14:38:34Z</time>
      </trkpt>
      <trkpt lat="43.76834" lon="7.26356">
        <ele>594.421021</ele>
        <time>2012-03-10T14:38:40Z</time>
      </trkpt>
      <trkpt lat="43.76843" lon="7.26344">
        <ele>596.421005</ele>
        <time>2012-03-10T14:38:48Z</time>
      </trkpt>
      <trkpt lat="43.76851" lon="7.26335">
        <ele>596.420998</ele>
        <time>2012-03-10T14:38:55Z</time>
      </trkpt>
      <trkpt lat="43.76859" lon="7.26327">
        <ele>597.42099</ele>
        <time>2012-03-10T14:39:01Z</time>
      </trkpt>
      <trkpt lat="43.76866" lon="7.26319">
        <ele>597.420979</ele>
        <time>2012-03-10T14:39:07Z</time>
      </trkpt>
      <trkpt lat="43.76872" lon="7.2631">
        <ele>599.420967</ele>
        <time>2012-03-10T14:39:13Z</time>
      </trkpt>
      <trkpt lat="43.76875" lon="7.26306">
        <ele>599.420967</ele>
        <time>2012-03-10T14:39:16Z</time>
      </trkpt>
      <trkpt lat="43.76884" lon="7.26295">
        <ele>600.420956</ele>
        <time>2012-03-10T14:39:23Z</time>
      </trkpt>
      <trkpt lat="43.76891" lon="7.26286">
        <ele>601.420944</ele>
        <time>2012-03-10T14:39:29Z</time>
      </trkpt>
      <trkpt lat="43.76898" lon="7.26277">
        <ele>602.420937</ele>
        <time>2012-03-10T14:39:35Z</time>
      </trkpt>
      <trkpt lat="43.76899" lon="7.26275">
        <ele>602.420929</ele>
        <time>2012-03-10T14:39:36Z</time>
      </trkpt>
      <trkpt lat="43.76907" lon="7.26265">
        <ele>603.420921</ele>
        <time>2012-03-10T14:39:43Z</time>
      </trkpt>
      <trkpt lat="43.76913" lon="7.26256">
        <ele>604.420914</ele>
        <time>2012-03-10T14:39:49Z</time>
      </trkpt>
      <trkpt lat="43.7692" lon="7.26247">
        <ele>605.420906</ele>
        <time>2012-03-10T14:39:55Z</time>
      </trkpt>
      <trkpt lat="43.76929" lon="7.26237">
        <ele>606.420895</ele>
        <time>2012-03-10T14:40:02Z</time>
      </trkpt>
      <trkpt lat="43.76937" lon="7.26225">
        <ele>607.420876</ele>
        <time>2012-03-10T14:40:09Z</time>
      </trkpt>
      <trkpt lat="43.76942" lon="7.26213">
        <ele>608.420864</ele>
        <time>2012-03-10T14:40:15Z</time>
      </trkpt>
      <trkpt lat="43.76946" lon="7.26201">
        <ele>609.420841</ele>
        <time>2012-03-10T14:40:21Z</time>
      </trkpt>
      <trkpt lat="43.76949" lon="7.26189">
        <ele>610.420818</ele>
        <time>2012-03-10T14:40:27Z</time>
      </trkpt>
      <trkpt lat="43.76948" lon="7.26176">
        <ele>612.420792</ele>
        <time>2012-03-10T14:40:33Z</time>
      </trkpt>
      <trkpt lat="43.76948" lon="7.26176">
        <ele>612.420792</ele>
        <time>2012-03-10T14:40:37Z</time>
      </trkpt>
      <trkpt lat="43.76941" lon="7.26166">
        <ele>617.420757</ele>
        <time>2012-03-10T14:40:41Z</time>
      </trkpt>
      <trkpt lat="43.76943" lon="7.26153">
        <ele>618.420738</ele>
        <time>2012-03-10T14:40:50Z</time>
      </trkpt>
      <trkpt lat="43.76952" lon="7.26158">
        <ele>620.420761</ele>
        <time>2012-03-10T14:40:57Z</time>
      </trkpt>
      <trkpt lat="43.76958" lon="7.26168">
        <ele>622.420788</ele>
        <time>2012-03-10T14:41:04Z</time>
      </trkpt>
      <trkpt lat="43.76959" lon="7.26188">
        <ele>622.420834</ele>
        <time>2012-03-10T14:41:16Z</time>
      </trkpt>
      <trkpt lat="43.76957" lon="7.26202">
        <ele>623.42086</ele>
        <time>2012-03-10T14:41:23Z</time>
      </trkpt>
      <trkpt lat="43.76956" lon="7.26216">
        <ele>625.420883</ele>
        <time>2012-03-10T14:41:29Z</time>
      </trkpt>
      <trkpt lat="43.76953" lon="7.26237">
        <ele>626.420929</ele>
        <time>2012-03-10T14:41:37Z</time>
      </trkpt>
      <trkpt lat="43.76951" lon="7.2625">
        <ele>628.420952</ele>
        <time>2012-03-10T14:41:44Z</time>
      </trkpt>
      <trkpt lat="43.76951" lon="7.2625">
        <ele>628.420952</ele>
        <time>2012-03-10T14:41:45Z</time>
      </trkpt>
      <trkpt lat="43.76948" lon="7.26262">
        <ele>630.420971</ele>
        <time>2012-03-10T14:41:51Z</time>
      </trkpt>
      <trkpt lat="43.76948" lon="7.26262">
        <ele>630.420971</ele>
        <time>2012-03-10T14:41:52Z</time>
      </trkpt>
      <trkpt lat="43.76945" lon="7.26275">
        <ele>631.420998</ele>
        <time>2012-03-10T14:41:56Z</time>
      </trkpt>
      <trkpt lat="43.76939" lon="7.26299">
        <ele>632.42104</ele>
        <time>2012-03-10T14:42:07Z</time>
      </trkpt>
      <trkpt lat="43.76934" lon="7.26315">
        <ele>632.421066</ele>
        <time>2012-03-10T14:42:14Z</time>
      </trkpt>
      <trkpt lat="43.76928" lon="7.26333">
        <ele>633.421097</ele>
        <time>2012-03-10T14:42:22Z</time>
      </trkpt>
      <trkpt lat="43.76928" lon="7.26336">
        <ele>634.421101</ele>
        <time>2012-03-10T14:42:23Z</time>
      </trkpt>
      <trkpt lat="43.76923" lon="7.26349">
        <ele>635.421124</ele>
        <time>2012-03-10T14:42:28Z</time>
      </trkpt>
      <trkpt lat="43.76919" lon="7.2636">
        <ele>635.421143</ele>
        <time>2012-03-10T14:42:32Z</time>
      </trkpt>
      <trkpt lat="43.76915" lon="7.26371">
        <ele>637.421158</ele>
        <time>2012-03-10T14:42:36Z</time>
      </trkpt>
      <trkpt lat="43.76909" lon="7.26387">
        <ele>637.421181</ele>
        <time>2012-03-10T14:42:42Z</time>
      </trkpt>
      <trkpt lat="43.76903" lon="7.264">
        <ele>636.421204</ele>
        <time>2012-03-10T14:42:50Z</time>
      </trkpt>
      <trkpt lat="43.76898" lon="7.2641">
        <ele>638.421219</ele>
        <time>2012-03-10T14:42:57Z</time>
      </trkpt>
      <trkpt lat="43.76896" lon="7.26416">
        <ele>639.421227</ele>
        <time>2012-03-10T14:43:00Z</time>
      </trkpt>
      <trkpt lat="43.7689" lon="7.2643">
        <ele>641.421249</ele>
        <time>2012-03-10T14:43:07Z</time>
      </trkpt>
      <trkpt lat="43.76886" lon="7.26442">
        <ele>643.421268</ele>
        <time>2012-03-10T14:43:12Z</time>
      </trkpt>
      <trkpt lat="43.76882" lon="7.26459">
        <ele>643.421299</ele>
        <time>2012-03-10T14:43:17Z</time>
      </trkpt>
      <trkpt lat="43.76881" lon="7.26463">
        <ele>643.421307</ele>
        <time>2012-03-10T14:43:18Z</time>
      </trkpt>
      <trkpt lat="43.76878" lon="7.26477">
        <ele>643.421329</ele>
        <time>2012-03-10T14:43:22Z</time>
      </trkpt>
      <trkpt lat="43.76874" lon="7.2649">
        <ele>645.421356</ele>
        <time>2012-03-10T14:43:27Z</time>
      </trkpt>
      <trkpt lat="43.76874" lon="7.26493">
        <ele>645.421356</ele>
        <time>2012-03-10T14:43:28Z</time>
      </trkpt>
      <trkpt lat="43.7687" lon="7.26506">
        <ele>647.421379</ele>
        <time>2012-03-10T14:43:33Z</time>
      </trkpt>
      <trkpt lat="43.76869" lon="7.26508">
        <ele>647.421387</ele>
        <time>2012-03-10T14:43:36Z</time>
      </trkpt>
      <trkpt lat="43.76866" lon="7.26521">
        <ele>650.421406</ele>
        <time>2012-03-10T14:43:40Z</time>
      </trkpt>
      <trkpt lat="43.76865" lon="7.26526">
        <ele>650.421417</ele>
        <time>2012-03-10T14:43:42Z</time>
      </trkpt>
      <trkpt lat="43.76863" lon="7.26539">
        <ele>649.42144</ele>
        <time>2012-03-10T14:43:48Z</time>
      </trkpt>
      <trkpt lat="43.76862" lon="7.26551">
        <ele>650.421463</ele>
        <time>2012-03-10T14:43:54Z</time>
      </trkpt>
      <trkpt lat="43.76861" lon="7.26565">
        <ele>651.421494</ele>
        <time>2012-03-10T14:44:03Z</time>
      </trkpt>
      <trkpt lat="43.76861" lon="7.26553">
        <ele>660.421471</ele>
        <time>2012-03-10T14:44:33Z</time>
      </trkpt>
      <trkpt lat="43.76863" lon="7.2654">
        <ele>659.421448</ele>
        <time>2012-03-10T14:44:40Z</time>
      </trkpt>
      <trkpt lat="43.76869" lon="7.26528">
        <ele>659.421425</ele>
        <time>2012-03-10T14:44:46Z</time>
      </trkpt>
      <trkpt lat="43.76874" lon="7.26518">
        <ele>659.421413</ele>
        <time>2012-03-10T14:44:51Z</time>
      </trkpt>
      <trkpt lat="43.76881" lon="7.26506">
        <ele>660.421394</ele>
        <time>2012-03-10T14:44:57Z</time>
      </trkpt>
      <trkpt lat="43.76887" lon="7.26496">
        <ele>661.421387</ele>
        <time>2012-03-10T14:45:02Z</time>
      </trkpt>
      <trkpt lat="43.76894" lon="7.26486">
        <ele>661.421371</ele>
        <time>2012-03-10T14:45:07Z</time>
      </trkpt>
      <trkpt lat="43.769" lon="7.26475">
        <ele>662.421356</ele>
        <time>2012-03-10T14:45:13Z</time>
      </trkpt>
      <trkpt lat="43.76903" lon="7.26471">
        <ele>662.421352</ele>
        <time>2012-03-10T14:45:15Z</time>
      </trkpt>
      <trkpt lat="43.76909" lon="7.26461">
        <ele>663.421341</ele>
        <time>2012-03-10T14:45:21Z</time>
      </trkpt>
      <trkpt lat="43.76916" lon="7.26451">
        <ele>666.421326</ele>
        <time>2012-03-10T14:45:27Z</time>
      </trkpt>
      <trkpt lat="43.76923" lon="7.26441">
        <ele>668.421318</ele>
        <time>2012-03-10T14:45:33Z</time>
      </trkpt>
      <trkpt lat="43.76931" lon="7.26431">
        <ele>667.42131</ele>
        <time>2012-03-10T14:45:40Z</time>
      </trkpt>
      <trkpt lat="43.76938" lon="7.26423">
        <ele>669.421303</ele>
        <time>2012-03-10T14:45:46Z</time>
      </trkpt>
      <trkpt lat="43.76938" lon="7.26423">
        <ele>669.421303</ele>
        <time>2012-03-10T14:45:48Z</time>
      </trkpt>
      <trkpt lat="43.76945" lon="7.26414">
        <ele>670.421288</ele>
        <time>2012-03-10T14:45:53Z</time>
      </trkpt>
      <trkpt lat="43.76952" lon="7.26405">
        <ele>670.42128</ele>
        <time>2012-03-10T14:46:01Z</time>
      </trkpt>
      <trkpt lat="43.76958" lon="7.26395">
        <ele>673.421265</ele>
        <time>2012-03-10T14:46:10Z</time>
      </trkpt>
      <trkpt lat="43.76959" lon="7.26392">
        <ele>674.421265</ele>
        <time>2012-03-10T14:46:13Z</time>
      </trkpt>
      <trkpt lat="43.76966" lon="7.26384">
        <ele>675.421257</ele>
        <time>2012-03-10T14:46:20Z</time>
      </trkpt>
      <trkpt lat="43.76973" lon="7.26375">
        <ele>675.421249</ele>
        <time>2012-03-10T14:46:27Z</time>
      </trkpt>
      <trkpt lat="43.76982" lon="7.26362">
        <ele>675.421234</ele>
        <time>2012-03-10T14:46:36Z</time>
      </trkpt>
      <trkpt lat="43.7699" lon="7.26352">
        <ele>677.421219</ele>
        <time>2012-03-10T14:46:43Z</time>
      </trkpt>
      <trkpt lat="43.76998" lon="7.26342">
        <ele>677.421211</ele>
        <time>2012-03-10T14:46:50Z</time>
      </trkpt>
      <trkpt lat="43.77004" lon="7.26333">
        <ele>677.4212</ele>
        <time>2012-03-10T14:46:56Z</time>
      </trkpt>
      <trkpt lat="43.77014" lon="7.26322">
        <ele>678.421188</ele>
        <time>2012-03-10T14:47:04Z</time>
      </trkpt>
      <trkpt lat="43.77016" lon="7.26319">
        <ele>678.421185</ele>
        <time>2012-03-10T14:47:06Z</time>
      </trkpt>
      <trkpt lat="43.77025" lon="7.26306">
        <ele>677.421169</ele>
        <time>2012-03-10T14:47:15Z</time>
      </trkpt>
      <trkpt lat="43.77026" lon="7.26303">
        <ele>677.421165</ele>
        <time>2012-03-10T14:47:17Z</time>
      </trkpt>
      <trkpt lat="43.77034" lon="7.26293">
        <ele>678.421158</ele>
        <time>2012-03-10T14:47:25Z</time>
      </trkpt>
      <trkpt lat="43.77041" lon="7.26285">
        <ele>680.42115</ele>
        <time>2012-03-10T14:47:32Z</time>
      </trkpt>
      <trkpt lat="43.7705" lon="7.26277">
        <ele>681.421143</ele>
        <time>2012-03-10T14:47:39Z</time>
      </trkpt>
      <trkpt lat="43.77058" lon="7.26269">
        <ele>681.421135</ele>
        <time>2012-03-10T14:47:45Z</time>
      </trkpt>
      <trkpt lat="43.77067" lon="7.26261">
        <ele>681.421135</ele>
        <time>2012-03-10T14:47:52Z</time>
      </trkpt>
      <trkpt lat="43.77076" lon="7.26251">
        <ele>684.421124</ele>
        <time>2012-03-10T14:48:00Z</time>
      </trkpt>
      <trkpt lat="43.77083" lon="7.26243">
        <ele>685.42112</ele>
        <time>2012-03-10T14:48:07Z</time>
      </trkpt>
      <trkpt lat="43.77091" lon="7.26236">
        <ele>685.421112</ele>
        <time>2012-03-10T14:48:14Z</time>
      </trkpt>
      <trkpt lat="43.77102" lon="7.26224">
        <ele>687.421104</ele>
        <time>2012-03-10T14:48:23Z</time>
      </trkpt>
      <trkpt lat="43.77104" lon="7.26223">
        <ele>687.421104</ele>
        <time>2012-03-10T14:48:24Z</time>
      </trkpt>
      <trkpt lat="43.77111" lon="7.26215">
        <ele>688.421097</ele>
        <time>2012-03-10T14:48:30Z</time>
      </trkpt>
      <trkpt lat="43.77118" lon="7.26206">
        <ele>686.421089</ele>
        <time>2012-03-10T14:48:36Z</time>
      </trkpt>
      <trkpt lat="43.77124" lon="7.26196">
        <ele>686.421074</ele>
        <time>2012-03-10T14:48:43Z</time>
      </trkpt>
      <trkpt lat="43.77131" lon="7.26186">
        <ele>688.421059</ele>
        <time>2012-03-10T14:48:50Z</time>
      </trkpt>
      <trkpt lat="43.77138" lon="7.26176">
        <ele>687.421051</ele>
        <time>2012-03-10T14:48:57Z</time>
      </trkpt>
      <trkpt lat="43.77145" lon="7.26166">
        <ele>685.421036</ele>
        <time>2012-03-10T14:49:04Z</time>
      </trkpt>
      <trkpt lat="43.77156" lon="7.2615">
        <ele>681.421021</ele>
        <time>2012-03-10T14:49:16Z</time>
      </trkpt>
      <trkpt lat="43.77157" lon="7.26149">
        <ele>680.421021</ele>
        <time>2012-03-10T14:49:17Z</time>
      </trkpt>
      <trkpt lat="43.77158" lon="7.26148">
        <ele>680.421021</ele>
        <time>2012-03-10T14:49:18Z</time>
      </trkpt>
      <trkpt lat="43.7716" lon="7.26147">
        <ele>680.421021</ele>
        <time>2012-03-10T14:49:19Z</time>
      </trkpt>
      <trkpt lat="43.77161" lon="7.26146">
        <ele>680.421021</ele>
        <time>2012-03-10T14:49:20Z</time>
      </trkpt>
      <trkpt lat="43.77168" lon="7.26138">
        <ele>678.421013</ele>
        <time>2012-03-10T14:49:27Z</time>
      </trkpt>
      <trkpt lat="43.77175" lon="7.2613">
        <ele>679.421005</ele>
        <time>2012-03-10T14:49:34Z</time>
      </trkpt>
      <trkpt lat="43.77183" lon="7.26121">
        <ele>682.420998</ele>
        <time>2012-03-10T14:49:42Z</time>
      </trkpt>
      <trkpt lat="43.77183" lon="7.26121">
        <ele>682.420998</ele>
        <time>2012-03-10T14:49:43Z</time>
      </trkpt>
      <trkpt lat="43.77191" lon="7.26112">
        <ele>684.42099</ele>
        <time>2012-03-10T14:49:50Z</time>
      </trkpt>
      <trkpt lat="43.77198" lon="7.26104">
        <ele>687.420975</ele>
        <time>2012-03-10T14:49:57Z</time>
      </trkpt>
      <trkpt lat="43.77205" lon="7.26092">
        <ele>687.420967</ele>
        <time>2012-03-10T14:50:05Z</time>
      </trkpt>
      <trkpt lat="43.77211" lon="7.26081">
        <ele>688.420952</ele>
        <time>2012-03-10T14:50:12Z</time>
      </trkpt>
      <trkpt lat="43.77211" lon="7.2608">
        <ele>688.420948</ele>
        <time>2012-03-10T14:50:13Z</time>
      </trkpt>
      <trkpt lat="43.77217" lon="7.26068">
        <ele>690.420929</ele>
        <time>2012-03-10T14:50:20Z</time>
      </trkpt>
      <trkpt lat="43.77221" lon="7.26057">
        <ele>692.420914</ele>
        <time>2012-03-10T14:50:26Z</time>
      </trkpt>
      <trkpt lat="43.77226" lon="7.26046">
        <ele>694.420898</ele>
        <time>2012-03-10T14:50:32Z</time>
      </trkpt>
      <trkpt lat="43.77232" lon="7.26034">
        <ele>697.420879</ele>
        <time>2012-03-10T14:50:38Z</time>
      </trkpt>
      <trkpt lat="43.77237" lon="7.26022">
        <ele>699.420864</ele>
        <time>2012-03-10T14:50:44Z</time>
      </trkpt>
      <trkpt lat="43.77242" lon="7.26011">
        <ele>700.420845</ele>
        <time>2012-03-10T14:50:50Z</time>
      </trkpt>
      <trkpt lat="43.77245" lon="7.25996">
        <ele>700.420818</ele>
        <time>2012-03-10T14:50:57Z</time>
      </trkpt>
      <trkpt lat="43.77245" lon="7.25982">
        <ele>700.420788</ele>
        <time>2012-03-10T14:51:04Z</time>
      </trkpt>
      <trkpt lat="43.77245" lon="7.25981">
        <ele>700.420784</ele>
        <time>2012-03-10T14:51:05Z</time>
      </trkpt>
      <trkpt lat="43.7724" lon="7.25967">
        <ele>702.42075</ele>
        <time>2012-03-10T14:51:14Z</time>
      </trkpt>
      <trkpt lat="43.77232" lon="7.25956">
        <ele>703.420715</ele>
        <time>2012-03-10T14:51:23Z</time>
      </trkpt>
      <trkpt lat="43.77222" lon="7.25952">
        <ele>704.420692</ele>
        <time>2012-03-10T14:51:29Z</time>
      </trkpt>
      <trkpt lat="43.77212" lon="7.25948">
        <ele>708.42067</ele>
        <time>2012-03-10T14:51:35Z</time>
      </trkpt>
      <trkpt lat="43.77203" lon="7.25944">
        <ele>709.42065</ele>
        <time>2012-03-10T14:51:57Z</time>
      </trkpt>
      <trkpt lat="43.7721" lon="7.25936">
        <ele>711.420639</ele>
        <time>2012-03-10T14:53:07Z</time>
      </trkpt>
      <trkpt lat="43.77211" lon="7.25938">
        <ele>711.420647</ele>
        <time>2012-03-10T14:53:15Z</time>
      </trkpt>
      <trkpt lat="43.77221" lon="7.2594">
        <ele>721.420666</ele>
        <time>2012-03-10T14:56:34Z</time>
      </trkpt>
      <trkpt lat="43.77231" lon="7.25938">
        <ele>722.420677</ele>
        <time>2012-03-10T14:56:39Z</time>
      </trkpt>
      <trkpt lat="43.7724" lon="7.25935">
        <ele>722.420681</ele>
        <time>2012-03-10T14:56:44Z</time>
      </trkpt>
      <trkpt lat="43.77257" lon="7.25926">
        <ele>727.420685</ele>
        <time>2012-03-10T14:56:56Z</time>
      </trkpt>
      <trkpt lat="43.77266" lon="7.2592">
        <ele>727.420685</ele>
        <time>2012-03-10T14:57:03Z</time>
      </trkpt>
      <trkpt lat="43.77276" lon="7.25915">
        <ele>727.420685</ele>
        <time>2012-03-10T14:57:14Z</time>
      </trkpt>
      <trkpt lat="43.77284" lon="7.25909">
        <ele>727.420685</ele>
        <time>2012-03-10T14:57:21Z</time>
      </trkpt>
      <trkpt lat="43.77292" lon="7.25903">
        <ele>728.420685</ele>
        <time>2012-03-10T14:57:30Z</time>
      </trkpt>
      <trkpt lat="43.77293" lon="7.25902">
        <ele>729.420685</ele>
        <time>2012-03-10T14:57:35Z</time>
      </trkpt>
      <trkpt lat="43.77309" lon="7.25891">
        <ele>729.420685</ele>
        <time>2012-03-10T14:57:43Z</time>
      </trkpt>
      <trkpt lat="43.77317" lon="7.25883">
        <ele>730.420673</ele>
        <time>2012-03-10T14:57:48Z</time>
      </trkpt>
      <trkpt lat="43.77323" lon="7.25872">
        <ele>731.420662</ele>
        <time>2012-03-10T14:57:52Z</time>
      </trkpt>
      <trkpt lat="43.77329" lon="7.25862">
        <ele>732.420647</ele>
        <time>2012-03-10T14:57:56Z</time>
      </trkpt>
      <trkpt lat="43.77335" lon="7.25852">
        <ele>733.420639</ele>
        <time>2012-03-10T14:58:00Z</time>
      </trkpt>
      <trkpt lat="43.77347" lon="7.25839">
        <ele>735.420624</ele>
        <time>2012-03-10T14:58:07Z</time>
      </trkpt>
      <trkpt lat="43.77354" lon="7.2583">
        <ele>738.420616</ele>
        <time>2012-03-10T14:58:12Z</time>
      </trkpt>
      <trkpt lat="43.77365" lon="7.25819">
        <ele>739.420605</ele>
        <time>2012-03-10T14:58:21Z</time>
      </trkpt>
      <trkpt lat="43.77376" lon="7.2578">
        <ele>737.42054</ele>
        <time>2012-03-10T14:59:02Z</time>
      </trkpt>
      <trkpt lat="43.77377" lon="7.25779">
        <ele>737.42054</ele>
        <time>2012-03-10T14:59:05Z</time>
      </trkpt>
      <trkpt lat="43.7738" lon="7.25757">
        <ele>744.420498</ele>
        <time>2012-03-10T14:59:17Z</time>
      </trkpt>
      <trkpt lat="43.77377" lon="7.25745">
        <ele>745.420464</ele>
        <time>2012-03-10T14:59:22Z</time>
      </trkpt>
      <trkpt lat="43.77373" lon="7.25733">
        <ele>750.420437</ele>
        <time>2012-03-10T14:59:28Z</time>
      </trkpt>
      <trkpt lat="43.77372" lon="7.2573">
        <ele>751.420425</ele>
        <time>2012-03-10T14:59:30Z</time>
      </trkpt>
      <trkpt lat="43.77377" lon="7.25709">
        <ele>752.420391</ele>
        <time>2012-03-10T15:00:10Z</time>
      </trkpt>
      <trkpt lat="43.77376" lon="7.25708">
        <ele>752.420387</ele>
        <time>2012-03-10T15:00:12Z</time>
      </trkpt>
      <trkpt lat="43.77369" lon="7.25701">
        <ele>750.420364</ele>
        <time>2012-03-10T15:01:18Z</time>
      </trkpt>
      <trkpt lat="43.77368" lon="7.257">
        <ele>750.420361</ele>
        <time>2012-03-10T15:01:20Z</time>
      </trkpt>
      <trkpt lat="43.77362" lon="7.25689">
        <ele>754.420326</ele>
        <time>2012-03-10T15:01:46Z</time>
      </trkpt>
      <trkpt lat="43.77354" lon="7.25684">
        <ele>756.420311</ele>
        <time>2012-03-10T15:02:05Z</time>
      </trkpt>
      <trkpt lat="43.77351" lon="7.25683">
        <ele>756.420303</ele>
        <time>2012-03-10T15:02:11Z</time>
      </trkpt>
      <trkpt lat="43.77342" lon="7.25674">
        <ele>758.420269</ele>
        <time>2012-03-10T15:02:27Z</time>
      </trkpt>
      <trkpt lat="43.77338" lon="7.25662">
        <ele>759.420238</ele>
        <time>2012-03-10T15:02:40Z</time>
      </trkpt>
      <trkpt lat="43.77337" lon="7.25647">
        <ele>761.420204</ele>
        <time>2012-03-10T15:02:57Z</time>
      </trkpt>
      <trkpt lat="43.77334" lon="7.25634">
        <ele>762.420174</ele>
        <time>2012-03-10T15:03:34Z</time>
      </trkpt>
      <trkpt lat="43.77325" lon="7.25625">
        <ele>768.420139</ele>
        <time>2012-03-10T15:04:01Z</time>
      </trkpt>
      <trkpt lat="43.7732" lon="7.25614">
        <ele>770.420113</ele>
        <time>2012-03-10T15:04:19Z</time>
      </trkpt>
      <trkpt lat="43.77313" lon="7.25605">
        <ele>778.420082</ele>
        <time>2012-03-10T15:05:01Z</time>
      </trkpt>
      <trkpt lat="43.77309" lon="7.25592">
        <ele>780.420052</ele>
        <time>2012-03-10T15:05:25Z</time>
      </trkpt>
      <trkpt lat="43.77307" lon="7.2558">
        <ele>782.420021</ele>
        <time>2012-03-10T15:05:43Z</time>
      </trkpt>
      <trkpt lat="43.77303" lon="7.25569">
        <ele>783.419994</ele>
        <time>2012-03-10T15:06:01Z</time>
      </trkpt>
      <trkpt lat="43.77299" lon="7.25556">
        <ele>786.41996</ele>
        <time>2012-03-10T15:06:20Z</time>
      </trkpt>
      <trkpt lat="43.77298" lon="7.25556">
        <ele>786.41996</ele>
        <time>2012-03-10T15:06:22Z</time>
      </trkpt>
      <trkpt lat="43.7729" lon="7.25549">
        <ele>790.419937</ele>
        <time>2012-03-10T15:06:49Z</time>
      </trkpt>
      <trkpt lat="43.77289" lon="7.25548">
        <ele>790.41993</ele>
        <time>2012-03-10T15:06:51Z</time>
      </trkpt>
      <trkpt lat="43.77282" lon="7.25539">
        <ele>792.419899</ele>
        <time>2012-03-10T15:07:11Z</time>
      </trkpt>
      <trkpt lat="43.77276" lon="7.25529">
        <ele>794.419872</ele>
        <time>2012-03-10T15:07:25Z</time>
      </trkpt>
      <trkpt lat="43.77271" lon="7.25518">
        <ele>798.419846</ele>
        <time>2012-03-10T15:07:48Z</time>
      </trkpt>
      <trkpt lat="43.77263" lon="7.25513">
        <ele>801.419823</ele>
        <time>2012-03-10T15:08:13Z</time>
      </trkpt>
      <trkpt lat="43.77262" lon="7.25513">
        <ele>801.419823</ele>
        <time>2012-03-10T15:08:14Z</time>
      </trkpt>
      <trkpt lat="43.77253" lon="7.25508">
        <ele>809.4198</ele>
        <time>2012-03-10T15:09:03Z</time>
      </trkpt>
      <trkpt lat="43.77248" lon="7.25497">
        <ele>812.419765</ele>
        <time>2012-03-10T15:09:21Z</time>
      </trkpt>
      <trkpt lat="43.77244" lon="7.25486">
        <ele>812.419739</ele>
        <time>2012-03-10T15:09:36Z</time>
      </trkpt>
      <trkpt lat="43.77238" lon="7.25474">
        <ele>815.419701</ele>
        <time>2012-03-10T15:09:52Z</time>
      </trkpt>
      <trkpt lat="43.77238" lon="7.25462">
        <ele>817.419678</ele>
        <time>2012-03-10T15:10:05Z</time>
      </trkpt>
      <trkpt lat="43.77231" lon="7.25452">
        <ele>823.419651</ele>
        <time>2012-03-10T15:10:29Z</time>
      </trkpt>
      <trkpt lat="43.77223" lon="7.25444">
        <ele>826.419624</ele>
        <time>2012-03-10T15:10:49Z</time>
      </trkpt>
      <trkpt lat="43.7723" lon="7.25424">
        <ele>841.419586</ele>
        <time>2012-03-10T15:20:06Z</time>
      </trkpt>
      <trkpt lat="43.77239" lon="7.25418">
        <ele>839.419586</ele>
        <time>2012-03-10T15:20:12Z</time>
      </trkpt>
      <trkpt lat="43.7725" lon="7.25412">
        <ele>838.41959</ele>
        <time>2012-03-10T15:20:20Z</time>
      </trkpt>
      <trkpt lat="43.77261" lon="7.25402">
        <ele>839.419582</ele>
        <time>2012-03-10T15:20:29Z</time>
      </trkpt>
      <trkpt lat="43.77268" lon="7.25395">
        <ele>838.419579</ele>
        <time>2012-03-10T15:20:34Z</time>
      </trkpt>
      <trkpt lat="43.77278" lon="7.25392">
        <ele>839.419582</ele>
        <time>2012-03-10T15:20:54Z</time>
      </trkpt>
      <trkpt lat="43.77288" lon="7.25393">
        <ele>838.419601</ele>
        <time>2012-03-10T15:20:59Z</time>
      </trkpt>
      <trkpt lat="43.77299" lon="7.25395">
        <ele>839.419621</ele>
        <time>2012-03-10T15:21:03Z</time>
      </trkpt>
      <trkpt lat="43.77304" lon="7.25396">
        <ele>839.419624</ele>
        <time>2012-03-10T15:21:05Z</time>
      </trkpt>
      <trkpt lat="43.77315" lon="7.25394">
        <ele>839.41964</ele>
        <time>2012-03-10T15:21:09Z</time>
      </trkpt>
      <trkpt lat="43.77326" lon="7.25392">
        <ele>839.419651</ele>
        <time>2012-03-10T15:21:13Z</time>
      </trkpt>
      <trkpt lat="43.77335" lon="7.25389">
        <ele>839.419655</ele>
        <time>2012-03-10T15:21:16Z</time>
      </trkpt>
      <trkpt lat="43.77344" lon="7.25384">
        <ele>840.419655</ele>
        <time>2012-03-10T15:21:19Z</time>
      </trkpt>
      <trkpt lat="43.77347" lon="7.25383">
        <ele>840.419662</ele>
        <time>2012-03-10T15:21:20Z</time>
      </trkpt>
      <trkpt lat="43.77357" lon="7.25377">
        <ele>840.419662</ele>
        <time>2012-03-10T15:21:24Z</time>
      </trkpt>
      <trkpt lat="43.77366" lon="7.25372">
        <ele>840.419662</ele>
        <time>2012-03-10T15:21:28Z</time>
      </trkpt>
      <trkpt lat="43.77378" lon="7.25366">
        <ele>841.41967</ele>
        <time>2012-03-10T15:21:35Z</time>
      </trkpt>
      <trkpt lat="43.77379" lon="7.25366">
        <ele>840.41967</ele>
        <time>2012-03-10T15:21:36Z</time>
      </trkpt>
      <trkpt lat="43.77389" lon="7.25363">
        <ele>840.419678</ele>
        <time>2012-03-10T15:21:42Z</time>
      </trkpt>
      <trkpt lat="43.77399" lon="7.25361">
        <ele>838.419685</ele>
        <time>2012-03-10T15:21:48Z</time>
      </trkpt>
      <trkpt lat="43.77405" lon="7.25362">
        <ele>837.419693</ele>
        <time>2012-03-10T15:21:51Z</time>
      </trkpt>
      <trkpt lat="43.77421" lon="7.25357">
        <ele>837.419708</ele>
        <time>2012-03-10T15:22:00Z</time>
      </trkpt>
      <trkpt lat="43.77434" lon="7.2535">
        <ele>836.419708</ele>
        <time>2012-03-10T15:22:17Z</time>
      </trkpt>
      <trkpt lat="43.77445" lon="7.25341">
        <ele>836.419708</ele>
        <time>2012-03-10T15:22:21Z</time>
      </trkpt>
      <trkpt lat="43.77456" lon="7.25336">
        <ele>836.419708</ele>
        <time>2012-03-10T15:22:24Z</time>
      </trkpt>
      <trkpt lat="43.77463" lon="7.25334">
        <ele>835.419716</ele>
        <time>2012-03-10T15:22:26Z</time>
      </trkpt>
      <trkpt lat="43.77472" lon="7.25334">
        <ele>834.419731</ele>
        <time>2012-03-10T15:22:29Z</time>
      </trkpt>
      <trkpt lat="43.77482" lon="7.25334">
        <ele>833.419743</ele>
        <time>2012-03-10T15:22:33Z</time>
      </trkpt>
      <trkpt lat="43.77488" lon="7.25336">
        <ele>830.419754</ele>
        <time>2012-03-10T15:22:52Z</time>
      </trkpt>
      <trkpt lat="43.77497" lon="7.25327">
        <ele>822.41975</ele>
        <time>2012-03-10T15:23:38Z</time>
      </trkpt>
      <trkpt lat="43.77505" lon="7.25323">
        <ele>822.419746</ele>
        <time>2012-03-10T15:23:40Z</time>
      </trkpt>
      <trkpt lat="43.77515" lon="7.25313">
        <ele>822.419746</ele>
        <time>2012-03-10T15:23:43Z</time>
      </trkpt>
      <trkpt lat="43.77525" lon="7.25305">
        <ele>822.419743</ele>
        <time>2012-03-10T15:23:46Z</time>
      </trkpt>
      <trkpt lat="43.77534" lon="7.25303">
        <ele>821.419746</ele>
        <time>2012-03-10T15:23:49Z</time>
      </trkpt>
      <trkpt lat="43.77547" lon="7.253">
        <ele>821.419762</ele>
        <time>2012-03-10T15:24:00Z</time>
      </trkpt>
      <trkpt lat="43.77557" lon="7.25294">
        <ele>819.419762</ele>
        <time>2012-03-10T15:24:05Z</time>
      </trkpt>
      <trkpt lat="43.77572" lon="7.25282">
        <ele>816.419762</ele>
        <time>2012-03-10T15:24:14Z</time>
      </trkpt>
      <trkpt lat="43.77581" lon="7.25275">
        <ele>814.419754</ele>
        <time>2012-03-10T15:24:20Z</time>
      </trkpt>
      <trkpt lat="43.77582" lon="7.25268">
        <ele>812.419739</ele>
        <time>2012-03-10T15:24:23Z</time>
      </trkpt>
      <trkpt lat="43.77586" lon="7.25257">
        <ele>809.419724</ele>
        <time>2012-03-10T15:24:30Z</time>
      </trkpt>
      <trkpt lat="43.7759" lon="7.25244">
        <ele>804.419701</ele>
        <time>2012-03-10T15:24:39Z</time>
      </trkpt>
      <trkpt lat="43.77596" lon="7.25235">
        <ele>794.419689</ele>
        <time>2012-03-10T15:24:51Z</time>
      </trkpt>
      <trkpt lat="43.77602" lon="7.25224">
        <ele>778.419678</ele>
        <time>2012-03-10T15:25:42Z</time>
      </trkpt>
      <trkpt lat="43.77593" lon="7.25218">
        <ele>771.419651</ele>
        <time>2012-03-10T15:26:17Z</time>
      </trkpt>
      <trkpt lat="43.7759" lon="7.25206">
        <ele>771.419624</ele>
        <time>2012-03-10T15:26:21Z</time>
      </trkpt>
      <trkpt lat="43.77591" lon="7.25192">
        <ele>771.419598</ele>
        <time>2012-03-10T15:26:25Z</time>
      </trkpt>
      <trkpt lat="43.77591" lon="7.2518">
        <ele>771.419567</ele>
        <time>2012-03-10T15:26:29Z</time>
      </trkpt>
      <trkpt lat="43.77598" lon="7.25168">
        <ele>770.419552</ele>
        <time>2012-03-10T15:26:36Z</time>
      </trkpt>
      <trkpt lat="43.77606" lon="7.25163">
        <ele>771.419556</ele>
        <time>2012-03-10T15:26:40Z</time>
      </trkpt>
      <trkpt lat="43.77615" lon="7.25155">
        <ele>771.419544</ele>
        <time>2012-03-10T15:26:45Z</time>
      </trkpt>
      <trkpt lat="43.77617" lon="7.25141">
        <ele>771.419521</ele>
        <time>2012-03-10T15:26:50Z</time>
      </trkpt>
      <trkpt lat="43.77625" lon="7.25134">
        <ele>766.419518</ele>
        <time>2012-03-10T15:27:16Z</time>
      </trkpt>
      <trkpt lat="43.77634" lon="7.25138">
        <ele>764.41954</ele>
        <time>2012-03-10T15:27:24Z</time>
      </trkpt>
      <trkpt lat="43.77641" lon="7.25128">
        <ele>763.419525</ele>
        <time>2012-03-10T15:27:31Z</time>
      </trkpt>
      <trkpt lat="43.77644" lon="7.25113">
        <ele>761.419498</ele>
        <time>2012-03-10T15:27:36Z</time>
      </trkpt>
      <trkpt lat="43.77653" lon="7.25103">
        <ele>759.419495</ele>
        <time>2012-03-10T15:27:40Z</time>
      </trkpt>
      <trkpt lat="43.77664" lon="7.251">
        <ele>758.419502</ele>
        <time>2012-03-10T15:27:43Z</time>
      </trkpt>
      <trkpt lat="43.77677" lon="7.25096">
        <ele>758.419506</ele>
        <time>2012-03-10T15:27:46Z</time>
      </trkpt>
      <trkpt lat="43.77681" lon="7.25094">
        <ele>758.41951</ele>
        <time>2012-03-10T15:27:47Z</time>
      </trkpt>
      <trkpt lat="43.7769" lon="7.25087">
        <ele>757.41951</ele>
        <time>2012-03-10T15:27:50Z</time>
      </trkpt>
      <trkpt lat="43.77695" lon="7.25081">
        <ele>754.419502</ele>
        <time>2012-03-10T15:27:54Z</time>
      </trkpt>
      <trkpt lat="43.77705" lon="7.25069">
        <ele>732.419491</ele>
        <time>2012-03-10T15:28:50Z</time>
      </trkpt>
      <trkpt lat="43.77712" lon="7.25058">
        <ele>730.419472</ele>
        <time>2012-03-10T15:28:52Z</time>
      </trkpt>
      <trkpt lat="43.77717" lon="7.25048">
        <ele>729.419464</ele>
        <time>2012-03-10T15:28:54Z</time>
      </trkpt>
      <trkpt lat="43.77722" lon="7.25037">
        <ele>726.419445</ele>
        <time>2012-03-10T15:28:57Z</time>
      </trkpt>
      <trkpt lat="43.77727" lon="7.25026">
        <ele>725.41943</ele>
        <time>2012-03-10T15:29:04Z</time>
      </trkpt>
      <trkpt lat="43.77731" lon="7.25012">
        <ele>725.419407</ele>
        <time>2012-03-10T15:29:07Z</time>
      </trkpt>
      <trkpt lat="43.77734" lon="7.25005">
        <ele>725.419388</ele>
        <time>2012-03-10T15:29:09Z</time>
      </trkpt>
      <trkpt lat="43.77742" lon="7.24996">
        <ele>725.419384</ele>
        <time>2012-03-10T15:29:13Z</time>
      </trkpt>
      <trkpt lat="43.77751" lon="7.24996">
        <ele>726.419403</ele>
        <time>2012-03-10T15:29:16Z</time>
      </trkpt>
      <trkpt lat="43.77753" lon="7.24996">
        <ele>726.419403</ele>
        <time>2012-03-10T15:29:21Z</time>
      </trkpt>
      <trkpt lat="43.77764" lon="7.2498">
        <ele>723.41938</ele>
        <time>2012-03-10T15:29:25Z</time>
      </trkpt>
      <trkpt lat="43.7777" lon="7.24977">
        <ele>721.419388</ele>
        <time>2012-03-10T15:29:27Z</time>
      </trkpt>
      <trkpt lat="43.77781" lon="7.24975">
        <ele>717.419395</ele>
        <time>2012-03-10T15:29:31Z</time>
      </trkpt>
      <trkpt lat="43.77787" lon="7.24959">
        <ele>710.419373</ele>
        <time>2012-03-10T15:29:40Z</time>
      </trkpt>
      <trkpt lat="43.77794" lon="7.24949">
        <ele>706.419357</ele>
        <time>2012-03-10T15:29:48Z</time>
      </trkpt>
      <trkpt lat="43.77802" lon="7.24939">
        <ele>702.41935</ele>
        <time>2012-03-10T15:29:57Z</time>
      </trkpt>
      <trkpt lat="43.77816" lon="7.24939">
        <ele>698.419373</ele>
        <time>2012-03-10T15:30:05Z</time>
      </trkpt>
      <trkpt lat="43.77813" lon="7.24924">
        <ele>689.419334</ele>
        <time>2012-03-10T15:30:21Z</time>
      </trkpt>
      <trkpt lat="43.77801" lon="7.24914">
        <ele>688.419296</ele>
        <time>2012-03-10T15:30:24Z</time>
      </trkpt>
      <trkpt lat="43.77792" lon="7.24907">
        <ele>686.419266</ele>
        <time>2012-03-10T15:30:26Z</time>
      </trkpt>
      <trkpt lat="43.77783" lon="7.24901">
        <ele>685.419243</ele>
        <time>2012-03-10T15:30:28Z</time>
      </trkpt>
      <trkpt lat="43.77772" lon="7.249">
        <ele>684.419224</ele>
        <time>2012-03-10T15:30:31Z</time>
      </trkpt>
      <trkpt lat="43.77769" lon="7.249">
        <ele>683.419224</ele>
        <time>2012-03-10T15:30:36Z</time>
      </trkpt>
      <trkpt lat="43.77761" lon="7.24906">
        <ele>677.419228</ele>
        <time>2012-03-10T15:31:15Z</time>
      </trkpt>
      <trkpt lat="43.77752" lon="7.24899">
        <ele>673.419197</ele>
        <time>2012-03-10T15:32:34Z</time>
      </trkpt>
      <trkpt lat="43.77743" lon="7.24903">
        <ele>672.419193</ele>
        <time>2012-03-10T15:32:40Z</time>
      </trkpt>
      <trkpt lat="43.77727" lon="7.24911">
        <ele>673.419186</ele>
        <time>2012-03-10T15:32:46Z</time>
      </trkpt>
      <trkpt lat="43.77718" lon="7.24918">
        <ele>673.419189</ele>
        <time>2012-03-10T15:32:50Z</time>
      </trkpt>
      <trkpt lat="43.77705" lon="7.24925">
        <ele>673.419182</ele>
        <time>2012-03-10T15:32:55Z</time>
      </trkpt>
      <trkpt lat="43.77696" lon="7.24929">
        <ele>673.419182</ele>
        <time>2012-03-10T15:32:59Z</time>
      </trkpt>
      <trkpt lat="43.77686" lon="7.24932">
        <ele>673.419174</ele>
        <time>2012-03-10T15:33:03Z</time>
      </trkpt>
      <trkpt lat="43.77675" lon="7.24927">
        <ele>673.419151</ele>
        <time>2012-03-10T15:33:07Z</time>
      </trkpt>
      <trkpt lat="43.77666" lon="7.24921">
        <ele>673.419125</ele>
        <time>2012-03-10T15:33:10Z</time>
      </trkpt>
      <trkpt lat="43.77657" lon="7.24918">
        <ele>674.419106</ele>
        <time>2012-03-10T15:33:13Z</time>
      </trkpt>
      <trkpt lat="43.77645" lon="7.24918">
        <ele>675.41909</ele>
        <time>2012-03-10T15:33:17Z</time>
      </trkpt>
      <trkpt lat="43.77634" lon="7.24917">
        <ele>676.419071</ele>
        <time>2012-03-10T15:33:21Z</time>
      </trkpt>
      <trkpt lat="43.77624" lon="7.24917">
        <ele>677.41906</ele>
        <time>2012-03-10T15:33:24Z</time>
      </trkpt>
      <trkpt lat="43.77614" lon="7.24917">
        <ele>677.419044</ele>
        <time>2012-03-10T15:33:27Z</time>
      </trkpt>
      <trkpt lat="43.77605" lon="7.24918">
        <ele>677.419037</ele>
        <time>2012-03-10T15:33:29Z</time>
      </trkpt>
      <trkpt lat="43.77593" lon="7.2492">
        <ele>676.419022</ele>
        <time>2012-03-10T15:33:32Z</time>
      </trkpt>
      <trkpt lat="43.77581" lon="7.24923">
        <ele>677.419014</ele>
        <time>2012-03-10T15:33:35Z</time>
      </trkpt>
      <trkpt lat="43.7757" lon="7.24927">
        <ele>677.419003</ele>
        <time>2012-03-10T15:33:38Z</time>
      </trkpt>
      <trkpt lat="43.77566" lon="7.24927">
        <ele>677.419003</ele>
        <time>2012-03-10T15:33:39Z</time>
      </trkpt>
      <trkpt lat="43.77556" lon="7.24931">
        <ele>677.418991</ele>
        <time>2012-03-10T15:33:42Z</time>
      </trkpt>
      <trkpt lat="43.7755" lon="7.24932">
        <ele>677.418983</ele>
        <time>2012-03-10T15:33:44Z</time>
      </trkpt>
      <trkpt lat="43.77541" lon="7.24935">
        <ele>677.41898</ele>
        <time>2012-03-10T15:33:47Z</time>
      </trkpt>
      <trkpt lat="43.77531" lon="7.24937">
        <ele>678.418972</ele>
        <time>2012-03-10T15:33:50Z</time>
      </trkpt>
      <trkpt lat="43.77528" lon="7.24938">
        <ele>678.418968</ele>
        <time>2012-03-10T15:33:51Z</time>
      </trkpt>
      <trkpt lat="43.77518" lon="7.2494">
        <ele>678.418961</ele>
        <time>2012-03-10T15:33:54Z</time>
      </trkpt>
      <trkpt lat="43.77507" lon="7.24944">
        <ele>678.418953</ele>
        <time>2012-03-10T15:33:57Z</time>
      </trkpt>
      <trkpt lat="43.77495" lon="7.24947">
        <ele>679.418945</ele>
        <time>2012-03-10T15:34:00Z</time>
      </trkpt>
      <trkpt lat="43.77483" lon="7.24948">
        <ele>681.41893</ele>
        <time>2012-03-10T15:34:03Z</time>
      </trkpt>
      <trkpt lat="43.7748" lon="7.24949">
        <ele>681.41893</ele>
        <time>2012-03-10T15:34:04Z</time>
      </trkpt>
      <trkpt lat="43.7747" lon="7.24951">
        <ele>681.418915</ele>
        <time>2012-03-10T15:34:07Z</time>
      </trkpt>
      <trkpt lat="43.77461" lon="7.24952">
        <ele>681.418907</ele>
        <time>2012-03-10T15:34:10Z</time>
      </trkpt>
      <trkpt lat="43.7745" lon="7.24952">
        <ele>681.418896</ele>
        <time>2012-03-10T15:34:14Z</time>
      </trkpt>
      <trkpt lat="43.77439" lon="7.24952">
        <ele>680.41888</ele>
        <time>2012-03-10T15:34:19Z</time>
      </trkpt>
      <trkpt lat="43.77432" lon="7.24954">
        <ele>679.418877</ele>
        <time>2012-03-10T15:34:23Z</time>
      </trkpt>
      <trkpt lat="43.77423" lon="7.24957">
        <ele>679.418861</ele>
        <time>2012-03-10T15:34:29Z</time>
      </trkpt>
      <trkpt lat="43.77411" lon="7.24964">
        <ele>681.418865</ele>
        <time>2012-03-10T15:34:37Z</time>
      </trkpt>
      <trkpt lat="43.7741" lon="7.24965">
        <ele>681.418865</ele>
        <time>2012-03-10T15:34:38Z</time>
      </trkpt>
      <trkpt lat="43.77395" lon="7.24966">
        <ele>681.418846</ele>
        <time>2012-03-10T15:34:48Z</time>
      </trkpt>
      <trkpt lat="43.77385" lon="7.24966">
        <ele>683.418831</ele>
        <time>2012-03-10T15:34:53Z</time>
      </trkpt>
      <trkpt lat="43.77383" lon="7.24965">
        <ele>684.418831</ele>
        <time>2012-03-10T15:34:54Z</time>
      </trkpt>
      <trkpt lat="43.77374" lon="7.24965">
        <ele>684.418816</ele>
        <time>2012-03-10T15:34:59Z</time>
      </trkpt>
      <trkpt lat="43.77361" lon="7.24968">
        <ele>687.418804</ele>
        <time>2012-03-10T15:35:07Z</time>
      </trkpt>
      <trkpt lat="43.77353" lon="7.24971">
        <ele>688.418797</ele>
        <time>2012-03-10T15:35:13Z</time>
      </trkpt>
      <trkpt lat="43.77343" lon="7.24972">
        <ele>689.418785</ele>
        <time>2012-03-10T15:35:19Z</time>
      </trkpt>
      <trkpt lat="43.77332" lon="7.24972">
        <ele>689.41877</ele>
        <time>2012-03-10T15:35:25Z</time>
      </trkpt>
      <trkpt lat="43.77321" lon="7.24972">
        <ele>691.418755</ele>
        <time>2012-03-10T15:35:33Z</time>
      </trkpt>
      <trkpt lat="43.77312" lon="7.24969">
        <ele>689.418739</ele>
        <time>2012-03-10T15:37:17Z</time>
      </trkpt>
      <trkpt lat="43.77302" lon="7.2497">
        <ele>690.418728</ele>
        <time>2012-03-10T15:37:26Z</time>
      </trkpt>
      <trkpt lat="43.77293" lon="7.24971">
        <ele>690.418716</ele>
        <time>2012-03-10T15:37:31Z</time>
      </trkpt>
      <trkpt lat="43.77283" lon="7.24973">
        <ele>691.418701</ele>
        <time>2012-03-10T15:37:37Z</time>
      </trkpt>
      <trkpt lat="43.77269" lon="7.24974">
        <ele>692.41869</ele>
        <time>2012-03-10T15:37:46Z</time>
      </trkpt>
      <trkpt lat="43.7726" lon="7.24975">
        <ele>693.418682</ele>
        <time>2012-03-10T15:37:52Z</time>
      </trkpt>
      <trkpt lat="43.77249" lon="7.24977">
        <ele>693.418671</ele>
        <time>2012-03-10T15:37:58Z</time>
      </trkpt>
      <trkpt lat="43.77231" lon="7.24981">
        <ele>693.418652</ele>
        <time>2012-03-10T15:38:10Z</time>
      </trkpt>
      <trkpt lat="43.7723" lon="7.24981">
        <ele>693.418652</ele>
        <time>2012-03-10T15:38:13Z</time>
      </trkpt>
      <trkpt lat="43.77215" lon="7.24982">
        <ele>696.418629</ele>
        <time>2012-03-10T15:38:47Z</time>
      </trkpt>
      <trkpt lat="43.77202" lon="7.24985">
        <ele>697.418621</ele>
        <time>2012-03-10T15:38:50Z</time>
      </trkpt>
      <trkpt lat="43.77191" lon="7.24987">
        <ele>698.41861</ele>
        <time>2012-03-10T15:38:52Z</time>
      </trkpt>
      <trkpt lat="43.77185" lon="7.24987">
        <ele>699.418602</ele>
        <time>2012-03-10T15:38:53Z</time>
      </trkpt>
      <trkpt lat="43.77174" lon="7.24989">
        <ele>699.418591</ele>
        <time>2012-03-10T15:38:55Z</time>
      </trkpt>
      <trkpt lat="43.77163" lon="7.24989">
        <ele>700.418579</ele>
        <time>2012-03-10T15:38:57Z</time>
      </trkpt>
      <trkpt lat="43.77153" lon="7.2499">
        <ele>701.418564</ele>
        <time>2012-03-10T15:38:59Z</time>
      </trkpt>
      <trkpt lat="43.77142" lon="7.24991">
        <ele>701.418552</ele>
        <time>2012-03-10T15:39:01Z</time>
      </trkpt>
      <trkpt lat="43.77132" lon="7.24992">
        <ele>702.418537</ele>
        <time>2012-03-10T15:39:03Z</time>
      </trkpt>
      <trkpt lat="43.77122" lon="7.24992">
        <ele>702.418526</ele>
        <time>2012-03-10T15:39:05Z</time>
      </trkpt>
      <trkpt lat="43.77112" lon="7.24992">
        <ele>702.418514</ele>
        <time>2012-03-10T15:39:07Z</time>
      </trkpt>
      <trkpt lat="43.77103" lon="7.24992">
        <ele>701.418503</ele>
        <time>2012-03-10T15:39:09Z</time>
      </trkpt>
      <trkpt lat="43.77094" lon="7.24992">
        <ele>700.418488</ele>
        <time>2012-03-10T15:39:11Z</time>
      </trkpt>
      <trkpt lat="43.77084" lon="7.24993">
        <ele>700.418472</ele>
        <time>2012-03-10T15:39:13Z</time>
      </trkpt>
      <trkpt lat="43.7708" lon="7.24991">
        <ele>700.418465</ele>
        <time>2012-03-10T15:39:14Z</time>
      </trkpt>
      <trkpt lat="43.77068" lon="7.24986">
        <ele>701.418434</ele>
        <time>2012-03-10T15:39:17Z</time>
      </trkpt>
      <trkpt lat="43.77056" lon="7.24979">
        <ele>700.418411</ele>
        <time>2012-03-10T15:39:20Z</time>
      </trkpt>
      <trkpt lat="43.77047" lon="7.24973">
        <ele>699.418385</ele>
        <time>2012-03-10T15:39:23Z</time>
      </trkpt>
      <trkpt lat="43.7703" lon="7.24965">
        <ele>696.418339</ele>
        <time>2012-03-10T15:40:40Z</time>
      </trkpt>
      <trkpt lat="43.7702" lon="7.24968">
        <ele>698.418335</ele>
        <time>2012-03-10T15:40:48Z</time>
      </trkpt>
      <trkpt lat="43.77008" lon="7.24978">
        <ele>700.418339</ele>
        <time>2012-03-10T15:41:01Z</time>
      </trkpt>
      <trkpt lat="43.76999" lon="7.24983">
        <ele>700.418335</ele>
        <time>2012-03-10T15:41:04Z</time>
      </trkpt>
      <trkpt lat="43.76987" lon="7.24989">
        <ele>701.418335</ele>
        <time>2012-03-10T15:41:07Z</time>
      </trkpt>
      <trkpt lat="43.76975" lon="7.24994">
        <ele>701.418327</ele>
        <time>2012-03-10T15:41:10Z</time>
      </trkpt>
      <trkpt lat="43.76966" lon="7.24998">
        <ele>700.418324</ele>
        <time>2012-03-10T15:41:12Z</time>
      </trkpt>
      <trkpt lat="43.76954" lon="7.25001">
        <ele>700.418312</ele>
        <time>2012-03-10T15:41:15Z</time>
      </trkpt>
      <trkpt lat="43.76938" lon="7.25005">
        <ele>698.418304</ele>
        <time>2012-03-10T15:41:26Z</time>
      </trkpt>
      <trkpt lat="43.76929" lon="7.25006">
        <ele>691.418289</ele>
        <time>2012-03-10T15:41:36Z</time>
      </trkpt>
      <trkpt lat="43.76921" lon="7.25013">
        <ele>692.418293</ele>
        <time>2012-03-10T15:41:56Z</time>
      </trkpt>
      <trkpt lat="43.7691" lon="7.25019">
        <ele>692.418293</ele>
        <time>2012-03-10T15:41:59Z</time>
      </trkpt>
      <trkpt lat="43.76898" lon="7.25026">
        <ele>693.418289</ele>
        <time>2012-03-10T15:42:02Z</time>
      </trkpt>
      <trkpt lat="43.76886" lon="7.2503">
        <ele>693.418278</ele>
        <time>2012-03-10T15:42:04Z</time>
      </trkpt>
      <trkpt lat="43.76872" lon="7.25032">
        <ele>694.418266</ele>
        <time>2012-03-10T15:42:06Z</time>
      </trkpt>
      <trkpt lat="43.7686" lon="7.25033">
        <ele>695.418251</ele>
        <time>2012-03-10T15:42:08Z</time>
      </trkpt>
      <trkpt lat="43.76851" lon="7.25036">
        <ele>694.418247</ele>
        <time>2012-03-10T15:42:11Z</time>
      </trkpt>
      <trkpt lat="43.76842" lon="7.25047">
        <ele>691.418255</ele>
        <time>2012-03-10T15:42:21Z</time>
      </trkpt>
      <trkpt lat="43.76833" lon="7.25047">
        <ele>691.418243</ele>
        <time>2012-03-10T15:42:24Z</time>
      </trkpt>
      <trkpt lat="43.76819" lon="7.25044">
        <ele>692.418221</ele>
        <time>2012-03-10T15:42:27Z</time>
      </trkpt>
      <trkpt lat="43.76809" lon="7.25041">
        <ele>692.418198</ele>
        <time>2012-03-10T15:42:29Z</time>
      </trkpt>
      <trkpt lat="43.76804" lon="7.25039">
        <ele>692.41819</ele>
        <time>2012-03-10T15:42:30Z</time>
      </trkpt>
      <trkpt lat="43.76794" lon="7.25035">
        <ele>692.418163</ele>
        <time>2012-03-10T15:42:32Z</time>
      </trkpt>
      <trkpt lat="43.76789" lon="7.25033">
        <ele>691.418152</ele>
        <time>2012-03-10T15:42:33Z</time>
      </trkpt>
      <trkpt lat="43.76777" lon="7.25032">
        <ele>691.418133</ele>
        <time>2012-03-10T15:42:36Z</time>
      </trkpt>
      <trkpt lat="43.76768" lon="7.25034">
        <ele>681.418129</ele>
        <time>2012-03-10T15:43:36Z</time>
      </trkpt>
      <trkpt lat="43.76759" lon="7.25038">
        <ele>680.418125</ele>
        <time>2012-03-10T15:43:39Z</time>
      </trkpt>
      <trkpt lat="43.76755" lon="7.2504">
        <ele>679.418121</ele>
        <time>2012-03-10T15:43:40Z</time>
      </trkpt>
      <trkpt lat="43.76743" lon="7.25046">
        <ele>678.418121</ele>
        <time>2012-03-10T15:43:43Z</time>
      </trkpt>
      <trkpt lat="43.76732" lon="7.25049">
        <ele>677.418106</ele>
        <time>2012-03-10T15:43:46Z</time>
      </trkpt>
      <trkpt lat="43.76722" lon="7.2505">
        <ele>675.418098</ele>
        <time>2012-03-10T15:43:49Z</time>
      </trkpt>
      <trkpt lat="43.76711" lon="7.2505">
        <ele>674.418083</ele>
        <time>2012-03-10T15:43:52Z</time>
      </trkpt>
      <trkpt lat="43.76699" lon="7.25048">
        <ele>674.418064</ele>
        <time>2012-03-10T15:43:55Z</time>
      </trkpt>
      <trkpt lat="43.76687" lon="7.25049">
        <ele>673.418053</ele>
        <time>2012-03-10T15:43:58Z</time>
      </trkpt>
      <trkpt lat="43.7668" lon="7.25062">
        <ele>671.418068</ele>
        <time>2012-03-10T15:44:01Z</time>
      </trkpt>
      <trkpt lat="43.76676" lon="7.25076">
        <ele>670.418091</ele>
        <time>2012-03-10T15:44:04Z</time>
      </trkpt>
      <trkpt lat="43.7667" lon="7.25087">
        <ele>669.418106</ele>
        <time>2012-03-10T15:44:07Z</time>
      </trkpt>
      <trkpt lat="43.76659" lon="7.25092">
        <ele>668.418102</ele>
        <time>2012-03-10T15:44:10Z</time>
      </trkpt>
      <trkpt lat="43.7665" lon="7.25094">
        <ele>667.418095</ele>
        <time>2012-03-10T15:44:12Z</time>
      </trkpt>
      <trkpt lat="43.76641" lon="7.25095">
        <ele>666.418083</ele>
        <time>2012-03-10T15:44:14Z</time>
      </trkpt>
      <trkpt lat="43.76629" lon="7.25097">
        <ele>666.418072</ele>
        <time>2012-03-10T15:44:17Z</time>
      </trkpt>
      <trkpt lat="43.76625" lon="7.25098">
        <ele>667.418068</ele>
        <time>2012-03-10T15:44:18Z</time>
      </trkpt>
      <trkpt lat="43.76614" lon="7.251">
        <ele>667.418053</ele>
        <time>2012-03-10T15:44:21Z</time>
      </trkpt>
      <trkpt lat="43.76603" lon="7.25102">
        <ele>668.418045</ele>
        <time>2012-03-10T15:44:24Z</time>
      </trkpt>
      <trkpt lat="43.76593" lon="7.25106">
        <ele>669.418037</ele>
        <time>2012-03-10T15:44:27Z</time>
      </trkpt>
      <trkpt lat="43.76582" lon="7.25111">
        <ele>669.418037</ele>
        <time>2012-03-10T15:44:30Z</time>
      </trkpt>
      <trkpt lat="43.76571" lon="7.25118">
        <ele>668.41803</ele>
        <time>2012-03-10T15:44:33Z</time>
      </trkpt>
      <trkpt lat="43.76563" lon="7.25123">
        <ele>667.41803</ele>
        <time>2012-03-10T15:44:35Z</time>
      </trkpt>
      <trkpt lat="43.76554" lon="7.25129">
        <ele>666.418034</ele>
        <time>2012-03-10T15:44:37Z</time>
      </trkpt>
      <trkpt lat="43.76543" lon="7.25132">
        <ele>664.418026</ele>
        <time>2012-03-10T15:44:40Z</time>
      </trkpt>
      <trkpt lat="43.76543" lon="7.25132">
        <ele>664.418026</ele>
        <time>2012-03-10T15:44:42Z</time>
      </trkpt>
      <trkpt lat="43.76529" lon="7.25131">
        <ele>656.418007</ele>
        <time>2012-03-10T15:45:05Z</time>
      </trkpt>
      <trkpt lat="43.7652" lon="7.25129">
        <ele>647.417988</ele>
        <time>2012-03-10T15:45:54Z</time>
      </trkpt>
      <trkpt lat="43.7651" lon="7.25125">
        <ele>646.417965</ele>
        <time>2012-03-10T15:45:57Z</time>
      </trkpt>
      <trkpt lat="43.76499" lon="7.25121">
        <ele>646.417946</ele>
        <time>2012-03-10T15:46:00Z</time>
      </trkpt>
      <trkpt lat="43.76488" lon="7.25117">
        <ele>645.417915</ele>
        <time>2012-03-10T15:46:03Z</time>
      </trkpt>
      <trkpt lat="43.76476" lon="7.25116">
        <ele>646.417904</ele>
        <time>2012-03-10T15:46:06Z</time>
      </trkpt>
      <trkpt lat="43.76467" lon="7.25118">
        <ele>646.417892</ele>
        <time>2012-03-10T15:46:09Z</time>
      </trkpt>
      <trkpt lat="43.76456" lon="7.25119">
        <ele>646.417877</ele>
        <time>2012-03-10T15:46:13Z</time>
      </trkpt>
      <trkpt lat="43.76446" lon="7.2512">
        <ele>644.41787</ele>
        <time>2012-03-10T15:46:16Z</time>
      </trkpt>
      <trkpt lat="43.76443" lon="7.25121">
        <ele>644.417862</ele>
        <time>2012-03-10T15:46:17Z</time>
      </trkpt>
      <trkpt lat="43.76434" lon="7.25125">
        <ele>645.417862</ele>
        <time>2012-03-10T15:46:20Z</time>
      </trkpt>
      <trkpt lat="43.76425" lon="7.25128">
        <ele>644.417854</ele>
        <time>2012-03-10T15:46:23Z</time>
      </trkpt>
      <trkpt lat="43.76415" lon="7.25132">
        <ele>644.41785</ele>
        <time>2012-03-10T15:46:27Z</time>
      </trkpt>
      <trkpt lat="43.76405" lon="7.25137">
        <ele>645.417847</ele>
        <time>2012-03-10T15:46:31Z</time>
      </trkpt>
      <trkpt lat="43.76396" lon="7.25144">
        <ele>645.417847</ele>
        <time>2012-03-10T15:46:35Z</time>
      </trkpt>
      <trkpt lat="43.76387" lon="7.25152">
        <ele>644.417854</ele>
        <time>2012-03-10T15:46:38Z</time>
      </trkpt>
      <trkpt lat="43.76381" lon="7.25157">
        <ele>644.417854</ele>
        <time>2012-03-10T15:46:40Z</time>
      </trkpt>
      <trkpt lat="43.76373" lon="7.25164">
        <ele>644.417862</ele>
        <time>2012-03-10T15:46:43Z</time>
      </trkpt>
      <trkpt lat="43.76371" lon="7.25166">
        <ele>643.417862</ele>
        <time>2012-03-10T15:46:44Z</time>
      </trkpt>
      <trkpt lat="43.76362" lon="7.25177">
        <ele>632.417873</ele>
        <time>2012-03-10T15:47:15Z</time>
      </trkpt>
      <trkpt lat="43.76351" lon="7.25179">
        <ele>629.417862</ele>
        <time>2012-03-10T15:47:25Z</time>
      </trkpt>
      <trkpt lat="43.7634" lon="7.2518">
        <ele>627.41785</ele>
        <time>2012-03-10T15:47:29Z</time>
      </trkpt>
      <trkpt lat="43.76333" lon="7.25171">
        <ele>625.417816</ele>
        <time>2012-03-10T15:47:34Z</time>
      </trkpt>
      <trkpt lat="43.76326" lon="7.25159">
        <ele>622.417786</ele>
        <time>2012-03-10T15:48:25Z</time>
      </trkpt>
      <trkpt lat="43.76318" lon="7.25153">
        <ele>621.417763</ele>
        <time>2012-03-10T15:48:30Z</time>
      </trkpt>
      <trkpt lat="43.76311" lon="7.25145">
        <ele>618.417736</ele>
        <time>2012-03-10T15:48:40Z</time>
      </trkpt>
      <trkpt lat="43.76312" lon="7.2513">
        <ele>616.417706</ele>
        <time>2012-03-10T15:48:44Z</time>
      </trkpt>
      <trkpt lat="43.76309" lon="7.25118">
        <ele>615.417671</ele>
        <time>2012-03-10T15:48:49Z</time>
      </trkpt>
      <trkpt lat="43.76306" lon="7.25105">
        <ele>615.417641</ele>
        <time>2012-03-10T15:49:00Z</time>
      </trkpt>
      <trkpt lat="43.76293" lon="7.25106">
        <ele>613.417625</ele>
        <time>2012-03-10T15:49:08Z</time>
      </trkpt>
      <trkpt lat="43.76284" lon="7.25107">
        <ele>611.417618</ele>
        <time>2012-03-10T15:49:13Z</time>
      </trkpt>
      <trkpt lat="43.76274" lon="7.25107">
        <ele>608.417603</ele>
        <time>2012-03-10T15:49:18Z</time>
      </trkpt>
      <trkpt lat="43.76268" lon="7.25097">
        <ele>596.417576</ele>
        <time>2012-03-10T15:49:55Z</time>
      </trkpt>
      <trkpt lat="43.76261" lon="7.25084">
        <ele>593.417534</ele>
        <time>2012-03-10T15:50:02Z</time>
      </trkpt>
      <trkpt lat="43.76259" lon="7.25079">
        <ele>592.417522</ele>
        <time>2012-03-10T15:50:04Z</time>
      </trkpt>
      <trkpt lat="43.76257" lon="7.25063">
        <ele>590.417488</ele>
        <time>2012-03-10T15:50:08Z</time>
      </trkpt>
      <trkpt lat="43.7626" lon="7.25052">
        <ele>589.417469</ele>
        <time>2012-03-10T15:50:11Z</time>
      </trkpt>
      <trkpt lat="43.76253" lon="7.25042">
        <ele>577.417439</ele>
        <time>2012-03-10T15:50:45Z</time>
      </trkpt>
      <trkpt lat="43.76244" lon="7.25042">
        <ele>577.417427</ele>
        <time>2012-03-10T15:50:48Z</time>
      </trkpt>
      <trkpt lat="43.76238" lon="7.2504">
        <ele>577.417412</ele>
        <time>2012-03-10T15:50:51Z</time>
      </trkpt>
      <trkpt lat="43.76247" lon="7.25037">
        <ele>547.417419</ele>
        <time>2012-03-10T15:52:09Z</time>
      </trkpt>
      <trkpt lat="43.76243" lon="7.25025">
        <ele>546.417389</ele>
        <time>2012-03-10T15:52:16Z</time>
      </trkpt>
      <trkpt lat="43.76235" lon="7.25016">
        <ele>545.417355</ele>
        <time>2012-03-10T15:52:21Z</time>
      </trkpt>
      <trkpt lat="43.76226" lon="7.25012">
        <ele>545.417336</ele>
        <time>2012-03-10T15:52:24Z</time>
      </trkpt>
      <trkpt lat="43.7622" lon="7.25002">
        <ele>545.417305</ele>
        <time>2012-03-10T15:52:29Z</time>
      </trkpt>
      <trkpt lat="43.76211" lon="7.24997">
        <ele>544.417282</ele>
        <time>2012-03-10T15:52:34Z</time>
      </trkpt>
      <trkpt lat="43.76201" lon="7.24995">
        <ele>543.417263</ele>
        <time>2012-03-10T15:52:39Z</time>
      </trkpt>
      <trkpt lat="43.76191" lon="7.24991">
        <ele>542.41724</ele>
        <time>2012-03-10T15:52:45Z</time>
      </trkpt>
      <trkpt lat="43.76182" lon="7.24984">
        <ele>543.417213</ele>
        <time>2012-03-10T15:52:51Z</time>
      </trkpt>
      <trkpt lat="43.76181" lon="7.2498">
        <ele>543.417206</ele>
        <time>2012-03-10T15:52:52Z</time>
      </trkpt>
      <trkpt lat="43.76179" lon="7.24967">
        <ele>541.417175</ele>
        <time>2012-03-10T15:52:56Z</time>
      </trkpt>
      <trkpt lat="43.76178" lon="7.24965">
        <ele>541.417168</ele>
        <time>2012-03-10T15:52:57Z</time>
      </trkpt>
      <trkpt lat="43.76168" lon="7.24958">
        <ele>538.417145</ele>
        <time>2012-03-10T15:53:03Z</time>
      </trkpt>
      <trkpt lat="43.76169" lon="7.24944">
        <ele>537.417114</ele>
        <time>2012-03-10T15:53:08Z</time>
      </trkpt>
      <trkpt lat="43.76174" lon="7.24932">
        <ele>536.417091</ele>
        <time>2012-03-10T15:53:12Z</time>
      </trkpt>
      <trkpt lat="43.76178" lon="7.24917">
        <ele>534.417068</ele>
        <time>2012-03-10T15:53:16Z</time>
      </trkpt>
      <trkpt lat="43.7618" lon="7.24911">
        <ele>532.417061</ele>
        <time>2012-03-10T15:53:18Z</time>
      </trkpt>
      <trkpt lat="43.76174" lon="7.24901">
        <ele>529.41703</ele>
        <time>2012-03-10T15:53:24Z</time>
      </trkpt>
      <trkpt lat="43.76163" lon="7.24897">
        <ele>527.417007</ele>
        <time>2012-03-10T15:53:29Z</time>
      </trkpt>
      <trkpt lat="43.76152" lon="7.24896">
        <ele>526.416985</ele>
        <time>2012-03-10T15:53:32Z</time>
      </trkpt>
      <trkpt lat="43.76142" lon="7.24893">
        <ele>525.416969</ele>
        <time>2012-03-10T15:53:36Z</time>
      </trkpt>
      <trkpt lat="43.7614" lon="7.24878">
        <ele>523.416935</ele>
        <time>2012-03-10T15:53:40Z</time>
      </trkpt>
      <trkpt lat="43.76135" lon="7.24866">
        <ele>520.416901</ele>
        <time>2012-03-10T15:53:45Z</time>
      </trkpt>
      <trkpt lat="43.76131" lon="7.24865">
        <ele>518.416893</ele>
        <time>2012-03-10T15:53:48Z</time>
      </trkpt>
      <trkpt lat="43.76123" lon="7.2487">
        <ele>503.416893</ele>
        <time>2012-03-10T15:54:22Z</time>
      </trkpt>
      <trkpt lat="43.76112" lon="7.24873">
        <ele>501.416885</ele>
        <time>2012-03-10T15:54:26Z</time>
      </trkpt>
      <trkpt lat="43.76102" lon="7.24878">
        <ele>499.416882</ele>
        <time>2012-03-10T15:54:30Z</time>
      </trkpt>
      <trkpt lat="43.76093" lon="7.24882">
        <ele>498.416878</ele>
        <time>2012-03-10T15:54:33Z</time>
      </trkpt>
      <trkpt lat="43.76082" lon="7.24886">
        <ele>498.41687</ele>
        <time>2012-03-10T15:54:37Z</time>
      </trkpt>
      <trkpt lat="43.76077" lon="7.24889">
        <ele>497.416866</ele>
        <time>2012-03-10T15:54:39Z</time>
      </trkpt>
      <trkpt lat="43.76065" lon="7.24895">
        <ele>495.416866</ele>
        <time>2012-03-10T15:54:54Z</time>
      </trkpt>
      <trkpt lat="43.76056" lon="7.249">
        <ele>494.416862</ele>
        <time>2012-03-10T15:54:58Z</time>
      </trkpt>
      <trkpt lat="43.76045" lon="7.24902">
        <ele>492.416855</ele>
        <time>2012-03-10T15:55:02Z</time>
      </trkpt>
      <trkpt lat="43.76033" lon="7.24903">
        <ele>492.41684</ele>
        <time>2012-03-10T15:55:05Z</time>
      </trkpt>
      <trkpt lat="43.76023" lon="7.249">
        <ele>492.416817</ele>
        <time>2012-03-10T15:55:08Z</time>
      </trkpt>
      <trkpt lat="43.76019" lon="7.24891">
        <ele>490.416794</ele>
        <time>2012-03-10T15:55:14Z</time>
      </trkpt>
      <trkpt lat="43.76012" lon="7.24881">
        <ele>472.416763</ele>
        <time>2012-03-10T15:55:47Z</time>
      </trkpt>
      <trkpt lat="43.76011" lon="7.24879">
        <ele>472.416756</ele>
        <time>2012-03-10T15:55:48Z</time>
      </trkpt>
      <trkpt lat="43.76003" lon="7.24871">
        <ele>471.416733</ele>
        <time>2012-03-10T15:55:51Z</time>
      </trkpt>
      <trkpt lat="43.75997" lon="7.24859">
        <ele>471.416695</ele>
        <time>2012-03-10T15:55:53Z</time>
      </trkpt>
      <trkpt lat="43.75991" lon="7.24844">
        <ele>471.416656</ele>
        <time>2012-03-10T15:55:55Z</time>
      </trkpt>
      <trkpt lat="43.75986" lon="7.2483">
        <ele>470.416622</ele>
        <time>2012-03-10T15:55:58Z</time>
      </trkpt>
      <trkpt lat="43.75982" lon="7.24818">
        <ele>469.416588</ele>
        <time>2012-03-10T15:56:02Z</time>
      </trkpt>
      <trkpt lat="43.7598" lon="7.24804">
        <ele>468.416557</ele>
        <time>2012-03-10T15:56:06Z</time>
      </trkpt>
      <trkpt lat="43.7598" lon="7.24804">
        <ele>468.416557</ele>
        <time>2012-03-10T15:56:10Z</time>
      </trkpt>
      <trkpt lat="43.75984" lon="7.24792">
        <ele>464.416538</ele>
        <time>2012-03-10T15:56:16Z</time>
      </trkpt>
      <trkpt lat="43.75983" lon="7.24779">
        <ele>463.416508</ele>
        <time>2012-03-10T15:56:20Z</time>
      </trkpt>
      <trkpt lat="43.75991" lon="7.2477">
        <ele>461.4165</ele>
        <time>2012-03-10T15:56:25Z</time>
      </trkpt>
      <trkpt lat="43.7598" lon="7.24755">
        <ele>459.416451</ele>
        <time>2012-03-10T15:56:40Z</time>
      </trkpt>
      <trkpt lat="43.75971" lon="7.24761">
        <ele>450.416454</ele>
        <time>2012-03-10T15:57:23Z</time>
      </trkpt>
      <trkpt lat="43.7596" lon="7.24763">
        <ele>446.416443</ele>
        <time>2012-03-10T15:57:28Z</time>
      </trkpt>
      <trkpt lat="43.75951" lon="7.24771">
        <ele>445.416451</ele>
        <time>2012-03-10T15:57:33Z</time>
      </trkpt>
      <trkpt lat="43.75948" lon="7.24783">
        <ele>445.41647</ele>
        <time>2012-03-10T15:57:36Z</time>
      </trkpt>
      <trkpt lat="43.75944" lon="7.24795">
        <ele>446.416489</ele>
        <time>2012-03-10T15:57:38Z</time>
      </trkpt>
      <trkpt lat="43.75941" lon="7.24809">
        <ele>446.416512</ele>
        <time>2012-03-10T15:57:40Z</time>
      </trkpt>
      <trkpt lat="43.75937" lon="7.24822">
        <ele>446.416534</ele>
        <time>2012-03-10T15:57:42Z</time>
      </trkpt>
      <trkpt lat="43.75934" lon="7.24834">
        <ele>446.416557</ele>
        <time>2012-03-10T15:57:44Z</time>
      </trkpt>
      <trkpt lat="43.75931" lon="7.24846">
        <ele>445.41658</ele>
        <time>2012-03-10T15:57:46Z</time>
      </trkpt>
      <trkpt lat="43.75928" lon="7.24858">
        <ele>446.416599</ele>
        <time>2012-03-10T15:57:48Z</time>
      </trkpt>
      <trkpt lat="43.75925" lon="7.2487">
        <ele>445.416626</ele>
        <time>2012-03-10T15:57:50Z</time>
      </trkpt>
      <trkpt lat="43.75924" lon="7.24876">
        <ele>445.416634</ele>
        <time>2012-03-10T15:57:51Z</time>
      </trkpt>
      <trkpt lat="43.75922" lon="7.24889">
        <ele>445.416656</ele>
        <time>2012-03-10T15:57:53Z</time>
      </trkpt>
      <trkpt lat="43.75921" lon="7.24907">
        <ele>445.416695</ele>
        <time>2012-03-10T15:57:56Z</time>
      </trkpt>
      <trkpt lat="43.75914" lon="7.24921">
        <ele>445.41671</ele>
        <time>2012-03-10T15:57:59Z</time>
      </trkpt>
      <trkpt lat="43.75906" lon="7.24933">
        <ele>445.416725</ele>
        <time>2012-03-10T15:58:02Z</time>
      </trkpt>
      <trkpt lat="43.75897" lon="7.24944">
        <ele>445.41674</ele>
        <time>2012-03-10T15:58:05Z</time>
      </trkpt>
      <trkpt lat="43.7589" lon="7.24952">
        <ele>445.416748</ele>
        <time>2012-03-10T15:58:07Z</time>
      </trkpt>
      <trkpt lat="43.75883" lon="7.2496">
        <ele>446.416756</ele>
        <time>2012-03-10T15:58:09Z</time>
      </trkpt>
      <trkpt lat="43.75873" lon="7.24969">
        <ele>446.416763</ele>
        <time>2012-03-10T15:58:12Z</time>
      </trkpt>
      <trkpt lat="43.75864" lon="7.24981">
        <ele>447.416775</ele>
        <time>2012-03-10T15:58:19Z</time>
      </trkpt>
      <trkpt lat="43.75857" lon="7.24989">
        <ele>447.416779</ele>
        <time>2012-03-10T15:58:25Z</time>
      </trkpt>
      <trkpt lat="43.75847" lon="7.24996">
        <ele>447.416782</ele>
        <time>2012-03-10T15:58:31Z</time>
      </trkpt>
      <trkpt lat="43.75837" lon="7.25">
        <ele>448.416779</ele>
        <time>2012-03-10T15:58:35Z</time>
      </trkpt>
      <trkpt lat="43.75827" lon="7.25005">
        <ele>448.416771</ele>
        <time>2012-03-10T15:58:39Z</time>
      </trkpt>
      <trkpt lat="43.75816" lon="7.25007">
        <ele>450.416763</ele>
        <time>2012-03-10T15:58:44Z</time>
      </trkpt>
      <trkpt lat="43.75803" lon="7.25015">
        <ele>447.416763</ele>
        <time>2012-03-10T15:58:55Z</time>
      </trkpt>
      <trkpt lat="43.75793" lon="7.25026">
        <ele>449.416771</ele>
        <time>2012-03-10T15:59:00Z</time>
      </trkpt>
      <trkpt lat="43.75782" lon="7.25034">
        <ele>449.416771</ele>
        <time>2012-03-10T15:59:04Z</time>
      </trkpt>
      <trkpt lat="43.75774" lon="7.2504">
        <ele>449.416779</ele>
        <time>2012-03-10T15:59:07Z</time>
      </trkpt>
      <trkpt lat="43.75765" lon="7.25047">
        <ele>447.416775</ele>
        <time>2012-03-10T15:59:10Z</time>
      </trkpt>
      <trkpt lat="43.75756" lon="7.25054">
        <ele>447.416779</ele>
        <time>2012-03-10T15:59:13Z</time>
      </trkpt>
      <trkpt lat="43.75748" lon="7.2506">
        <ele>447.416782</ele>
        <time>2012-03-10T15:59:15Z</time>
      </trkpt>
      <trkpt lat="43.75738" lon="7.25069">
        <ele>447.416786</ele>
        <time>2012-03-10T15:59:18Z</time>
      </trkpt>
      <trkpt lat="43.75728" lon="7.25079">
        <ele>446.416794</ele>
        <time>2012-03-10T15:59:21Z</time>
      </trkpt>
      <trkpt lat="43.75719" lon="7.25088">
        <ele>445.416801</ele>
        <time>2012-03-10T15:59:24Z</time>
      </trkpt>
      <trkpt lat="43.7571" lon="7.25097">
        <ele>445.416805</ele>
        <time>2012-03-10T15:59:28Z</time>
      </trkpt>
      <trkpt lat="43.75694" lon="7.2511">
        <ele>447.416817</ele>
        <time>2012-03-10T15:59:35Z</time>
      </trkpt>
      <trkpt lat="43.75686" lon="7.25118">
        <ele>447.416817</ele>
        <time>2012-03-10T15:59:39Z</time>
      </trkpt>
      <trkpt lat="43.75679" lon="7.25127">
        <ele>448.416824</ele>
        <time>2012-03-10T15:59:43Z</time>
      </trkpt>
      <trkpt lat="43.75671" lon="7.25136">
        <ele>447.416832</ele>
        <time>2012-03-10T15:59:49Z</time>
      </trkpt>
      <trkpt lat="43.75662" lon="7.25142">
        <ele>447.41684</ele>
        <time>2012-03-10T15:59:54Z</time>
      </trkpt>
      <trkpt lat="43.75654" lon="7.25147">
        <ele>447.416836</ele>
        <time>2012-03-10T15:59:58Z</time>
      </trkpt>
      <trkpt lat="43.75641" lon="7.25151">
        <ele>448.416828</ele>
        <time>2012-03-10T16:00:02Z</time>
      </trkpt>
      <trkpt lat="43.75631" lon="7.25154">
        <ele>447.416824</ele>
        <time>2012-03-10T16:00:05Z</time>
      </trkpt>
      <trkpt lat="43.7562" lon="7.2516">
        <ele>446.416817</ele>
        <time>2012-03-10T16:00:09Z</time>
      </trkpt>
      <trkpt lat="43.75608" lon="7.25169">
        <ele>446.416821</ele>
        <time>2012-03-10T16:00:14Z</time>
      </trkpt>
      <trkpt lat="43.75599" lon="7.25175">
        <ele>448.416824</ele>
        <time>2012-03-10T16:00:18Z</time>
      </trkpt>
      <trkpt lat="43.75588" lon="7.25178">
        <ele>448.416809</ele>
        <time>2012-03-10T16:00:22Z</time>
      </trkpt>
      <trkpt lat="43.75578" lon="7.25181">
        <ele>449.416805</ele>
        <time>2012-03-10T16:00:26Z</time>
      </trkpt>
      <trkpt lat="43.75575" lon="7.25182">
        <ele>449.416801</ele>
        <time>2012-03-10T16:00:27Z</time>
      </trkpt>
      <trkpt lat="43.75564" lon="7.25185">
        <ele>449.416794</ele>
        <time>2012-03-10T16:00:31Z</time>
      </trkpt>
      <trkpt lat="43.75555" lon="7.25184">
        <ele>449.416779</ele>
        <time>2012-03-10T16:00:41Z</time>
      </trkpt>
      <trkpt lat="43.75555" lon="7.25185">
        <ele>449.416779</ele>
        <time>2012-03-10T16:00:43Z</time>
      </trkpt>
      <trkpt lat="43.75549" lon="7.25175">
        <ele>442.416752</ele>
        <time>2012-03-10T16:03:20Z</time>
      </trkpt>
      <trkpt lat="43.7554" lon="7.25171">
        <ele>442.416733</ele>
        <time>2012-03-10T16:03:26Z</time>
      </trkpt>
      <trkpt lat="43.75531" lon="7.25172">
        <ele>442.416718</ele>
        <time>2012-03-10T16:03:30Z</time>
      </trkpt>
      <trkpt lat="43.75518" lon="7.25173">
        <ele>443.416706</ele>
        <time>2012-03-10T16:03:37Z</time>
      </trkpt>
      <trkpt lat="43.75509" lon="7.25179">
        <ele>444.416706</ele>
        <time>2012-03-10T16:03:46Z</time>
      </trkpt>
      <trkpt lat="43.75496" lon="7.25188">
        <ele>448.416706</ele>
        <time>2012-03-10T16:03:56Z</time>
      </trkpt>
      <trkpt lat="43.7549" lon="7.2519">
        <ele>448.416702</ele>
        <time>2012-03-10T16:03:59Z</time>
      </trkpt>
      <trkpt lat="43.75476" lon="7.25202">
        <ele>448.416702</ele>
        <time>2012-03-10T16:04:09Z</time>
      </trkpt>
      <trkpt lat="43.7547" lon="7.25211">
        <ele>448.416721</ele>
        <time>2012-03-10T16:04:16Z</time>
      </trkpt>
      <trkpt lat="43.75464" lon="7.25222">
        <ele>447.416733</ele>
        <time>2012-03-10T16:04:22Z</time>
      </trkpt>
      <trkpt lat="43.75456" lon="7.25231">
        <ele>449.416748</ele>
        <time>2012-03-10T16:04:28Z</time>
      </trkpt>
      <trkpt lat="43.75446" lon="7.25233">
        <ele>450.416733</ele>
        <time>2012-03-10T16:04:33Z</time>
      </trkpt>
      <trkpt lat="43.75437" lon="7.25234">
        <ele>449.416725</ele>
        <time>2012-03-10T16:04:37Z</time>
      </trkpt>
      <trkpt lat="43.75433" lon="7.25235">
        <ele>449.416718</ele>
        <time>2012-03-10T16:04:39Z</time>
      </trkpt>
      <trkpt lat="43.75424" lon="7.2524">
        <ele>447.416718</ele>
        <time>2012-03-10T16:04:43Z</time>
      </trkpt>
      <trkpt lat="43.75414" lon="7.25246">
        <ele>446.416718</ele>
        <time>2012-03-10T16:04:48Z</time>
      </trkpt>
      <trkpt lat="43.75414" lon="7.25246">
        <ele>446.416718</ele>
        <time>2012-03-10T16:04:50Z</time>
      </trkpt>
      <trkpt lat="43.75407" lon="7.25254">
        <ele>446.416725</ele>
        <time>2012-03-10T16:04:53Z</time>
      </trkpt>
      <trkpt lat="43.75404" lon="7.25257">
        <ele>447.416725</ele>
        <time>2012-03-10T16:04:55Z</time>
      </trkpt>
      <trkpt lat="43.75396" lon="7.25267">
        <ele>447.416737</ele>
        <time>2012-03-10T16:04:59Z</time>
      </trkpt>
      <trkpt lat="43.75394" lon="7.25271">
        <ele>447.41674</ele>
        <time>2012-03-10T16:05:00Z</time>
      </trkpt>
      <trkpt lat="43.75387" lon="7.25281">
        <ele>447.416756</ele>
        <time>2012-03-10T16:05:03Z</time>
      </trkpt>
      <trkpt lat="43.75384" lon="7.25285">
        <ele>447.416756</ele>
        <time>2012-03-10T16:05:04Z</time>
      </trkpt>
      <trkpt lat="43.75374" lon="7.25294">
        <ele>446.416763</ele>
        <time>2012-03-10T16:05:07Z</time>
      </trkpt>
      <trkpt lat="43.75366" lon="7.25299">
        <ele>446.416763</ele>
        <time>2012-03-10T16:05:09Z</time>
      </trkpt>
      <trkpt lat="43.75356" lon="7.25303">
        <ele>446.416759</ele>
        <time>2012-03-10T16:05:11Z</time>
      </trkpt>
      <trkpt lat="43.75351" lon="7.25304">
        <ele>447.416752</ele>
        <time>2012-03-10T16:05:12Z</time>
      </trkpt>
      <trkpt lat="43.75338" lon="7.25306">
        <ele>447.41674</ele>
        <time>2012-03-10T16:05:15Z</time>
      </trkpt>
      <trkpt lat="43.75327" lon="7.25309">
        <ele>447.416733</ele>
        <time>2012-03-10T16:05:18Z</time>
      </trkpt>
      <trkpt lat="43.75316" lon="7.25312">
        <ele>446.416725</ele>
        <time>2012-03-10T16:05:21Z</time>
      </trkpt>
      <trkpt lat="43.75304" lon="7.25311">
        <ele>446.416702</ele>
        <time>2012-03-10T16:05:24Z</time>
      </trkpt>
      <trkpt lat="43.75295" lon="7.25308">
        <ele>446.416683</ele>
        <time>2012-03-10T16:05:26Z</time>
      </trkpt>
      <trkpt lat="43.75286" lon="7.25306">
        <ele>447.416664</ele>
        <time>2012-03-10T16:05:28Z</time>
      </trkpt>
      <trkpt lat="43.75276" lon="7.25302">
        <ele>447.416645</ele>
        <time>2012-03-10T16:05:30Z</time>
      </trkpt>
      <trkpt lat="43.75266" lon="7.253">
        <ele>447.416626</ele>
        <time>2012-03-10T16:05:32Z</time>
      </trkpt>
      <trkpt lat="43.75257" lon="7.25302">
        <ele>446.416618</ele>
        <time>2012-03-10T16:05:34Z</time>
      </trkpt>
      <trkpt lat="43.75245" lon="7.25308">
        <ele>445.416615</ele>
        <time>2012-03-10T16:05:37Z</time>
      </trkpt>
      <trkpt lat="43.75242" lon="7.25312">
        <ele>444.416622</ele>
        <time>2012-03-10T16:05:38Z</time>
      </trkpt>
      <trkpt lat="43.75236" lon="7.25324">
        <ele>444.416637</ele>
        <time>2012-03-10T16:05:41Z</time>
      </trkpt>
      <trkpt lat="43.75233" lon="7.25331">
        <ele>444.416649</ele>
        <time>2012-03-10T16:05:43Z</time>
      </trkpt>
      <trkpt lat="43.75231" lon="7.25345">
        <ele>443.416676</ele>
        <time>2012-03-10T16:05:48Z</time>
      </trkpt>
      <trkpt lat="43.75222" lon="7.25347">
        <ele>445.416668</ele>
        <time>2012-03-10T16:05:52Z</time>
      </trkpt>
      <trkpt lat="43.75214" lon="7.2535">
        <ele>445.416664</ele>
        <time>2012-03-10T16:05:55Z</time>
      </trkpt>
      <trkpt lat="43.75204" lon="7.25356">
        <ele>445.41666</ele>
        <time>2012-03-10T16:05:58Z</time>
      </trkpt>
      <trkpt lat="43.75193" lon="7.25366">
        <ele>445.416672</ele>
        <time>2012-03-10T16:06:01Z</time>
      </trkpt>
      <trkpt lat="43.75183" lon="7.25376">
        <ele>444.416676</ele>
        <time>2012-03-10T16:06:04Z</time>
      </trkpt>
      <trkpt lat="43.75173" lon="7.25386">
        <ele>443.416679</ele>
        <time>2012-03-10T16:06:07Z</time>
      </trkpt>
      <trkpt lat="43.75164" lon="7.25398">
        <ele>443.416695</ele>
        <time>2012-03-10T16:06:10Z</time>
      </trkpt>
      <trkpt lat="43.75156" lon="7.25409">
        <ele>443.41671</ele>
        <time>2012-03-10T16:06:13Z</time>
      </trkpt>
      <trkpt lat="43.75149" lon="7.25424">
        <ele>444.416725</ele>
        <time>2012-03-10T16:06:20Z</time>
      </trkpt>
      <trkpt lat="43.75143" lon="7.25434">
        <ele>445.41674</ele>
        <time>2012-03-10T16:06:24Z</time>
      </trkpt>
      <trkpt lat="43.75138" lon="7.25445">
        <ele>445.416759</ele>
        <time>2012-03-10T16:06:27Z</time>
      </trkpt>
      <trkpt lat="43.75131" lon="7.2546">
        <ele>445.416786</ele>
        <time>2012-03-10T16:06:30Z</time>
      </trkpt>
      <trkpt lat="43.75125" lon="7.25476">
        <ele>445.416813</ele>
        <time>2012-03-10T16:06:33Z</time>
      </trkpt>
      <trkpt lat="43.75119" lon="7.25492">
        <ele>445.416836</ele>
        <time>2012-03-10T16:06:36Z</time>
      </trkpt>
      <trkpt lat="43.75111" lon="7.25503">
        <ele>447.416847</ele>
        <time>2012-03-10T16:06:39Z</time>
      </trkpt>
      <trkpt lat="43.75102" lon="7.25511">
        <ele>448.416855</ele>
        <time>2012-03-10T16:06:42Z</time>
      </trkpt>
      <trkpt lat="43.75097" lon="7.25515">
        <ele>448.416855</ele>
        <time>2012-03-10T16:06:44Z</time>
      </trkpt>
      <trkpt lat="43.75088" lon="7.25521">
        <ele>449.416851</ele>
        <time>2012-03-10T16:06:49Z</time>
      </trkpt>
      <trkpt lat="43.75081" lon="7.25522">
        <ele>448.416847</ele>
        <time>2012-03-10T16:06:54Z</time>
      </trkpt>
      <trkpt lat="43.75072" lon="7.25525">
        <ele>447.41684</ele>
        <time>2012-03-10T16:06:57Z</time>
      </trkpt>
      <trkpt lat="43.75054" lon="7.2553">
        <ele>447.416824</ele>
        <time>2012-03-10T16:07:04Z</time>
      </trkpt>
      <trkpt lat="43.75044" lon="7.25534">
        <ele>444.416821</ele>
        <time>2012-03-10T16:07:08Z</time>
      </trkpt>
      <trkpt lat="43.75041" lon="7.25535">
        <ele>443.416817</ele>
        <time>2012-03-10T16:07:09Z</time>
      </trkpt>
      <trkpt lat="43.7503" lon="7.25538">
        <ele>441.416809</ele>
        <time>2012-03-10T16:07:12Z</time>
      </trkpt>
      <trkpt lat="43.75017" lon="7.25543">
        <ele>439.416801</ele>
        <time>2012-03-10T16:07:15Z</time>
      </trkpt>
      <trkpt lat="43.75007" lon="7.25545">
        <ele>437.416794</ele>
        <time>2012-03-10T16:07:17Z</time>
      </trkpt>
      <trkpt lat="43.74997" lon="7.25545">
        <ele>436.416779</ele>
        <time>2012-03-10T16:07:19Z</time>
      </trkpt>
      <trkpt lat="43.74985" lon="7.25548">
        <ele>435.416771</ele>
        <time>2012-03-10T16:07:22Z</time>
      </trkpt>
      <trkpt lat="43.74975" lon="7.25549">
        <ele>434.416756</ele>
        <time>2012-03-10T16:07:25Z</time>
      </trkpt>
      <trkpt lat="43.74965" lon="7.25552">
        <ele>433.416748</ele>
        <time>2012-03-10T16:07:29Z</time>
      </trkpt>
      <trkpt lat="43.74955" lon="7.25556">
        <ele>434.416744</ele>
        <time>2012-03-10T16:07:33Z</time>
      </trkpt>
      <trkpt lat="43.74944" lon="7.25559">
        <ele>434.416737</ele>
        <time>2012-03-10T16:07:37Z</time>
      </trkpt>
      <trkpt lat="43.74932" lon="7.25561">
        <ele>434.416725</ele>
        <time>2012-03-10T16:07:41Z</time>
      </trkpt>
      <trkpt lat="43.74923" lon="7.25563">
        <ele>434.416718</ele>
        <time>2012-03-10T16:07:44Z</time>
      </trkpt>
      <trkpt lat="43.74914" lon="7.25565">
        <ele>434.41671</ele>
        <time>2012-03-10T16:07:47Z</time>
      </trkpt>
      <trkpt lat="43.74911" lon="7.25565">
        <ele>434.416706</ele>
        <time>2012-03-10T16:07:48Z</time>
      </trkpt>
      <trkpt lat="43.749" lon="7.25567">
        <ele>434.416695</ele>
        <time>2012-03-10T16:07:52Z</time>
      </trkpt>
      <trkpt lat="43.74897" lon="7.25568">
        <ele>434.416687</ele>
        <time>2012-03-10T16:07:53Z</time>
      </trkpt>
      <trkpt lat="43.74886" lon="7.25569">
        <ele>434.416676</ele>
        <time>2012-03-10T16:07:57Z</time>
      </trkpt>
      <trkpt lat="43.7488" lon="7.25569">
        <ele>434.416668</ele>
        <time>2012-03-10T16:07:59Z</time>
      </trkpt>
      <trkpt lat="43.74866" lon="7.25569">
        <ele>435.416649</ele>
        <time>2012-03-10T16:08:04Z</time>
      </trkpt>
      <trkpt lat="43.74854" lon="7.2557">
        <ele>434.416637</ele>
        <time>2012-03-10T16:08:08Z</time>
      </trkpt>
      <trkpt lat="43.74838" lon="7.25572">
        <ele>433.416618</ele>
        <time>2012-03-10T16:08:14Z</time>
      </trkpt>
      <trkpt lat="43.74835" lon="7.25572">
        <ele>434.416615</ele>
        <time>2012-03-10T16:08:16Z</time>
      </trkpt>
      <trkpt lat="43.74824" lon="7.25574">
        <ele>435.416603</ele>
        <time>2012-03-10T16:08:19Z</time>
      </trkpt>
      <trkpt lat="43.74804" lon="7.25576">
        <ele>435.41658</ele>
        <time>2012-03-10T16:08:26Z</time>
      </trkpt>
      <trkpt lat="43.74795" lon="7.25578">
        <ele>435.416573</ele>
        <time>2012-03-10T16:08:29Z</time>
      </trkpt>
      <trkpt lat="43.74784" lon="7.2558">
        <ele>436.416561</ele>
        <time>2012-03-10T16:08:32Z</time>
      </trkpt>
      <trkpt lat="43.74772" lon="7.25582">
        <ele>435.41655</ele>
        <time>2012-03-10T16:08:35Z</time>
      </trkpt>
      <trkpt lat="43.74763" lon="7.25583">
        <ele>434.416542</ele>
        <time>2012-03-10T16:08:37Z</time>
      </trkpt>
      <trkpt lat="43.74758" lon="7.25584">
        <ele>434.416534</ele>
        <time>2012-03-10T16:08:38Z</time>
      </trkpt>
      <trkpt lat="43.74749" lon="7.25586">
        <ele>434.416527</ele>
        <time>2012-03-10T16:08:40Z</time>
      </trkpt>
      <trkpt lat="43.74744" lon="7.25587">
        <ele>434.416519</ele>
        <time>2012-03-10T16:08:41Z</time>
      </trkpt>
      <trkpt lat="43.74735" lon="7.25591">
        <ele>433.416519</ele>
        <time>2012-03-10T16:08:44Z</time>
      </trkpt>
      <trkpt lat="43.74724" lon="7.25598">
        <ele>432.416515</ele>
        <time>2012-03-10T16:08:49Z</time>
      </trkpt>
      <trkpt lat="43.74714" lon="7.25605">
        <ele>431.416519</ele>
        <time>2012-03-10T16:08:54Z</time>
      </trkpt>
      <trkpt lat="43.74706" lon="7.25606">
        <ele>431.416512</ele>
        <time>2012-03-10T16:08:56Z</time>
      </trkpt>
      <trkpt lat="43.74693" lon="7.2561">
        <ele>430.416496</ele>
        <time>2012-03-10T16:08:59Z</time>
      </trkpt>
      <trkpt lat="43.74681" lon="7.25614">
        <ele>428.416492</ele>
        <time>2012-03-10T16:09:02Z</time>
      </trkpt>
      <trkpt lat="43.74669" lon="7.25618">
        <ele>426.416485</ele>
        <time>2012-03-10T16:09:05Z</time>
      </trkpt>
      <trkpt lat="43.74658" lon="7.25619">
        <ele>425.41647</ele>
        <time>2012-03-10T16:09:08Z</time>
      </trkpt>
      <trkpt lat="43.74648" lon="7.25621">
        <ele>424.416458</ele>
        <time>2012-03-10T16:09:11Z</time>
      </trkpt>
      <trkpt lat="43.74638" lon="7.25623">
        <ele>423.416451</ele>
        <time>2012-03-10T16:09:14Z</time>
      </trkpt>
      <trkpt lat="43.74634" lon="7.25624">
        <ele>423.416451</ele>
        <time>2012-03-10T16:09:15Z</time>
      </trkpt>
      <trkpt lat="43.74624" lon="7.25627">
        <ele>422.416439</ele>
        <time>2012-03-10T16:09:18Z</time>
      </trkpt>
      <trkpt lat="43.7462" lon="7.25628">
        <ele>422.416439</ele>
        <time>2012-03-10T16:09:19Z</time>
      </trkpt>
      <trkpt lat="43.7461" lon="7.2563">
        <ele>423.416428</ele>
        <time>2012-03-10T16:09:22Z</time>
      </trkpt>
      <trkpt lat="43.74598" lon="7.25629">
        <ele>423.416409</ele>
        <time>2012-03-10T16:09:25Z</time>
      </trkpt>
      <trkpt lat="43.74594" lon="7.25629">
        <ele>423.416401</ele>
        <time>2012-03-10T16:09:26Z</time>
      </trkpt>
      <trkpt lat="43.74583" lon="7.2563">
        <ele>423.416393</ele>
        <time>2012-03-10T16:09:29Z</time>
      </trkpt>
      <trkpt lat="43.74574" lon="7.25626">
        <ele>424.416367</ele>
        <time>2012-03-10T16:09:33Z</time>
      </trkpt>
      <trkpt lat="43.74564" lon="7.25624">
        <ele>423.416351</ele>
        <time>2012-03-10T16:09:39Z</time>
      </trkpt>
      <trkpt lat="43.74552" lon="7.25619">
        <ele>422.416328</ele>
        <time>2012-03-10T16:09:45Z</time>
      </trkpt>
      <trkpt lat="43.74544" lon="7.25615">
        <ele>420.416306</ele>
        <time>2012-03-10T16:09:49Z</time>
      </trkpt>
      <trkpt lat="43.74536" lon="7.25615">
        <ele>419.416298</ele>
        <time>2012-03-10T16:09:52Z</time>
      </trkpt>
      <trkpt lat="43.74526" lon="7.25615">
        <ele>419.416283</ele>
        <time>2012-03-10T16:09:55Z</time>
      </trkpt>
      <trkpt lat="43.74522" lon="7.25615">
        <ele>419.416275</ele>
        <time>2012-03-10T16:09:56Z</time>
      </trkpt>
      <trkpt lat="43.74509" lon="7.25616">
        <ele>419.416264</ele>
        <time>2012-03-10T16:09:59Z</time>
      </trkpt>
      <trkpt lat="43.74497" lon="7.25622">
        <ele>418.416256</ele>
        <time>2012-03-10T16:10:02Z</time>
      </trkpt>
      <trkpt lat="43.74494" lon="7.25625">
        <ele>417.41626</ele>
        <time>2012-03-10T16:10:03Z</time>
      </trkpt>
      <trkpt lat="43.74483" lon="7.25633">
        <ele>415.41626</ele>
        <time>2012-03-10T16:10:06Z</time>
      </trkpt>
      <trkpt lat="43.74473" lon="7.25637">
        <ele>414.416256</ele>
        <time>2012-03-10T16:10:10Z</time>
      </trkpt>
      <trkpt lat="43.74463" lon="7.25643">
        <ele>413.416256</ele>
        <time>2012-03-10T16:10:15Z</time>
      </trkpt>
      <trkpt lat="43.7446" lon="7.25644">
        <ele>413.416252</ele>
        <time>2012-03-10T16:10:16Z</time>
      </trkpt>
      <trkpt lat="43.7445" lon="7.25645">
        <ele>412.416237</ele>
        <time>2012-03-10T16:10:19Z</time>
      </trkpt>
      <trkpt lat="43.74446" lon="7.25645">
        <ele>412.416233</ele>
        <time>2012-03-10T16:10:20Z</time>
      </trkpt>
      <trkpt lat="43.74434" lon="7.25645">
        <ele>413.416222</ele>
        <time>2012-03-10T16:10:23Z</time>
      </trkpt>
      <trkpt lat="43.74423" lon="7.25646">
        <ele>412.41621</ele>
        <time>2012-03-10T16:10:26Z</time>
      </trkpt>
      <trkpt lat="43.74419" lon="7.25648">
        <ele>412.416203</ele>
        <time>2012-03-10T16:10:27Z</time>
      </trkpt>
      <trkpt lat="43.7441" lon="7.25651">
        <ele>412.416199</ele>
        <time>2012-03-10T16:10:30Z</time>
      </trkpt>
      <trkpt lat="43.74399" lon="7.25653">
        <ele>412.416187</ele>
        <time>2012-03-10T16:10:34Z</time>
      </trkpt>
      <trkpt lat="43.74388" lon="7.25653">
        <ele>411.416172</ele>
        <time>2012-03-10T16:10:38Z</time>
      </trkpt>
      <trkpt lat="43.74379" lon="7.25653">
        <ele>411.416161</ele>
        <time>2012-03-10T16:10:41Z</time>
      </trkpt>
      <trkpt lat="43.74376" lon="7.25652">
        <ele>411.416153</ele>
        <time>2012-03-10T16:10:42Z</time>
      </trkpt>
      <trkpt lat="43.74365" lon="7.2565">
        <ele>411.416138</ele>
        <time>2012-03-10T16:10:45Z</time>
      </trkpt>
      <trkpt lat="43.74354" lon="7.25647">
        <ele>411.416111</ele>
        <time>2012-03-10T16:10:48Z</time>
      </trkpt>
      <trkpt lat="43.74343" lon="7.25643">
        <ele>410.416092</ele>
        <time>2012-03-10T16:10:51Z</time>
      </trkpt>
      <trkpt lat="43.74334" lon="7.25636">
        <ele>410.416061</ele>
        <time>2012-03-10T16:10:54Z</time>
      </trkpt>
      <trkpt lat="43.74326" lon="7.25631">
        <ele>410.416039</ele>
        <time>2012-03-10T16:10:57Z</time>
      </trkpt>
      <trkpt lat="43.74317" lon="7.25631">
        <ele>410.416031</ele>
        <time>2012-03-10T16:11:00Z</time>
      </trkpt>
      <trkpt lat="43.74305" lon="7.25629">
        <ele>409.416008</ele>
        <time>2012-03-10T16:11:04Z</time>
      </trkpt>
      <trkpt lat="43.74296" lon="7.25628">
        <ele>407.415993</ele>
        <time>2012-03-10T16:11:08Z</time>
      </trkpt>
      <trkpt lat="43.74294" lon="7.25627">
        <ele>407.415989</ele>
        <time>2012-03-10T16:11:09Z</time>
      </trkpt>
      <trkpt lat="43.74284" lon="7.25628">
        <ele>406.415977</ele>
        <time>2012-03-10T16:11:15Z</time>
      </trkpt>
      <trkpt lat="43.74276" lon="7.25637">
        <ele>404.415985</ele>
        <time>2012-03-10T16:11:23Z</time>
      </trkpt>
      <trkpt lat="43.74275" lon="7.25638">
        <ele>403.415985</ele>
        <time>2012-03-10T16:11:27Z</time>
      </trkpt>
      <trkpt lat="43.74267" lon="7.25644">
        <ele>402.415989</ele>
        <time>2012-03-10T16:11:30Z</time>
      </trkpt>
      <trkpt lat="43.74263" lon="7.25649">
        <ele>402.415993</ele>
        <time>2012-03-10T16:11:33Z</time>
      </trkpt>
      <trkpt lat="43.74248" lon="7.25663">
        <ele>403.416004</ele>
        <time>2012-03-10T16:11:41Z</time>
      </trkpt>
      <trkpt lat="43.74243" lon="7.25668">
        <ele>402.416008</ele>
        <time>2012-03-10T16:11:44Z</time>
      </trkpt>
      <trkpt lat="43.7423" lon="7.25666">
        <ele>386.415985</ele>
        <time>2012-03-10T16:13:46Z</time>
      </trkpt>
      <trkpt lat="43.74221" lon="7.25666">
        <ele>383.41597</ele>
        <time>2012-03-10T16:14:16Z</time>
      </trkpt>
      <trkpt lat="43.74221" lon="7.25678">
        <ele>386.416</ele>
        <time>2012-03-10T16:14:38Z</time>
      </trkpt>
      <trkpt lat="43.74219" lon="7.25682">
        <ele>386.416</ele>
        <time>2012-03-10T16:14:39Z</time>
      </trkpt>
      <trkpt lat="43.74211" lon="7.25692">
        <ele>385.416016</ele>
        <time>2012-03-10T16:14:43Z</time>
      </trkpt>
      <trkpt lat="43.74202" lon="7.25706">
        <ele>386.416031</ele>
        <time>2012-03-10T16:14:49Z</time>
      </trkpt>
      <trkpt lat="43.74198" lon="7.25718">
        <ele>388.41605</ele>
        <time>2012-03-10T16:14:54Z</time>
      </trkpt>
      <trkpt lat="43.74196" lon="7.25747">
        <ele>388.416107</ele>
        <time>2012-03-10T16:15:06Z</time>
      </trkpt>
      <trkpt lat="43.74199" lon="7.2576">
        <ele>389.416138</ele>
        <time>2012-03-10T16:15:10Z</time>
      </trkpt>
      <trkpt lat="43.742" lon="7.25764">
        <ele>389.416153</ele>
        <time>2012-03-10T16:15:12Z</time>
      </trkpt>
      <trkpt lat="43.742" lon="7.25777">
        <ele>385.416176</ele>
        <time>2012-03-10T16:15:32Z</time>
      </trkpt>
      <trkpt lat="43.74205" lon="7.25793">
        <ele>380.416222</ele>
        <time>2012-03-10T16:16:36Z</time>
      </trkpt>
      <trkpt lat="43.74207" lon="7.25795">
        <ele>380.416229</ele>
        <time>2012-03-10T16:16:37Z</time>
      </trkpt>
      <trkpt lat="43.74214" lon="7.25803">
        <ele>381.416252</ele>
        <time>2012-03-10T16:16:40Z</time>
      </trkpt>
      <trkpt lat="43.74221" lon="7.25811">
        <ele>382.416283</ele>
        <time>2012-03-10T16:16:43Z</time>
      </trkpt>
      <trkpt lat="43.74228" lon="7.2582">
        <ele>383.416313</ele>
        <time>2012-03-10T16:16:46Z</time>
      </trkpt>
      <trkpt lat="43.74236" lon="7.2583">
        <ele>384.416344</ele>
        <time>2012-03-10T16:16:49Z</time>
      </trkpt>
      <trkpt lat="43.74247" lon="7.2584">
        <ele>384.416374</ele>
        <time>2012-03-10T16:16:52Z</time>
      </trkpt>
      <trkpt lat="43.7425" lon="7.25843">
        <ele>384.416389</ele>
        <time>2012-03-10T16:16:53Z</time>
      </trkpt>
      <trkpt lat="43.74261" lon="7.25853">
        <ele>384.416424</ele>
        <time>2012-03-10T16:16:56Z</time>
      </trkpt>
      <trkpt lat="43.74264" lon="7.25856">
        <ele>384.416435</ele>
        <time>2012-03-10T16:16:57Z</time>
      </trkpt>
      <trkpt lat="43.74275" lon="7.25866">
        <ele>383.41647</ele>
        <time>2012-03-10T16:17:00Z</time>
      </trkpt>
      <trkpt lat="43.74282" lon="7.25875">
        <ele>382.416496</ele>
        <time>2012-03-10T16:17:02Z</time>
      </trkpt>
      <trkpt lat="43.74286" lon="7.25891">
        <ele>380.416542</ele>
        <time>2012-03-10T16:17:04Z</time>
      </trkpt>
      <trkpt lat="43.74287" lon="7.25912">
        <ele>377.416588</ele>
        <time>2012-03-10T16:17:06Z</time>
      </trkpt>
      <trkpt lat="43.7429" lon="7.25935">
        <ele>374.416637</ele>
        <time>2012-03-10T16:17:08Z</time>
      </trkpt>
      <trkpt lat="43.74294" lon="7.25956">
        <ele>372.416687</ele>
        <time>2012-03-10T16:17:10Z</time>
      </trkpt>
      <trkpt lat="43.743" lon="7.25977">
        <ele>369.41674</ele>
        <time>2012-03-10T16:17:12Z</time>
      </trkpt>
      <trkpt lat="43.74302" lon="7.25987">
        <ele>369.416763</ele>
        <time>2012-03-10T16:17:13Z</time>
      </trkpt>
      <trkpt lat="43.74309" lon="7.26007">
        <ele>367.416817</ele>
        <time>2012-03-10T16:17:15Z</time>
      </trkpt>
      <trkpt lat="43.74315" lon="7.26028">
        <ele>366.41687</ele>
        <time>2012-03-10T16:17:17Z</time>
      </trkpt>
      <trkpt lat="43.74322" lon="7.26048">
        <ele>365.416924</ele>
        <time>2012-03-10T16:17:19Z</time>
      </trkpt>
      <trkpt lat="43.74327" lon="7.26066">
        <ele>365.416969</ele>
        <time>2012-03-10T16:17:21Z</time>
      </trkpt>
      <trkpt lat="43.74333" lon="7.26084">
        <ele>364.417015</ele>
        <time>2012-03-10T16:17:23Z</time>
      </trkpt>
      <trkpt lat="43.74335" lon="7.26093">
        <ele>364.417038</ele>
        <time>2012-03-10T16:17:24Z</time>
      </trkpt>
      <trkpt lat="43.74341" lon="7.26112">
        <ele>364.417088</ele>
        <time>2012-03-10T16:17:26Z</time>
      </trkpt>
      <trkpt lat="43.74347" lon="7.2613">
        <ele>363.41713</ele>
        <time>2012-03-10T16:17:28Z</time>
      </trkpt>
      <trkpt lat="43.74354" lon="7.2615">
        <ele>363.417183</ele>
        <time>2012-03-10T16:17:30Z</time>
      </trkpt>
      <trkpt lat="43.74361" lon="7.26171">
        <ele>363.417236</ele>
        <time>2012-03-10T16:17:32Z</time>
      </trkpt>
      <trkpt lat="43.74365" lon="7.26183">
        <ele>362.417271</ele>
        <time>2012-03-10T16:17:33Z</time>
      </trkpt>
      <trkpt lat="43.74369" lon="7.26195">
        <ele>362.417297</ele>
        <time>2012-03-10T16:17:34Z</time>
      </trkpt>
      <trkpt lat="43.74374" lon="7.26207">
        <ele>362.417336</ele>
        <time>2012-03-10T16:17:35Z</time>
      </trkpt>
      <trkpt lat="43.74378" lon="7.26219">
        <ele>362.417366</ele>
        <time>2012-03-10T16:17:36Z</time>
      </trkpt>
      <trkpt lat="43.74383" lon="7.26239">
        <ele>361.417419</ele>
        <time>2012-03-10T16:17:38Z</time>
      </trkpt>
      <trkpt lat="43.74385" lon="7.26258">
        <ele>360.417458</ele>
        <time>2012-03-10T16:17:40Z</time>
      </trkpt>
      <trkpt lat="43.74384" lon="7.26274">
        <ele>359.417488</ele>
        <time>2012-03-10T16:17:42Z</time>
      </trkpt>
      <trkpt lat="43.74379" lon="7.26289">
        <ele>358.417519</ele>
        <time>2012-03-10T16:17:44Z</time>
      </trkpt>
      <trkpt lat="43.74376" lon="7.26295">
        <ele>358.417526</ele>
        <time>2012-03-10T16:17:45Z</time>
      </trkpt>
      <trkpt lat="43.74371" lon="7.26307">
        <ele>358.417542</ele>
        <time>2012-03-10T16:17:47Z</time>
      </trkpt>
      <trkpt lat="43.74365" lon="7.2632">
        <ele>357.417561</ele>
        <time>2012-03-10T16:17:50Z</time>
      </trkpt>
      <trkpt lat="43.74365" lon="7.2632">
        <ele>357.417561</ele>
        <time>2012-03-10T16:17:51Z</time>
      </trkpt>
      <trkpt lat="43.74359" lon="7.26331">
        <ele>354.41758</ele>
        <time>2012-03-10T16:17:55Z</time>
      </trkpt>
      <trkpt lat="43.74361" lon="7.26345">
        <ele>352.41761</ele>
        <time>2012-03-10T16:17:58Z</time>
      </trkpt>
      <trkpt lat="43.74364" lon="7.26357">
        <ele>350.417641</ele>
        <time>2012-03-10T16:18:01Z</time>
      </trkpt>
      <trkpt lat="43.7437" lon="7.26371">
        <ele>347.417679</ele>
        <time>2012-03-10T16:18:05Z</time>
      </trkpt>
      <trkpt lat="43.74372" lon="7.26383">
        <ele>346.417706</ele>
        <time>2012-03-10T16:18:08Z</time>
      </trkpt>
      <trkpt lat="43.74374" lon="7.26396">
        <ele>344.41774</ele>
        <time>2012-03-10T16:18:11Z</time>
      </trkpt>
      <trkpt lat="43.74376" lon="7.26408">
        <ele>342.417763</ele>
        <time>2012-03-10T16:18:14Z</time>
      </trkpt>
      <trkpt lat="43.74377" lon="7.26413">
        <ele>342.417778</ele>
        <time>2012-03-10T16:18:15Z</time>
      </trkpt>
      <trkpt lat="43.74379" lon="7.26426">
        <ele>341.417809</ele>
        <time>2012-03-10T16:18:18Z</time>
      </trkpt>
      <trkpt lat="43.74382" lon="7.2644">
        <ele>340.417843</ele>
        <time>2012-03-10T16:18:21Z</time>
      </trkpt>
      <trkpt lat="43.74384" lon="7.26454">
        <ele>339.417873</ele>
        <time>2012-03-10T16:18:24Z</time>
      </trkpt>
      <trkpt lat="43.74387" lon="7.2647">
        <ele>339.417908</ele>
        <time>2012-03-10T16:18:27Z</time>
      </trkpt>
      <trkpt lat="43.74388" lon="7.26488">
        <ele>340.417946</ele>
        <time>2012-03-10T16:18:30Z</time>
      </trkpt>
      <trkpt lat="43.74388" lon="7.26506">
        <ele>341.417992</ele>
        <time>2012-03-10T16:18:33Z</time>
      </trkpt>
      <trkpt lat="43.74389" lon="7.26523">
        <ele>340.418022</ele>
        <time>2012-03-10T16:18:36Z</time>
      </trkpt>
      <trkpt lat="43.7439" lon="7.26539">
        <ele>339.41806</ele>
        <time>2012-03-10T16:18:39Z</time>
      </trkpt>
      <trkpt lat="43.74393" lon="7.26555">
        <ele>339.418098</ele>
        <time>2012-03-10T16:18:42Z</time>
      </trkpt>
      <trkpt lat="43.74394" lon="7.26565">
        <ele>338.418121</ele>
        <time>2012-03-10T16:18:44Z</time>
      </trkpt>
      <trkpt lat="43.74397" lon="7.26579">
        <ele>338.418156</ele>
        <time>2012-03-10T16:18:47Z</time>
      </trkpt>
      <trkpt lat="43.744" lon="7.26594">
        <ele>338.418194</ele>
        <time>2012-03-10T16:18:50Z</time>
      </trkpt>
      <trkpt lat="43.74402" lon="7.26606">
        <ele>338.418221</ele>
        <time>2012-03-10T16:18:52Z</time>
      </trkpt>
      <trkpt lat="43.74406" lon="7.26623">
        <ele>339.418262</ele>
        <time>2012-03-10T16:18:55Z</time>
      </trkpt>
      <trkpt lat="43.74409" lon="7.26635">
        <ele>339.418293</ele>
        <time>2012-03-10T16:18:57Z</time>
      </trkpt>
      <trkpt lat="43.74411" lon="7.26648">
        <ele>339.418324</ele>
        <time>2012-03-10T16:18:59Z</time>
      </trkpt>
      <trkpt lat="43.74415" lon="7.26665">
        <ele>338.418365</ele>
        <time>2012-03-10T16:19:02Z</time>
      </trkpt>
      <trkpt lat="43.74418" lon="7.26681">
        <ele>337.4184</ele>
        <time>2012-03-10T16:19:05Z</time>
      </trkpt>
      <trkpt lat="43.74422" lon="7.26698">
        <ele>336.418442</ele>
        <time>2012-03-10T16:19:08Z</time>
      </trkpt>
      <trkpt lat="43.7443" lon="7.26711">
        <ele>335.41848</ele>
        <time>2012-03-10T16:19:11Z</time>
      </trkpt>
      <trkpt lat="43.74437" lon="7.26725">
        <ele>335.418522</ele>
        <time>2012-03-10T16:19:14Z</time>
      </trkpt>
      <trkpt lat="43.74441" lon="7.26742">
        <ele>335.41856</ele>
        <time>2012-03-10T16:19:17Z</time>
      </trkpt>
      <trkpt lat="43.74442" lon="7.2676">
        <ele>335.418598</ele>
        <time>2012-03-10T16:19:20Z</time>
      </trkpt>
      <trkpt lat="43.74442" lon="7.26778">
        <ele>335.41864</ele>
        <time>2012-03-10T16:19:23Z</time>
      </trkpt>
      <trkpt lat="43.74441" lon="7.26791">
        <ele>334.418667</ele>
        <time>2012-03-10T16:19:25Z</time>
      </trkpt>
      <trkpt lat="43.7444" lon="7.26804">
        <ele>334.418694</ele>
        <time>2012-03-10T16:19:27Z</time>
      </trkpt>
      <trkpt lat="43.7444" lon="7.2681">
        <ele>333.418709</ele>
        <time>2012-03-10T16:19:28Z</time>
      </trkpt>
      <trkpt lat="43.74438" lon="7.26823">
        <ele>333.418732</ele>
        <time>2012-03-10T16:19:30Z</time>
      </trkpt>
      <trkpt lat="43.74437" lon="7.26829">
        <ele>333.418743</ele>
        <time>2012-03-10T16:19:31Z</time>
      </trkpt>
      <trkpt lat="43.74433" lon="7.26846">
        <ele>334.418777</ele>
        <time>2012-03-10T16:19:34Z</time>
      </trkpt>
      <trkpt lat="43.74429" lon="7.26864">
        <ele>334.418808</ele>
        <time>2012-03-10T16:19:37Z</time>
      </trkpt>
      <trkpt lat="43.74427" lon="7.2687">
        <ele>334.418816</ele>
        <time>2012-03-10T16:19:38Z</time>
      </trkpt>
      <trkpt lat="43.74425" lon="7.26883">
        <ele>333.418842</ele>
        <time>2012-03-10T16:19:40Z</time>
      </trkpt>
      <trkpt lat="43.74424" lon="7.26889">
        <ele>332.41885</ele>
        <time>2012-03-10T16:19:41Z</time>
      </trkpt>
      <trkpt lat="43.74421" lon="7.26902">
        <ele>332.418877</ele>
        <time>2012-03-10T16:19:43Z</time>
      </trkpt>
      <trkpt lat="43.7442" lon="7.26908">
        <ele>332.418884</ele>
        <time>2012-03-10T16:19:44Z</time>
      </trkpt>
      <trkpt lat="43.74418" lon="7.26915">
        <ele>332.4189</ele>
        <time>2012-03-10T16:19:45Z</time>
      </trkpt>
      <trkpt lat="43.74417" lon="7.26921">
        <ele>332.418911</ele>
        <time>2012-03-10T16:19:46Z</time>
      </trkpt>
      <trkpt lat="43.74416" lon="7.26928">
        <ele>332.418922</ele>
        <time>2012-03-10T16:19:47Z</time>
      </trkpt>
      <trkpt lat="43.74415" lon="7.26934">
        <ele>332.418938</ele>
        <time>2012-03-10T16:19:48Z</time>
      </trkpt>
      <trkpt lat="43.74411" lon="7.26955">
        <ele>331.418976</ele>
        <time>2012-03-10T16:19:51Z</time>
      </trkpt>
      <trkpt lat="43.74409" lon="7.26972">
        <ele>331.419006</ele>
        <time>2012-03-10T16:19:53Z</time>
      </trkpt>
      <trkpt lat="43.74406" lon="7.2699">
        <ele>331.419044</ele>
        <time>2012-03-10T16:19:55Z</time>
      </trkpt>
      <trkpt lat="43.74403" lon="7.27008">
        <ele>331.419079</ele>
        <time>2012-03-10T16:19:57Z</time>
      </trkpt>
      <trkpt lat="43.744" lon="7.27027">
        <ele>331.419109</ele>
        <time>2012-03-10T16:19:59Z</time>
      </trkpt>
      <trkpt lat="43.74395" lon="7.27045">
        <ele>332.419144</ele>
        <time>2012-03-10T16:20:01Z</time>
      </trkpt>
      <trkpt lat="43.7439" lon="7.27063">
        <ele>331.419174</ele>
        <time>2012-03-10T16:20:03Z</time>
      </trkpt>
      <trkpt lat="43.74384" lon="7.2708">
        <ele>330.419205</ele>
        <time>2012-03-10T16:20:05Z</time>
      </trkpt>
      <trkpt lat="43.7438" lon="7.27099">
        <ele>330.419235</ele>
        <time>2012-03-10T16:20:07Z</time>
      </trkpt>
      <trkpt lat="43.74376" lon="7.27119">
        <ele>329.419277</ele>
        <time>2012-03-10T16:20:09Z</time>
      </trkpt>
      <trkpt lat="43.74372" lon="7.27141">
        <ele>328.419319</ele>
        <time>2012-03-10T16:20:11Z</time>
      </trkpt>
      <trkpt lat="43.74367" lon="7.27165">
        <ele>328.419365</ele>
        <time>2012-03-10T16:20:13Z</time>
      </trkpt>
      <trkpt lat="43.74361" lon="7.27188">
        <ele>327.419403</ele>
        <time>2012-03-10T16:20:15Z</time>
      </trkpt>
      <trkpt lat="43.74358" lon="7.272">
        <ele>327.419422</ele>
        <time>2012-03-10T16:20:16Z</time>
      </trkpt>
      <trkpt lat="43.74355" lon="7.27212">
        <ele>326.419441</ele>
        <time>2012-03-10T16:20:17Z</time>
      </trkpt>
      <trkpt lat="43.74351" lon="7.27223">
        <ele>325.41946</ele>
        <time>2012-03-10T16:20:18Z</time>
      </trkpt>
      <trkpt lat="43.74346" lon="7.27235">
        <ele>324.419479</ele>
        <time>2012-03-10T16:20:19Z</time>
      </trkpt>
      <trkpt lat="43.74335" lon="7.27255">
        <ele>323.41951</ele>
        <time>2012-03-10T16:20:21Z</time>
      </trkpt>
      <trkpt lat="43.74321" lon="7.27272">
        <ele>322.419525</ele>
        <time>2012-03-10T16:20:23Z</time>
      </trkpt>
      <trkpt lat="43.74306" lon="7.27288">
        <ele>321.41954</ele>
        <time>2012-03-10T16:20:25Z</time>
      </trkpt>
      <trkpt lat="43.74291" lon="7.27306">
        <ele>321.419559</ele>
        <time>2012-03-10T16:20:27Z</time>
      </trkpt>
      <trkpt lat="43.74285" lon="7.27316">
        <ele>320.419571</ele>
        <time>2012-03-10T16:20:28Z</time>
      </trkpt>
      <trkpt lat="43.74273" lon="7.27338">
        <ele>319.419601</ele>
        <time>2012-03-10T16:20:30Z</time>
      </trkpt>
      <trkpt lat="43.74262" lon="7.2736">
        <ele>319.419632</ele>
        <time>2012-03-10T16:20:32Z</time>
      </trkpt>
      <trkpt lat="43.74247" lon="7.27379">
        <ele>321.419655</ele>
        <time>2012-03-10T16:20:34Z</time>
      </trkpt>
      <trkpt lat="43.7424" lon="7.27388">
        <ele>321.419662</ele>
        <time>2012-03-10T16:20:35Z</time>
      </trkpt>
      <trkpt lat="43.74222" lon="7.27404">
        <ele>322.41967</ele>
        <time>2012-03-10T16:20:37Z</time>
      </trkpt>
      <trkpt lat="43.74203" lon="7.27419">
        <ele>321.419678</ele>
        <time>2012-03-10T16:20:39Z</time>
      </trkpt>
      <trkpt lat="43.74183" lon="7.27429">
        <ele>319.41967</ele>
        <time>2012-03-10T16:20:41Z</time>
      </trkpt>
      <trkpt lat="43.74162" lon="7.27433">
        <ele>318.419655</ele>
        <time>2012-03-10T16:20:43Z</time>
      </trkpt>
      <trkpt lat="43.74153" lon="7.27436">
        <ele>317.419647</ele>
        <time>2012-03-10T16:20:44Z</time>
      </trkpt>
      <trkpt lat="43.74134" lon="7.27443">
        <ele>316.41964</ele>
        <time>2012-03-10T16:20:46Z</time>
      </trkpt>
      <trkpt lat="43.74116" lon="7.27452">
        <ele>315.419632</ele>
        <time>2012-03-10T16:20:48Z</time>
      </trkpt>
      <trkpt lat="43.74098" lon="7.27461">
        <ele>314.419624</ele>
        <time>2012-03-10T16:20:50Z</time>
      </trkpt>
      <trkpt lat="43.74078" lon="7.27471">
        <ele>313.419617</ele>
        <time>2012-03-10T16:20:52Z</time>
      </trkpt>
      <trkpt lat="43.74066" lon="7.27476">
        <ele>312.419617</ele>
        <time>2012-03-10T16:20:53Z</time>
      </trkpt>
      <trkpt lat="43.74047" lon="7.27485">
        <ele>311.419609</ele>
        <time>2012-03-10T16:20:55Z</time>
      </trkpt>
      <trkpt lat="43.74029" lon="7.27496">
        <ele>311.419605</ele>
        <time>2012-03-10T16:20:57Z</time>
      </trkpt>
      <trkpt lat="43.74009" lon="7.27502">
        <ele>311.419586</ele>
        <time>2012-03-10T16:20:59Z</time>
      </trkpt>
      <trkpt lat="43.73969" lon="7.27493">
        <ele>310.419518</ele>
        <time>2012-03-10T16:21:03Z</time>
      </trkpt>
      <trkpt lat="43.73951" lon="7.27483">
        <ele>309.419472</ele>
        <time>2012-03-10T16:21:05Z</time>
      </trkpt>
      <trkpt lat="43.73924" lon="7.27465">
        <ele>308.419395</ele>
        <time>2012-03-10T16:21:08Z</time>
      </trkpt>
      <trkpt lat="43.73906" lon="7.27453">
        <ele>306.41935</ele>
        <time>2012-03-10T16:21:10Z</time>
      </trkpt>
      <trkpt lat="43.73897" lon="7.27446">
        <ele>306.419319</ele>
        <time>2012-03-10T16:21:11Z</time>
      </trkpt>
      <trkpt lat="43.73876" lon="7.2742">
        <ele>304.419235</ele>
        <time>2012-03-10T16:21:14Z</time>
      </trkpt>
      <trkpt lat="43.73869" lon="7.27396">
        <ele>303.419174</ele>
        <time>2012-03-10T16:21:16Z</time>
      </trkpt>
      <trkpt lat="43.73867" lon="7.27383">
        <ele>303.419144</ele>
        <time>2012-03-10T16:21:17Z</time>
      </trkpt>
      <trkpt lat="43.73867" lon="7.2737">
        <ele>303.419117</ele>
        <time>2012-03-10T16:21:18Z</time>
      </trkpt>
      <trkpt lat="43.73871" lon="7.27345">
        <ele>302.419067</ele>
        <time>2012-03-10T16:21:20Z</time>
      </trkpt>
      <trkpt lat="43.73886" lon="7.27313">
        <ele>302.419018</ele>
        <time>2012-03-10T16:21:23Z</time>
      </trkpt>
      <trkpt lat="43.73891" lon="7.27299">
        <ele>301.418995</ele>
        <time>2012-03-10T16:21:25Z</time>
      </trkpt>
      <trkpt lat="43.73879" lon="7.27298">
        <ele>298.41898</ele>
        <time>2012-03-10T16:21:30Z</time>
      </trkpt>
      <trkpt lat="43.73872" lon="7.27309">
        <ele>297.418991</ele>
        <time>2012-03-10T16:21:32Z</time>
      </trkpt>
      <trkpt lat="43.73864" lon="7.27324">
        <ele>296.419014</ele>
        <time>2012-03-10T16:21:34Z</time>
      </trkpt>
      <trkpt lat="43.73856" lon="7.2734">
        <ele>295.419037</ele>
        <time>2012-03-10T16:21:36Z</time>
      </trkpt>
      <trkpt lat="43.73848" lon="7.27354">
        <ele>294.41906</ele>
        <time>2012-03-10T16:21:38Z</time>
      </trkpt>
      <trkpt lat="43.73838" lon="7.2737">
        <ele>294.419075</ele>
        <time>2012-03-10T16:21:40Z</time>
      </trkpt>
      <trkpt lat="43.73828" lon="7.27386">
        <ele>293.419098</ele>
        <time>2012-03-10T16:21:42Z</time>
      </trkpt>
      <trkpt lat="43.73823" lon="7.2741">
        <ele>292.41914</ele>
        <time>2012-03-10T16:21:44Z</time>
      </trkpt>
      <trkpt lat="43.73826" lon="7.27422">
        <ele>292.419174</ele>
        <time>2012-03-10T16:21:45Z</time>
      </trkpt>
      <trkpt lat="43.73832" lon="7.27432">
        <ele>291.419197</ele>
        <time>2012-03-10T16:21:46Z</time>
      </trkpt>
      <trkpt lat="43.73843" lon="7.2745">
        <ele>290.419254</ele>
        <time>2012-03-10T16:21:48Z</time>
      </trkpt>
      <trkpt lat="43.73848" lon="7.27458">
        <ele>289.419277</ele>
        <time>2012-03-10T16:21:49Z</time>
      </trkpt>
      <trkpt lat="43.73859" lon="7.27473">
        <ele>288.419323</ele>
        <time>2012-03-10T16:21:51Z</time>
      </trkpt>
      <trkpt lat="43.73872" lon="7.27487">
        <ele>287.419373</ele>
        <time>2012-03-10T16:21:53Z</time>
      </trkpt>
      <trkpt lat="43.73878" lon="7.27495">
        <ele>287.419395</ele>
        <time>2012-03-10T16:21:54Z</time>
      </trkpt>
      <trkpt lat="43.7389" lon="7.27513">
        <ele>286.419449</ele>
        <time>2012-03-10T16:21:56Z</time>
      </trkpt>
      <trkpt lat="43.73895" lon="7.27522">
        <ele>286.419479</ele>
        <time>2012-03-10T16:21:57Z</time>
      </trkpt>
      <trkpt lat="43.73898" lon="7.27535">
        <ele>286.41951</ele>
        <time>2012-03-10T16:21:58Z</time>
      </trkpt>
      <trkpt lat="43.73899" lon="7.27548">
        <ele>285.419537</ele>
        <time>2012-03-10T16:21:59Z</time>
      </trkpt>
      <trkpt lat="43.73897" lon="7.27577">
        <ele>284.419601</ele>
        <time>2012-03-10T16:22:01Z</time>
      </trkpt>
      <trkpt lat="43.73892" lon="7.27588">
        <ele>284.419613</ele>
        <time>2012-03-10T16:22:02Z</time>
      </trkpt>
      <trkpt lat="43.73878" lon="7.27605">
        <ele>283.419636</ele>
        <time>2012-03-10T16:22:04Z</time>
      </trkpt>
      <trkpt lat="43.73864" lon="7.27623">
        <ele>282.419655</ele>
        <time>2012-03-10T16:22:06Z</time>
      </trkpt>
      <trkpt lat="43.7385" lon="7.27639">
        <ele>281.41967</ele>
        <time>2012-03-10T16:22:08Z</time>
      </trkpt>
      <trkpt lat="43.73841" lon="7.2766">
        <ele>280.419701</ele>
        <time>2012-03-10T16:22:10Z</time>
      </trkpt>
      <trkpt lat="43.73833" lon="7.27679">
        <ele>280.419727</ele>
        <time>2012-03-10T16:22:12Z</time>
      </trkpt>
      <trkpt lat="43.73834" lon="7.27692">
        <ele>279.419758</ele>
        <time>2012-03-10T16:22:14Z</time>
      </trkpt>
      <trkpt lat="43.73857" lon="7.27694">
        <ele>280.419792</ele>
        <time>2012-03-10T16:22:16Z</time>
      </trkpt>
      <trkpt lat="43.7388" lon="7.27695">
        <ele>279.41983</ele>
        <time>2012-03-10T16:22:18Z</time>
      </trkpt>
      <trkpt lat="43.73901" lon="7.27695">
        <ele>278.419857</ele>
        <time>2012-03-10T16:22:20Z</time>
      </trkpt>
      <trkpt lat="43.73922" lon="7.27696">
        <ele>277.419884</ele>
        <time>2012-03-10T16:22:22Z</time>
      </trkpt>
      <trkpt lat="43.73932" lon="7.27697">
        <ele>276.419899</ele>
        <time>2012-03-10T16:22:23Z</time>
      </trkpt>
      <trkpt lat="43.73955" lon="7.27709">
        <ele>273.41996</ele>
        <time>2012-03-10T16:22:26Z</time>
      </trkpt>
      <trkpt lat="43.73955" lon="7.2773">
        <ele>272.420002</ele>
        <time>2012-03-10T16:22:28Z</time>
      </trkpt>
      <trkpt lat="43.73949" lon="7.27749">
        <ele>269.420036</ele>
        <time>2012-03-10T16:22:30Z</time>
      </trkpt>
      <trkpt lat="43.73939" lon="7.27763">
        <ele>266.420052</ele>
        <time>2012-03-10T16:22:32Z</time>
      </trkpt>
      <trkpt lat="43.73931" lon="7.27776">
        <ele>263.420067</ele>
        <time>2012-03-10T16:22:34Z</time>
      </trkpt>
      <trkpt lat="43.73918" lon="7.27785">
        <ele>260.420067</ele>
        <time>2012-03-10T16:22:36Z</time>
      </trkpt>
      <trkpt lat="43.73907" lon="7.2779">
        <ele>258.420067</ele>
        <time>2012-03-10T16:22:37Z</time>
      </trkpt>
      <trkpt lat="43.73897" lon="7.27795">
        <ele>256.420059</ele>
        <time>2012-03-10T16:22:38Z</time>
      </trkpt>
      <trkpt lat="43.73876" lon="7.27804">
        <ele>252.420055</ele>
        <time>2012-03-10T16:22:40Z</time>
      </trkpt>
      <trkpt lat="43.73857" lon="7.27813">
        <ele>248.420044</ele>
        <time>2012-03-10T16:22:42Z</time>
      </trkpt>
      <trkpt lat="43.73838" lon="7.27822">
        <ele>246.420036</ele>
        <time>2012-03-10T16:22:44Z</time>
      </trkpt>
      <trkpt lat="43.73817" lon="7.27834">
        <ele>244.420036</ele>
        <time>2012-03-10T16:22:46Z</time>
      </trkpt>
      <trkpt lat="43.73806" lon="7.2784">
        <ele>243.420036</ele>
        <time>2012-03-10T16:22:47Z</time>
      </trkpt>
      <trkpt lat="43.73786" lon="7.27852">
        <ele>241.420036</ele>
        <time>2012-03-10T16:22:49Z</time>
      </trkpt>
      <trkpt lat="43.73765" lon="7.27864">
        <ele>239.420029</ele>
        <time>2012-03-10T16:22:51Z</time>
      </trkpt>
      <trkpt lat="43.73745" lon="7.27876">
        <ele>238.420029</ele>
        <time>2012-03-10T16:22:53Z</time>
      </trkpt>
      <trkpt lat="43.73725" lon="7.27888">
        <ele>237.420029</ele>
        <time>2012-03-10T16:22:55Z</time>
      </trkpt>
      <trkpt lat="43.73705" lon="7.27902">
        <ele>236.420029</ele>
        <time>2012-03-10T16:22:57Z</time>
      </trkpt>
      <trkpt lat="43.73686" lon="7.27916">
        <ele>235.420036</ele>
        <time>2012-03-10T16:22:59Z</time>
      </trkpt>
      <trkpt lat="43.73668" lon="7.27931">
        <ele>234.420044</ele>
        <time>2012-03-10T16:23:01Z</time>
      </trkpt>
      <trkpt lat="43.73659" lon="7.27939">
        <ele>233.420044</ele>
        <time>2012-03-10T16:23:02Z</time>
      </trkpt>
      <trkpt lat="43.73639" lon="7.2794">
        <ele>232.420021</ele>
        <time>2012-03-10T16:23:04Z</time>
      </trkpt>
      <trkpt lat="43.73622" lon="7.27933">
        <ele>231.419983</ele>
        <time>2012-03-10T16:23:06Z</time>
      </trkpt>
      <trkpt lat="43.73605" lon="7.27925">
        <ele>230.419941</ele>
        <time>2012-03-10T16:23:08Z</time>
      </trkpt>
      <trkpt lat="43.73588" lon="7.27919">
        <ele>230.419907</ele>
        <time>2012-03-10T16:23:10Z</time>
      </trkpt>
      <trkpt lat="43.73571" lon="7.27914">
        <ele>230.419868</ele>
        <time>2012-03-10T16:23:12Z</time>
      </trkpt>
      <trkpt lat="43.73563" lon="7.27908">
        <ele>230.419846</ele>
        <time>2012-03-10T16:23:13Z</time>
      </trkpt>
      <trkpt lat="43.73544" lon="7.27894">
        <ele>229.419792</ele>
        <time>2012-03-10T16:23:15Z</time>
      </trkpt>
      <trkpt lat="43.73524" lon="7.27882">
        <ele>229.419743</ele>
        <time>2012-03-10T16:23:17Z</time>
      </trkpt>
      <trkpt lat="43.73504" lon="7.27872">
        <ele>228.419689</ele>
        <time>2012-03-10T16:23:19Z</time>
      </trkpt>
      <trkpt lat="43.73483" lon="7.27859">
        <ele>227.41964</ele>
        <time>2012-03-10T16:23:21Z</time>
      </trkpt>
      <trkpt lat="43.73463" lon="7.27846">
        <ele>226.419582</ele>
        <time>2012-03-10T16:23:23Z</time>
      </trkpt>
      <trkpt lat="43.73443" lon="7.27837">
        <ele>224.419533</ele>
        <time>2012-03-10T16:23:25Z</time>
      </trkpt>
      <trkpt lat="43.73422" lon="7.27828">
        <ele>222.419487</ele>
        <time>2012-03-10T16:23:27Z</time>
      </trkpt>
      <trkpt lat="43.73403" lon="7.27814">
        <ele>220.419434</ele>
        <time>2012-03-10T16:23:29Z</time>
      </trkpt>
      <trkpt lat="43.73387" lon="7.27795">
        <ele>219.419369</ele>
        <time>2012-03-10T16:23:31Z</time>
      </trkpt>
      <trkpt lat="43.73379" lon="7.27785">
        <ele>218.419334</ele>
        <time>2012-03-10T16:23:32Z</time>
      </trkpt>
      <trkpt lat="43.73366" lon="7.27762">
        <ele>216.419273</ele>
        <time>2012-03-10T16:23:34Z</time>
      </trkpt>
      <trkpt lat="43.73354" lon="7.27739">
        <ele>215.419205</ele>
        <time>2012-03-10T16:23:36Z</time>
      </trkpt>
      <trkpt lat="43.7334" lon="7.27708">
        <ele>214.419121</ele>
        <time>2012-03-10T16:23:39Z</time>
      </trkpt>
      <trkpt lat="43.73333" lon="7.27694">
        <ele>212.419079</ele>
        <time>2012-03-10T16:23:41Z</time>
      </trkpt>
      <trkpt lat="43.73324" lon="7.27684">
        <ele>211.419044</ele>
        <time>2012-03-10T16:23:43Z</time>
      </trkpt>
      <trkpt lat="43.73315" lon="7.27678">
        <ele>210.419022</ele>
        <time>2012-03-10T16:23:45Z</time>
      </trkpt>
      <trkpt lat="43.73307" lon="7.2767">
        <ele>210.418999</ele>
        <time>2012-03-10T16:23:47Z</time>
      </trkpt>
      <trkpt lat="43.73304" lon="7.27666">
        <ele>209.418976</ele>
        <time>2012-03-10T16:23:48Z</time>
      </trkpt>
      <trkpt lat="43.73298" lon="7.27656">
        <ele>208.418953</ele>
        <time>2012-03-10T16:23:50Z</time>
      </trkpt>
      <trkpt lat="43.73291" lon="7.27648">
        <ele>207.418922</ele>
        <time>2012-03-10T16:23:52Z</time>
      </trkpt>
      <trkpt lat="43.73287" lon="7.27644">
        <ele>207.418911</ele>
        <time>2012-03-10T16:23:53Z</time>
      </trkpt>
      <trkpt lat="43.73277" lon="7.27633">
        <ele>206.418869</ele>
        <time>2012-03-10T16:23:56Z</time>
      </trkpt>
      <trkpt lat="43.73265" lon="7.27626">
        <ele>204.418846</ele>
        <time>2012-03-10T16:23:59Z</time>
      </trkpt>
      <trkpt lat="43.73261" lon="7.27624">
        <ele>203.418835</ele>
        <time>2012-03-10T16:24:00Z</time>
      </trkpt>
      <trkpt lat="43.7325" lon="7.27618">
        <ele>202.418808</ele>
        <time>2012-03-10T16:24:03Z</time>
      </trkpt>
      <trkpt lat="43.73239" lon="7.27613">
        <ele>201.418777</ele>
        <time>2012-03-10T16:24:06Z</time>
      </trkpt>
      <trkpt lat="43.73229" lon="7.27605">
        <ele>203.418747</ele>
        <time>2012-03-10T16:24:09Z</time>
      </trkpt>
      <trkpt lat="43.73222" lon="7.27599">
        <ele>203.418728</ele>
        <time>2012-03-10T16:24:11Z</time>
      </trkpt>
      <trkpt lat="43.73212" lon="7.27592">
        <ele>203.418697</ele>
        <time>2012-03-10T16:24:14Z</time>
      </trkpt>
      <trkpt lat="43.73201" lon="7.27591">
        <ele>203.418678</ele>
        <time>2012-03-10T16:24:17Z</time>
      </trkpt>
      <trkpt lat="43.7319" lon="7.27589">
        <ele>205.418659</ele>
        <time>2012-03-10T16:24:20Z</time>
      </trkpt>
      <trkpt lat="43.73181" lon="7.27587">
        <ele>205.418644</ele>
        <time>2012-03-10T16:24:22Z</time>
      </trkpt>
      <trkpt lat="43.73172" lon="7.27586">
        <ele>206.418629</ele>
        <time>2012-03-10T16:24:24Z</time>
      </trkpt>
      <trkpt lat="43.73162" lon="7.27585">
        <ele>205.418617</ele>
        <time>2012-03-10T16:24:26Z</time>
      </trkpt>
      <trkpt lat="43.73152" lon="7.27585">
        <ele>204.418602</ele>
        <time>2012-03-10T16:24:28Z</time>
      </trkpt>
      <trkpt lat="43.73142" lon="7.27586">
        <ele>205.418587</ele>
        <time>2012-03-10T16:24:30Z</time>
      </trkpt>
      <trkpt lat="43.73131" lon="7.27587">
        <ele>206.418579</ele>
        <time>2012-03-10T16:24:32Z</time>
      </trkpt>
      <trkpt lat="43.73122" lon="7.27589">
        <ele>206.418568</ele>
        <time>2012-03-10T16:24:34Z</time>
      </trkpt>
      <trkpt lat="43.73112" lon="7.27591">
        <ele>206.41856</ele>
        <time>2012-03-10T16:24:36Z</time>
      </trkpt>
      <trkpt lat="43.73103" lon="7.27593">
        <ele>205.418549</ele>
        <time>2012-03-10T16:24:38Z</time>
      </trkpt>
      <trkpt lat="43.73094" lon="7.27596">
        <ele>204.418545</ele>
        <time>2012-03-10T16:24:40Z</time>
      </trkpt>
      <trkpt lat="43.73089" lon="7.27597">
        <ele>204.418541</ele>
        <time>2012-03-10T16:24:41Z</time>
      </trkpt>
      <trkpt lat="43.7308" lon="7.276">
        <ele>203.418533</ele>
        <time>2012-03-10T16:24:43Z</time>
      </trkpt>
      <trkpt lat="43.73071" lon="7.27604">
        <ele>202.418533</ele>
        <time>2012-03-10T16:24:45Z</time>
      </trkpt>
      <trkpt lat="43.73059" lon="7.27609">
        <ele>202.418526</ele>
        <time>2012-03-10T16:24:48Z</time>
      </trkpt>
      <trkpt lat="43.73047" lon="7.27614">
        <ele>201.418518</ele>
        <time>2012-03-10T16:24:51Z</time>
      </trkpt>
      <trkpt lat="43.73035" lon="7.27619">
        <ele>201.418514</ele>
        <time>2012-03-10T16:24:54Z</time>
      </trkpt>
      <trkpt lat="43.73023" lon="7.27625">
        <ele>200.41851</ele>
        <time>2012-03-10T16:24:57Z</time>
      </trkpt>
      <trkpt lat="43.73012" lon="7.27633">
        <ele>199.41851</ele>
        <time>2012-03-10T16:25:00Z</time>
      </trkpt>
      <trkpt lat="43.73002" lon="7.2764">
        <ele>199.41851</ele>
        <time>2012-03-10T16:25:03Z</time>
      </trkpt>
      <trkpt lat="43.72992" lon="7.27646">
        <ele>198.41851</ele>
        <time>2012-03-10T16:25:06Z</time>
      </trkpt>
      <trkpt lat="43.72982" lon="7.27651">
        <ele>199.41851</ele>
        <time>2012-03-10T16:25:09Z</time>
      </trkpt>
      <trkpt lat="43.72972" lon="7.27657">
        <ele>199.41851</ele>
        <time>2012-03-10T16:25:12Z</time>
      </trkpt>
      <trkpt lat="43.72958" lon="7.2767">
        <ele>189.418518</ele>
        <time>2012-03-10T16:26:07Z</time>
      </trkpt>
      <trkpt lat="43.72962" lon="7.27682">
        <ele>174.418549</ele>
        <time>2012-03-10T16:29:00Z</time>
      </trkpt>
      <trkpt lat="43.72969" lon="7.27689">
        <ele>172.418575</ele>
        <time>2012-03-10T16:30:06Z</time>
      </trkpt>
      <trkpt lat="43.7297" lon="7.27704">
        <ele>173.41861</ele>
        <time>2012-03-10T16:30:13Z</time>
      </trkpt>
      <trkpt lat="43.72972" lon="7.27718">
        <ele>173.41864</ele>
        <time>2012-03-10T16:30:18Z</time>
      </trkpt>
      <trkpt lat="43.72973" lon="7.27734">
        <ele>174.418674</ele>
        <time>2012-03-10T16:30:23Z</time>
      </trkpt>
      <trkpt lat="43.72975" lon="7.27747">
        <ele>175.418705</ele>
        <time>2012-03-10T16:30:27Z</time>
      </trkpt>
      <trkpt lat="43.72976" lon="7.27754">
        <ele>176.418716</ele>
        <time>2012-03-10T16:30:29Z</time>
      </trkpt>
      <trkpt lat="43.72976" lon="7.27769">
        <ele>177.418755</ele>
        <time>2012-03-10T16:30:33Z</time>
      </trkpt>
      <trkpt lat="43.72973" lon="7.27783">
        <ele>178.418777</ele>
        <time>2012-03-10T16:30:37Z</time>
      </trkpt>
    </trkseg>
  </trk>
</gpx>